GFSSW_850_temp_000.txt.gz
Temp
18 19 19 19 20 20 20 21 21 22 22 23 23 23 24 24 24 24 24 24 24 25 24 23 23 25 26 27 29 30 29 21 22 23 31 33 34 34 30 26 23 24 26 26 24
18 18 19 19 20 20 20 21 21 22 22 23 23 24 24 24 24 25 24 25 25 25 24 24 25 26 28 29 30 31 24 21 28 30 34 35 35 34 25 19 19 26 25 25 24
18 18 19 19 20 20 21 21 22 22 22 23 23 24 24 24 24 27 26 25 25 25 23 25 27 28 29 30 32 32 24 24 26 34 34 35 35 34 25 24 26 25 26 25 24
17 18 18 19 20 20 20 21 22 22 23 23 23 24 24 24 29 26 26 26 26 25 24 26 27 29 30 31 32 33 34 28 34 34 34 35 34 35 34 28 29 27 25 25 25
17 18 18 19 19 20 20 21 22 22 23 23 24 24 24 24 27 27 26 26 26 25 24 27 28 29 30 32 33 33 34 34 34 34 34 34 34 34 32 29 28 27 26 26 26
17 18 18 19 19 20 20 21 21 22 22 23 24 24 24 26 26 27 26 26 25 23 26 27 29 30 31 33 33 34 34 34 34 34 34 35 32 31 31 31 30 29 28 28 27
17 17 18 19 19 20 20 21 22 22 23 23 23 24 22 26 26 25 26 25 25 25 27 28 29 30 31 32 33 33 33 34 34 34 35 34 30 28 31 31 31 30 29 29 27
17 17 18 19 19 20 20 21 22 22 23 23 23 23 24 26 26 25 25 26 27 26 28 28 28 29 30 31 32 33 33 32 34 35 35 34 30 26 31 29 31 31 30 29 28
17 17 18 19 19 20 21 21 22 22 23 23 23 22 27 26 25 26 26 27 27 27 27 28 28 28 30 31 31 33 31 33 24 25 35 34 31 31 29 28 31 31 30 29 28
17 18 18 19 19 20 21 22 23 22 22 22 22 22 25 28 27 27 27 27 27 27 27 27 28 29 31 31 30 32 33 28 21 24 34 34 34 32 32 33 33 31 30 30 28
17 17 18 19 19 20 21 22 22 21 21 25 27 28 29 28 27 27 27 27 27 28 28 28 28 29 31 33 33 33 33 33 23 28 34 33 33 34 34 31 33 32 30 29 29
16 17 18 19 19 20 21 21 21 21 23 25 27 28 29 28 27 27 27 27 28 28 29 30 28 31 33 33 33 33 32 32 34 35 33 33 33 32 25 20 23 28 31 30 29
15 16 17 18 19 20 20 22 20 21 23 26 28 28 29 28 29 29 27 28 29 29 30 29 32 33 32 32 32 32 32 32 33 34 34 33 32 32 22 22 28 30 31 31 30
15 16 17 18 19 20 21 21 21 21 24 28 30 29 29 28 29 29 28 28 30 29 30 31 32 32 31 31 32 31 33 33 33 32 31 34 31 32 25 25 28 26 31 31 30
14 15 16 17 18 19 21 20 20 22 24 32 30 29 29 28 31 30 29 28 29 30 31 31 32 31 31 32 33 32 34 33 32 32 31 32 31 28 30 26 26 25 26 31 29
13 14 15 15 17 19 19 20 21 23 24 30 30 29 30 29 31 31 30 29 29 31 32 32 33 33 32 33 33 33 33 32 31 31 30 31 31 27 23 26 25 27 32 30 26
13 14 15 15 17 18 18 20 23 23 30 30 30 30 30 30 30 31 30 29 28 28 28 31 31 33 32 32 33 32 31 29 28 29 29 32 32 30 32 29 29 30 30 28 24
14 14 15 16 17 17 18 22 21 27 28 32 32 32 30 31 31 31 30 29 29 30 30 29 29 32 33 32 32 32 31 29 28 29 28 25 28 29 32 31 31 31 30 27 23
13 15 15 17 17 16 18 21 23 25 29 30 31 29 30 31 32 31 30 30 30 30 29 30 31 34 34 33 32 32 30 32 30 31 29 25 29 31 32 31 30 30 30 28 24
13 13 17 18 17 17 20 20 25 27 29 29 28 29 29 31 31 31 31 31 31 32 32 31 30 33 34 34 33 32 33 30 30 27 28 30 30 28 27 25 29 30 30 28 25
13 17 20 18 17 18 20 22 25 25 27 27 27 28 29 30 31 31 31 32 33 32 33 32 30 31 33 32 31 31 31 31 32 31 29 29 25 26 23 25 24 30 29 28 25
12 19 18 18 19 20 21 23 24 27 27 27 27 27 28 30 30 30 30 32 33 33 32 32 31 29 31 33 33 33 32 31 29 29 31 30 25 27 21 21 24 26 28 27 25
13 18 19 18 19 21 22 23 25 26 27 26 26 27 28 28 27 29 30 33 33 32 31 32 30 28 29 32 32 31 32 32 31 30 29 29 29 28 21 20 27 29 27 26 23
12 19 19 19 19 21 23 24 24 25 26 26 27 27 27 27 28 27 29 32 31 31 28 29 29 29 29 30 30 31 31 32 32 30 30 30 26 26 23 23 20 25 27 25 22
13 18 19 21 21 21 22 23 24 25 25 25 25 26 27 26 27 27 29 30 31 28 30 30 28 29 30 31 31 31 32 32 31 31 30 30 28 23 20 21 23 23 25 24 22
13 14 15 16 17 19 19 22 23 25 25 25 24 26 27 26 27 27 28 28 29 30 29 29 27 28 29 31 32 31 32 32 32 32 32 32 21 21 19 22 21 20 22 23 22
9 10 12 15 17 19 21 22 23 24 24 25 26 26 26 27 27 27 28 28 29 29 28 28 28 27 27 30 30 29 31 31 32 32 32 28 22 20 21 21 19 22 22 22 21

GFSSW_850_temp_003.txt.gz
Temp
18 19 19 20 20 20 21 21 22 22 23 23 23 24 24 24 24 24 26 26 25 25 25 24 24 24 25 26 27 29 22 22 24 25 27 30 28 27 28 25 26 27 27 25 22
18 18 19 19 20 20 21 21 22 22 23 23 23 24 24 24 25 26 27 27 25 25 25 24 25 25 26 28 28 27 20 23 27 28 28 29 30 28 28 25 26 24 24 23 23
18 18 19 19 19 20 20 21 22 22 23 23 24 24 24 25 25 26 27 27 26 26 25 24 26 27 28 29 30 29 25 27 28 28 29 27 30 29 26 25 26 25 24 23 23
18 18 19 19 19 20 20 21 22 22 23 23 24 24 24 25 26 27 27 27 26 26 25 25 26 27 28 27 31 29 31 30 30 29 30 32 32 27 31 30 30 27 24 24 23
18 18 19 19 20 20 20 21 21 22 23 23 24 24 24 24 26 27 27 27 27 26 25 25 27 28 27 29 30 30 31 33 32 32 34 33 32 31 29 30 28 27 24 24 24
18 18 19 19 20 20 21 21 21 22 23 23 24 24 24 22 26 27 27 27 27 26 25 26 27 29 29 29 29 32 32 33 33 34 34 31 31 32 29 29 28 26 25 25 25
17 18 18 19 20 20 21 21 22 22 23 23 23 24 24 26 26 26 27 26 27 26 26 27 28 28 29 27 31 32 30 31 30 30 31 32 30 29 30 28 27 25 26 25 25
17 18 18 19 19 20 21 22 22 22 23 23 23 23 26 26 26 26 26 25 25 26 26 27 28 28 28 29 29 29 29 27 28 28 29 28 28 28 31 29 28 26 27 26 25
17 17 18 19 19 20 21 22 22 23 23 23 23 21 24 26 26 26 26 26 26 26 27 27 28 28 28 26 25 27 26 24 25 29 28 26 27 30 30 29 29 23 28 27 26
17 17 18 19 19 20 21 22 23 23 22 22 22 21 25 26 27 26 26 27 27 26 27 27 27 24 24 24 23 26 25 24 24 28 28 28 26 28 27 25 22 22 20 19 26
16 17 18 19 20 20 22 22 22 21 22 22 24 26 28 27 27 27 26 27 27 27 24 27 23 22 24 26 28 29 29 27 26 29 28 26 27 29 28 26 23 17 18 17 26
16 17 18 19 20 20 21 21 21 20 21 23 24 25 26 28 27 27 27 27 27 24 26 25 23 26 29 30 30 29 29 28 29 28 26 27 29 26 25 24 26 19 19 20 22
15 16 17 18 19 20 20 21 21 21 21 23 26 26 27 28 28 27 27 27 26 25 26 24 26 30 29 29 29 28 28 28 29 30 28 31 28 23 23 23 25 23 23 23 23
15 16 16 18 19 20 20 20 20 21 18 24 26 27 28 29 28 29 27 27 27 26 26 26 29 30 29 29 29 26 29 31 31 29 26 29 23 24 22 23 24 24 28 27 27
14 15 15 16 18 19 19 19 20 21 19 30 29 30 30 29 29 29 28 28 26 27 27 26 28 28 29 29 30 27 30 29 30 26 24 26 24 23 23 24 24 22 23 26 27
13 14 15 15 17 18 18 19 20 19 19 28 29 28 28 29 29 29 29 28 28 27 28 28 31 30 29 31 30 31 30 27 29 26 22 24 25 22 22 24 24 23 24 25 24
13 13 15 15 17 17 18 19 17 18 26 28 27 28 27 27 27 28 27 26 24 24 23 27 28 30 32 30 28 30 27 21 22 22 21 26 26 23 24 25 25 24 23 24 24
14 14 16 16 17 16 17 17 17 23 24 27 28 28 27 28 28 29 27 25 26 25 24 24 24 29 30 28 27 27 24 21 23 22 24 23 24 20 19 28 28 25 23 24 24
14 15 16 17 17 16 17 15 18 22 26 27 27 27 27 29 28 28 27 26 27 26 24 24 26 31 32 31 28 27 25 25 24 25 24 22 24 24 23 27 27 24 23 23 23
13 15 17 16 16 16 15 16 20 24 25 26 24 26 27 28 27 27 26 28 29 29 27 26 24 28 32 31 29 28 28 25 22 24 23 22 22 20 22 23 28 25 23 22 23
13 14 19 17 16 16 15 18 21 23 25 24 24 24 25 26 26 27 27 30 30 30 28 27 24 26 28 29 27 27 26 26 23 22 22 22 22 20 21 20 22 22 24 22 22
12 14 18 17 16 18 16 19 21 22 23 24 25 24 23 24 24 25 27 29 32 31 28 27 24 24 26 29 31 30 27 24 21 23 23 24 23 23 20 21 22 21 23 21 23
9 14 18 18 16 17 19 20 21 22 23 24 25 25 24 23 22 25 27 31 31 30 28 28 24 23 24 25 28 28 28 27 24 23 23 23 22 21 18 19 24 26 20 20 22
9 15 18 18 19 18 18 19 21 23 23 24 24 25 23 22 23 23 26 29 30 27 29 28 25 23 23 25 27 28 28 28 25 22 23 23 22 19 18 18 17 22 18 17 21
10 15 14 16 18 17 18 19 20 21 23 25 23 23 22 21 22 23 25 26 28 28 29 25 24 26 25 27 29 29 29 30 27 25 24 24 24 21 18 17 17 16 13 16 22
10 10 11 13 16 16 17 18 20 21 22 23 22 23 23 21 22 22 24 24 25 25 27 26 23 25 24 27 28 29 29 29 30 29 27 25 21 20 22 19 18 16 18 15 21
6 8 9 13 14 16 17 19 20 21 22 23 23 23 22 23 24 24 26 26 26 25 24 23 23 23 22 25 26 24 27 28 28 28 27 25 22 19 21 21 19 20 21 21 21

GFSSW_850_temp_006.txt.gz
Temp
18 18 19 20 20 20 21 21 21 22 23 23 23 23 24 24 24 25 26 26 25 25 24 24 25 25 25 25 26 27 21 21 23 23 26 26 25 24 26 25 24 25 25 24 22
18 19 19 19 20 20 21 21 21 22 23 23 23 24 24 24 25 26 26 26 26 25 24 24 25 25 25 26 27 25 20 23 25 26 26 29 27 26 26 24 24 24 24 23 22
18 18 19 19 20 20 20 21 21 22 23 23 24 24 24 25 25 26 27 27 26 25 25 25 25 25 25 27 27 26 24 25 27 28 29 29 28 29 26 23 25 25 23 22 22
18 18 19 19 20 20 20 21 22 22 22 23 24 24 24 25 26 26 27 27 26 25 25 25 25 25 26 26 28 27 28 29 29 31 28 27 29 28 29 29 29 27 24 23 22
18 18 19 19 20 20 20 21 21 22 22 23 24 24 24 24 27 26 27 27 27 26 25 25 25 26 25 27 28 27 28 30 30 29 30 30 28 28 27 29 28 24 24 23 22
17 18 18 19 19 20 20 21 21 22 22 23 23 24 24 23 26 26 27 27 27 26 25 25 26 27 27 27 26 29 29 29 30 28 29 30 28 29 29 27 25 24 23 23 23
17 18 18 19 19 20 20 21 22 22 22 23 23 23 24 27 26 26 27 26 26 26 26 27 27 27 27 25 28 28 27 27 28 28 28 30 28 27 27 28 24 23 23 22 23
17 17 18 19 19 20 20 21 22 22 22 23 23 23 25 26 26 26 26 26 26 26 26 26 27 27 27 27 27 26 24 25 28 28 28 29 26 27 26 25 22 22 21 23 20
17 17 18 19 19 20 21 21 22 22 23 22 23 22 25 25 25 26 26 26 26 26 26 26 27 27 27 24 21 22 24 25 26 28 27 28 27 26 24 23 20 24 25 23 21
16 17 18 19 19 20 21 21 22 22 22 22 22 21 25 26 26 26 26 26 25 26 26 26 26 22 20 20 21 24 25 25 25 27 27 26 26 26 25 21 20 23 25 23 21
16 17 18 19 19 20 21 21 22 22 22 22 23 23 25 26 26 26 26 26 26 26 23 25 22 20 21 21 24 25 25 25 25 26 27 25 26 26 21 20 18 20 25 23 20
15 17 18 18 19 20 20 20 20 20 19 22 24 23 25 25 25 27 26 26 25 23 24 22 21 23 24 25 25 26 26 25 26 27 26 25 25 22 21 18 18 22 23 24 24
15 16 17 19 19 20 20 20 20 20 19 21 25 26 27 26 25 27 27 26 25 23 23 21 24 26 25 25 25 26 27 26 27 27 25 25 25 23 22 20 19 20 23 22 22
14 16 16 18 19 19 19 19 20 20 15 20 22 25 26 27 26 27 27 27 25 23 23 22 25 26 26 26 26 24 26 27 28 25 24 25 22 23 21 20 19 20 18 19 21
13 15 15 16 18 18 18 19 20 20 19 26 25 28 28 27 28 27 28 27 24 25 23 23 27 26 26 27 27 26 27 27 28 25 24 25 22 21 22 21 21 20 20 21 22
14 14 16 15 17 17 18 19 20 17 19 25 28 26 25 27 28 28 26 27 27 25 25 24 27 27 26 28 28 29 28 23 21 20 21 23 22 21 20 23 22 22 23 22 19
14 14 16 15 17 16 18 19 15 16 22 26 26 26 25 24 25 26 24 24 23 22 21 23 25 26 28 27 27 27 21 20 21 20 21 22 22 21 22 24 23 22 25 25 24
14 15 16 17 17 16 17 14 16 19 20 24 24 25 24 24 25 25 23 22 22 23 21 22 22 25 28 26 26 25 21 19 22 21 21 22 23 22 22 23 25 25 24 24 23
14 15 16 17 17 16 17 13 15 18 23 23 22 25 23 25 25 24 22 24 25 22 22 21 22 27 28 28 27 26 24 23 21 21 20 20 23 22 22 23 22 22 22 22 23
13 15 17 16 17 16 13 13 16 21 21 21 22 23 22 22 25 23 23 24 26 26 23 22 22 26 28 29 27 26 25 24 18 23 23 20 22 20 21 20 23 22 21 21 21
13 13 16 16 16 16 12 12 18 21 21 20 20 20 22 22 22 22 23 26 27 26 24 22 22 26 27 26 24 25 25 22 20 18 20 20 20 19 21 19 20 19 20 19 19
12 10 16 16 14 12 12 17 19 20 20 20 21 20 22 22 22 22 23 25 27 29 23 23 20 21 24 26 27 25 24 21 19 22 19 19 20 19 20 18 20 20 21 20 21
10 12 15 16 12 11 13 17 19 19 19 20 20 22 23 23 22 22 23 26 27 26 24 22 19 21 22 23 24 27 25 23 18 17 20 20 19 20 19 18 19 17 18 19 21
10 8 15 16 17 14 15 15 17 20 20 21 20 21 21 21 20 21 22 25 26 27 27 24 18 21 22 23 24 26 27 26 21 19 21 20 20 19 18 18 17 18 19 21 22
10 9 10 8 11 11 14 15 16 17 20 20 19 20 20 21 20 20 21 22 24 25 25 21 22 24 23 25 26 26 26 25 24 23 23 22 21 20 18 16 17 20 18 20 22
8 7 8 9 12 12 13 15 17 18 18 18 18 20 21 18 19 19 20 21 22 22 22 19 22 24 24 25 25 25 26 25 27 28 24 21 22 17 17 18 17 18 17 19 17
7 7 7 9 10 11 12 13 15 15 16 18 18 19 19 19 21 23 23 22 22 22 21 20 20 18 22 22 23 23 25 26 26 26 24 22 21 18 16 17 17 16 18 22 21

GFSSW_850_temp_009.txt.gz
Temp
18 18 19 19 19 20 20 20 21 21 22 22 22 23 23 23 23 24 25 25 25 25 25 24 25 24 24 25 26 26 21 21 22 23 25 24 23 25 25 25 24 24 23 23 21
18 18 18 19 19 20 20 20 21 21 22 22 22 23 23 23 24 25 26 25 25 25 25 25 24 24 25 25 26 23 20 23 23 24 25 24 25 25 25 24 24 23 24 23 21
18 18 19 19 19 20 20 21 21 21 22 22 23 23 23 24 24 26 26 26 25 25 25 24 24 24 24 25 26 24 23 24 27 26 27 25 25 26 25 23 25 23 22 22 21
18 18 18 19 19 20 20 21 21 21 22 22 23 23 24 24 25 26 26 26 25 25 24 24 24 24 24 25 27 25 26 27 29 30 27 27 27 26 26 27 27 25 25 23 21
17 18 18 19 19 20 20 21 21 22 22 22 23 23 24 24 26 26 26 26 26 25 25 25 25 25 25 25 26 25 27 28 29 29 28 28 26 27 25 28 27 25 23 23 22
17 18 18 18 19 20 20 21 21 22 22 22 23 23 23 23 26 26 26 26 26 25 25 25 26 26 26 26 25 27 27 27 29 29 29 26 26 29 26 27 25 24 22 21 22
17 17 18 18 19 20 20 21 21 22 22 23 23 23 23 26 26 26 26 26 26 26 25 26 26 26 26 24 27 27 26 25 26 28 28 28 26 26 25 23 22 22 21 21 22
16 17 17 18 19 20 20 21 21 22 23 23 23 23 24 25 25 25 26 25 25 25 25 26 25 26 26 27 25 25 24 24 27 27 28 28 25 23 24 23 22 22 22 22 23
16 17 18 18 19 20 20 21 22 23 23 23 23 23 25 25 25 25 25 26 25 25 26 26 26 26 25 22 20 21 23 24 25 27 27 26 24 23 23 23 21 22 22 23 24
16 17 18 18 19 20 20 21 22 22 22 22 22 22 24 25 25 26 25 25 25 25 25 26 25 20 19 19 21 23 24 24 24 26 26 26 23 21 21 21 21 22 23 24 25
16 17 18 18 19 20 20 21 21 21 22 22 22 22 25 25 25 26 25 25 25 25 22 24 21 19 20 20 23 24 24 23 24 26 27 25 22 23 21 20 21 22 23 24 25
16 17 18 19 19 19 19 19 17 17 18 22 23 23 25 24 23 26 25 25 24 22 23 20 20 21 22 22 23 23 23 22 24 26 25 24 21 20 19 19 21 23 23 23 22
15 16 18 18 19 19 19 19 19 20 18 20 23 24 26 25 24 25 26 25 24 22 22 21 23 24 24 24 24 23 23 24 25 25 24 25 21 21 21 19 20 22 22 22 22
15 16 17 18 19 19 19 19 19 20 14 19 21 24 25 26 24 26 26 26 24 22 22 21 23 24 24 24 23 23 24 25 26 25 24 24 22 22 20 18 18 20 21 24 21
14 15 15 16 18 18 18 19 20 20 19 24 24 26 25 26 26 25 26 26 23 23 22 22 25 25 24 25 25 24 25 26 26 24 23 23 21 21 20 19 18 19 21 24 24
14 14 15 16 17 17 18 19 20 16 18 23 25 24 24 26 27 25 25 26 26 24 24 22 25 25 24 26 26 26 26 21 18 18 21 23 22 21 19 20 20 20 21 22 23
13 13 15 16 17 16 18 19 15 16 21 23 23 24 23 23 24 25 23 23 22 22 20 22 23 24 26 25 25 23 20 19 21 19 20 21 21 21 21 21 21 21 21 22 23
14 14 15 16 16 16 18 15 16 18 18 21 23 23 24 24 24 24 22 21 21 21 19 21 21 24 26 24 25 24 21 19 21 20 20 20 22 22 21 22 22 23 22 22 22
14 15 16 17 16 16 17 13 14 16 20 20 20 22 21 22 25 24 21 21 22 20 21 19 21 25 26 27 26 24 22 21 18 18 20 19 22 22 21 22 20 21 20 18 18
14 15 16 16 16 16 13 12 15 17 20 19 20 20 21 21 22 22 21 23 23 22 22 22 21 23 26 27 26 24 23 22 17 22 23 20 21 20 21 20 20 19 17 19 24
14 14 15 15 16 16 11 11 16 19 20 19 19 20 21 22 22 22 22 24 24 24 22 20 20 24 27 25 25 24 23 18 18 17 19 19 19 18 20 19 19 19 19 21 22
13 11 14 14 13 9 11 15 17 18 19 18 18 19 19 21 22 22 21 24 24 24 21 20 18 20 22 24 25 24 23 20 19 21 17 18 20 19 19 19 20 19 18 19 22
11 12 13 13 10 10 12 15 17 18 18 18 19 20 20 20 20 20 21 24 24 24 23 21 18 20 21 21 24 25 24 19 16 16 17 19 19 17 17 17 18 18 19 19 20
11 9 13 14 13 12 13 14 16 18 18 19 18 19 19 19 18 20 21 23 24 24 24 22 16 20 23 21 23 25 24 23 20 19 19 18 22 18 17 16 16 17 19 20 20
10 7 8 8 10 10 11 14 15 16 18 19 18 19 18 17 20 19 20 20 22 24 21 19 20 20 22 23 24 25 25 22 22 21 22 23 20 19 17 15 17 19 20 19 19
8 7 9 8 9 10 9 11 13 14 15 16 16 16 17 17 18 19 20 20 19 20 20 17 21 22 23 23 24 25 25 25 25 24 23 22 19 19 17 18 17 20 20 17 19
7 6 7 8 7 9 10 12 13 13 15 16 16 15 17 18 15 18 21 22 20 21 19 18 18 18 22 21 23 22 25 25 25 26 25 24 22 15 16 16 17 20 18 18 19

GFSSW_850_temp_012.txt.gz
Temp
17 17 18 18 19 19 20 20 21 21 21 22 22 23 23 23 24 24 25 26 25 24 25 25 25 25 24 25 25 25 20 20 22 23 24 24 23 24 24 24 24 24 24 23 21
17 18 18 18 18 19 19 20 20 21 21 22 22 23 23 23 24 25 25 26 25 25 25 25 25 24 24 25 25 22 20 22 22 23 24 24 24 25 25 23 23 24 23 23 22
17 18 18 18 19 19 19 20 20 21 21 22 22 23 23 24 24 25 25 26 25 24 24 24 23 24 24 25 25 23 22 22 24 27 27 25 24 25 24 23 24 24 23 22 21
17 18 18 18 19 19 19 20 20 21 21 22 22 23 24 24 24 25 26 25 25 24 24 23 24 24 23 24 26 25 25 25 27 27 26 24 26 24 25 26 27 26 25 22 21
17 18 18 18 18 19 19 20 20 21 21 22 22 23 24 24 26 25 26 25 25 25 24 24 24 24 24 24 25 25 26 27 28 27 27 26 25 25 25 26 27 25 25 22 22
17 17 18 18 19 19 19 20 20 21 22 22 22 23 23 23 25 25 25 25 25 25 24 25 25 25 25 25 24 26 25 25 28 28 27 25 25 26 24 26 26 24 24 22 24
17 17 18 18 19 19 20 20 21 22 22 23 23 23 23 25 25 25 25 25 25 25 25 25 25 25 25 24 26 25 24 24 25 27 27 27 26 24 24 24 23 23 23 22 24
16 17 18 18 19 19 19 20 21 22 23 23 23 23 24 25 25 25 25 25 25 25 24 25 24 25 25 25 24 23 23 22 26 26 27 27 24 24 22 22 21 21 22 23 25
16 17 17 18 19 19 20 20 21 21 22 22 22 23 24 24 25 25 25 25 25 25 25 25 25 25 24 21 20 18 23 24 24 25 26 26 24 22 21 21 20 21 22 22 23
16 17 17 18 19 20 20 21 21 21 21 22 22 22 23 24 24 25 25 25 25 25 25 25 24 19 17 18 20 22 23 23 23 24 25 25 24 20 21 21 21 21 21 22 21
16 17 17 18 19 19 20 21 21 21 21 22 22 22 24 24 24 24 24 24 24 25 22 22 20 19 20 20 22 22 23 22 22 23 24 24 23 21 20 20 20 21 21 22 22
15 16 17 18 19 19 19 18 16 17 16 22 22 22 24 24 23 24 24 24 24 22 22 20 19 20 21 21 21 22 22 21 22 24 24 22 23 19 19 19 20 20 21 23 22
15 16 17 18 19 19 19 18 18 19 16 20 21 22 24 24 24 24 24 24 22 21 21 20 24 21 23 22 22 22 22 22 23 24 23 22 21 20 20 19 21 21 21 22 21
14 15 16 17 19 19 19 18 19 19 14 19 21 23 23 25 24 25 25 25 23 21 20 21 22 23 23 23 22 23 22 25 24 23 23 22 21 20 19 18 18 20 20 22 22
13 14 15 16 17 18 18 19 19 19 19 23 23 23 23 25 26 24 25 25 22 22 21 22 24 24 24 24 23 23 25 24 25 22 22 23 20 20 18 20 18 19 21 21 22
13 13 15 16 17 18 18 19 20 16 18 22 23 23 22 24 25 24 24 25 25 23 22 22 24 24 23 25 24 25 24 19 17 17 20 22 20 20 20 21 21 20 22 21 21
13 14 15 16 16 17 18 19 15 16 20 22 22 21 22 22 24 23 22 22 21 21 21 21 22 23 25 24 24 23 20 19 21 18 19 20 20 20 21 21 20 21 21 21 21
13 15 15 16 16 16 17 15 16 18 17 19 20 20 22 22 22 23 20 20 21 20 18 20 20 23 23 23 23 22 20 18 22 19 20 19 21 22 21 21 22 22 22 24 25
14 15 16 16 16 16 17 13 15 15 19 19 19 19 20 21 23 23 20 20 20 20 20 18 20 23 25 25 24 22 21 20 16 16 19 18 20 20 22 19 19 20 23 24 24
14 15 14 15 16 16 12 12 14 15 18 18 20 20 20 20 22 21 20 21 22 20 21 21 20 22 25 25 24 23 21 21 16 20 22 19 19 20 21 19 18 18 20 22 23
14 14 14 15 15 15 11 10 14 17 19 18 18 19 20 20 21 21 21 23 22 22 20 18 19 22 25 24 22 22 21 18 16 17 18 19 19 17 20 18 18 18 19 22 21
13 10 12 13 12 8 10 12 16 17 18 18 18 18 19 19 20 21 21 22 23 22 19 18 16 18 20 22 23 23 22 19 18 20 15 16 19 18 17 18 19 18 19 21 22
11 12 12 13 9 9 11 15 16 17 17 18 18 19 19 19 19 19 21 23 23 22 21 19 17 17 19 20 23 24 21 17 15 15 16 18 19 18 17 17 19 19 20 20 20
10 9 12 12 11 11 13 14 15 17 17 18 17 18 18 18 17 19 20 22 23 22 22 21 15 17 19 20 21 23 23 19 18 18 17 17 22 20 18 16 16 18 19 19 19
10 6 7 8 9 9 11 12 14 13 15 16 17 15 16 16 17 17 18 19 21 21 20 18 19 17 19 21 23 24 23 21 22 20 22 22 20 20 18 16 17 18 18 17 18
8 7 8 7 8 10 9 11 13 13 14 16 15 15 14 15 18 17 18 19 20 19 18 15 19 20 22 22 22 23 23 22 22 21 21 22 19 18 18 19 18 18 17 17 18
7 7 7 6 6 9 9 11 12 12 14 15 15 14 14 15 15 15 15 17 16 20 18 16 17 17 21 20 22 22 23 23 24 22 22 21 22 16 15 16 17 16 17 18 18

GFSSW_850_temp_015.txt.gz
Temp
17 18 18 18 19 19 20 20 21 21 22 22 23 23 24 24 24 25 26 25 26 25 24 24 25 25 25 25 25 25 27 26 27 27 29 26 28 24 24 24 23 23 23 23 22
17 17 18 19 19 19 20 20 21 21 22 22 23 23 24 24 25 25 25 26 26 25 24 24 24 24 25 25 25 27 28 28 28 28 29 28 27 26 26 25 24 23 23 23 22
17 17 18 18 19 19 19 20 20 21 21 22 23 24 24 24 25 25 25 26 25 25 24 24 24 24 25 25 25 26 29 27 28 27 27 29 27 26 27 26 26 25 22 21 22
17 17 18 18 18 19 19 20 21 21 21 22 23 24 24 24 26 25 26 25 25 24 24 23 24 24 26 27 25 27 27 27 28 27 27 28 27 27 26 29 27 27 26 24 22
17 17 18 18 18 19 19 20 20 21 22 22 22 23 24 24 25 25 26 25 25 25 24 24 24 24 26 26 26 27 28 27 27 27 26 26 27 28 26 27 26 26 25 24 25
17 17 17 18 18 19 19 20 21 21 22 22 22 23 23 24 25 25 25 25 25 25 24 24 24 24 25 26 26 26 26 27 28 27 27 28 27 26 26 26 24 25 24 23 26
16 17 17 18 18 19 19 20 21 22 22 22 23 23 23 25 25 25 25 24 24 24 24 24 24 24 25 26 25 26 28 29 28 28 29 27 28 27 25 24 23 22 21 24 21
16 17 17 18 19 19 19 20 21 22 22 22 23 23 24 24 25 25 25 25 25 24 24 24 24 25 25 25 26 27 27 29 29 28 28 28 30 26 23 23 23 22 21 22 20
16 17 17 18 19 19 20 21 21 21 21 22 22 22 23 23 24 24 24 24 25 24 24 24 25 24 24 26 27 26 29 27 28 27 29 28 29 24 23 23 23 22 22 21 20
16 16 17 18 19 19 20 21 22 21 21 21 21 21 23 23 24 24 24 24 24 24 24 24 23 25 24 26 27 27 27 26 26 28 28 28 28 26 23 23 23 22 21 21 20
15 16 17 18 19 19 20 21 21 21 21 22 22 22 23 23 23 24 24 24 24 24 25 22 25 26 26 25 25 25 25 25 27 27 26 27 27 26 23 23 23 22 20 20 19
15 16 17 18 19 19 19 20 19 18 18 22 22 22 23 23 23 23 24 24 24 25 23 24 25 25 24 23 24 24 25 27 28 26 27 27 28 26 23 23 22 22 21 21 19
15 15 17 17 19 19 19 19 19 18 17 20 21 21 23 23 24 23 24 24 24 24 24 25 25 23 25 24 25 25 26 26 27 27 26 25 27 26 24 22 22 21 21 20 19
14 15 16 17 18 18 18 18 19 19 20 23 21 22 22 24 25 25 24 25 24 25 23 24 24 24 24 25 25 26 25 26 27 27 28 25 28 27 25 25 23 22 21 20 20
14 15 15 17 17 18 18 18 19 19 23 23 22 22 22 24 24 24 24 25 25 24 24 25 24 24 25 26 26 26 26 26 26 27 26 26 28 29 24 28 26 23 22 20 22
13 14 15 16 17 17 18 18 19 21 21 23 23 23 23 24 24 23 24 25 24 24 24 25 24 26 27 26 26 27 25 24 23 25 27 25 27 29 29 27 25 23 22 21 22
13 14 15 16 16 17 18 19 20 20 22 23 23 23 24 24 24 24 25 25 25 23 24 24 25 25 25 26 25 26 26 26 26 26 27 23 25 28 26 25 24 24 22 22 22
14 15 15 16 16 16 17 20 18 20 20 21 21 22 24 24 25 24 24 24 23 24 23 25 26 25 25 26 27 26 27 27 25 26 27 22 26 29 25 24 23 22 23 23 21
14 15 15 16 16 16 17 19 20 18 19 20 22 23 23 23 24 25 24 25 25 24 25 24 25 25 25 26 27 25 26 25 24 21 25 26 26 27 24 25 23 23 22 22 21
14 14 14 15 16 16 18 16 17 17 18 20 21 21 23 23 24 25 23 24 25 24 25 24 25 26 27 26 24 26 25 26 25 25 25 25 24 28 26 26 25 23 23 22 19
14 13 13 14 14 15 17 16 16 17 18 20 20 21 21 22 22 23 23 24 24 23 24 24 24 26 26 27 27 25 26 24 25 24 27 26 28 26 26 26 25 24 22 22 20
13 14 12 13 14 10 16 15 16 18 18 19 19 20 21 21 22 23 24 24 23 23 24 24 24 24 26 25 25 26 26 25 27 24 23 25 28 25 23 23 23 23 21 19 19
12 11 12 13 15 14 13 16 16 18 18 19 19 19 20 20 21 21 22 23 22 23 23 22 23 25 25 26 24 26 25 24 22 23 24 26 28 24 23 22 21 22 21 18 19
11 13 12 13 11 13 14 16 17 17 18 18 19 19 19 20 19 20 22 23 22 23 21 22 21 24 26 27 26 25 25 24 26 26 25 27 28 28 26 23 21 21 20 18 19
10 9 8 13 12 12 13 14 16 16 16 16 18 17 17 19 19 20 21 22 23 21 21 23 23 22 24 24 25 27 27 24 25 26 28 27 26 28 26 24 22 21 19 18 18
8 8 8 8 8 12 12 13 15 15 16 17 17 17 17 18 19 19 18 20 22 22 22 19 23 21 24 24 24 26 27 26 26 25 25 26 26 26 20 19 19 19 18 18 17
7 7 7 7 10 12 13 13 14 14 15 15 15 16 17 17 15 16 15 16 17 17 20 21 22 22 25 23 24 24 26 26 27 26 27 26 27 23 22 20 20 18 18 18 18

GFSSW_850_temp_021.txt.gz
Temp
18 19 19 19 20 20 20 21 21 22 22 23 23 24 24 25 25 25 25 26 25 26 26 26 27 28 29 31 31 32 34 34 34 35 35 35 35 33 32 31 30 30 30 28 25
18 18 19 19 20 20 21 21 21 22 22 23 23 24 25 25 26 24 25 25 26 26 25 27 29 30 31 32 33 34 32 34 36 35 35 35 34 34 33 32 30 29 28 26 25
18 18 19 20 20 20 21 21 22 22 22 23 24 24 25 25 25 27 26 26 26 26 25 27 29 30 32 33 34 35 35 35 35 34 34 35 35 34 34 34 33 30 28 26 25
18 18 19 19 20 20 21 21 22 22 23 23 24 24 25 25 30 26 26 26 26 25 26 28 29 31 33 33 33 34 34 34 34 34 34 35 34 35 34 34 32 31 28 26 26
18 18 19 19 20 20 21 21 22 22 23 24 24 24 26 26 27 26 26 26 25 25 27 29 31 32 33 34 33 34 34 34 34 34 34 34 35 34 34 33 31 30 28 27 27
18 18 19 19 19 20 21 22 22 23 23 24 24 24 24 29 25 26 24 25 26 27 28 29 31 31 32 33 33 33 33 34 34 34 34 34 35 34 33 32 32 30 29 29 28
17 18 18 19 20 20 21 21 22 23 23 23 24 24 24 28 25 24 25 26 26 28 28 28 29 30 32 33 33 33 33 35 35 35 35 34 35 35 33 32 32 30 29 29 28
16 17 18 19 20 20 21 21 22 23 23 23 24 24 27 26 25 25 26 26 26 27 28 27 28 30 31 32 32 34 35 34 36 35 34 34 34 35 33 33 32 31 30 29 28
16 17 18 18 19 20 21 21 22 22 23 23 23 23 29 26 25 26 26 27 27 27 27 27 28 31 32 33 34 35 34 34 35 35 35 34 34 35 33 32 32 30 29 28 27
16 17 18 18 19 20 21 21 22 23 23 23 23 24 26 28 27 27 26 27 28 28 28 28 31 33 34 34 33 34 34 35 34 35 34 34 35 36 34 33 32 30 29 28 26
16 17 17 18 19 20 20 21 21 21 21 27 28 28 27 27 25 26 26 27 28 29 31 30 32 33 34 34 33 33 33 33 34 35 33 34 34 35 34 33 33 31 28 28 27
15 16 17 18 19 20 20 22 21 20 25 27 27 27 26 27 28 27 27 28 29 30 31 31 32 34 33 32 32 33 33 33 34 34 33 34 34 35 35 34 33 32 29 28 27
15 16 17 18 19 19 20 21 19 20 25 29 27 27 27 26 29 29 27 29 30 31 31 32 33 32 31 32 32 33 33 33 33 34 34 34 33 34 35 33 32 31 30 29 27
15 16 17 18 19 18 20 19 20 20 27 29 28 28 28 27 29 29 28 29 31 31 32 32 33 31 32 32 32 32 33 32 32 32 33 34 32 34 35 34 33 32 30 30 27
14 15 16 17 18 19 19 19 19 20 27 30 29 27 28 29 31 29 28 29 30 31 31 32 32 31 31 32 33 33 33 32 32 32 33 33 33 34 34 34 34 33 31 30 27
14 15 16 16 17 18 18 19 20 25 27 29 29 29 30 29 30 30 29 29 30 31 31 32 31 32 32 33 32 33 32 32 33 33 32 33 33 33 34 33 33 33 31 29 28
14 15 15 16 18 17 18 20 24 26 30 30 29 30 30 30 31 29 29 29 30 29 29 31 32 32 32 31 32 32 31 31 31 32 32 33 32 33 34 34 33 33 31 29 28
15 15 16 16 15 16 18 23 24 29 30 29 30 31 30 31 31 30 30 29 31 31 32 31 31 32 33 32 32 32 32 31 29 31 31 32 31 32 34 33 32 31 31 29 28
15 14 15 15 16 16 20 24 26 29 29 29 28 29 30 31 31 30 30 31 32 32 30 31 31 32 32 33 32 32 31 33 32 32 32 33 34 34 34 33 32 32 31 30 29
15 16 17 14 15 17 22 23 28 27 27 27 28 30 29 30 29 30 30 32 32 32 32 32 30 32 32 32 32 32 33 31 31 29 29 32 31 32 32 33 32 32 31 30 28
14 18 15 15 16 19 23 26 27 25 25 27 28 29 30 30 30 31 31 31 32 32 32 32 30 31 31 30 31 31 31 31 33 32 30 29 28 33 33 33 32 32 31 29 28
15 21 16 16 20 22 24 26 23 26 24 27 27 27 28 29 29 30 31 31 31 31 31 32 31 30 31 33 33 32 32 32 31 30 31 31 29 33 34 33 32 32 30 29 27
17 19 16 17 22 24 25 25 24 26 26 27 27 27 27 27 27 30 30 29 29 31 31 31 30 29 29 32 32 31 32 32 32 31 29 29 30 33 32 32 32 31 30 28 27
16 21 19 18 21 21 24 23 23 24 25 25 27 26 26 27 27 28 29 28 28 29 26 28 30 29 30 28 30 30 31 32 31 30 31 32 32 32 32 33 30 30 29 27 25
17 20 18 21 22 22 23 24 24 23 23 24 25 25 26 26 27 26 29 29 28 26 27 29 27 29 30 31 32 31 32 32 31 31 30 31 26 24 31 32 31 30 27 26 24
15 17 18 20 19 21 17 22 23 25 24 24 24 26 26 25 26 27 28 28 28 29 29 29 27 28 29 31 31 31 31 31 32 32 32 32 29 18 30 30 30 29 27 26 25
12 14 15 18 19 21 22 22 22 24 23 23 25 26 25 25 25 25 24 24 26 26 27 27 27 27 27 30 31 29 30 31 32 32 32 31 32 32 32 30 29 29 27 25 25

GFSSW_850_temp_024.txt.gz
Temp
19 19 19 20 20 20 21 21 21 22 22 23 24 24 24 25 26 26 26 27 26 27 27 27 28 29 31 31 33 34 29 28 35 35 35 35 34 34 33 32 32 31 30 28 25
19 19 19 20 20 21 21 21 22 22 23 23 24 25 25 25 26 25 27 26 27 27 27 29 31 31 32 33 34 30 24 27 36 36 35 35 35 35 32 28 26 30 29 27 26
18 19 19 19 20 21 21 21 22 22 23 23 24 25 26 26 25 27 27 27 27 27 27 28 30 31 33 34 35 28 24 28 35 35 35 36 36 35 34 28 23 28 28 27 26
18 18 19 20 20 21 21 22 22 23 23 24 24 25 26 26 30 27 27 27 27 27 26 29 30 32 34 34 35 32 32 35 35 35 35 36 35 35 35 33 30 29 28 27 26
18 19 19 20 20 21 21 22 22 23 23 24 24 25 26 26 28 27 27 27 27 26 28 30 32 33 34 35 35 35 36 35 35 35 35 35 35 35 35 33 32 30 28 28 27
18 18 19 19 20 21 21 22 22 23 23 24 24 25 25 28 27 27 27 27 27 28 30 30 32 32 33 34 34 35 35 35 35 35 35 35 33 35 34 34 32 30 29 28 28
18 18 19 19 20 21 22 22 23 23 23 24 24 25 24 28 27 26 26 27 28 29 30 30 30 31 33 34 34 34 34 35 36 36 36 34 32 34 34 33 32 31 30 30 28
17 18 19 19 20 21 22 22 23 23 24 24 24 25 26 27 27 27 27 28 28 28 29 30 29 30 32 33 34 34 34 34 37 36 36 35 30 35 34 34 33 32 31 30 29
16 17 18 19 20 21 22 22 23 23 24 24 24 24 28 27 27 27 28 29 29 29 29 29 29 31 33 33 33 34 33 34 34 36 36 35 34 35 35 34 33 32 31 30 29
16 17 17 18 19 21 22 23 24 24 23 24 25 24 27 29 29 28 28 29 29 29 30 30 31 32 34 34 32 34 34 35 34 36 35 35 35 36 35 34 33 32 30 30 28
16 17 17 18 19 20 22 23 23 22 23 26 28 29 29 29 29 28 28 28 29 30 31 32 32 32 34 35 34 34 34 34 35 36 34 34 34 35 36 35 34 31 30 29 28
16 16 17 18 19 20 21 22 23 23 24 27 27 29 29 29 29 29 29 29 30 30 32 32 31 34 35 34 33 33 33 34 35 36 34 34 34 36 36 35 34 32 30 29 28
15 16 17 18 19 20 21 23 22 23 25 28 29 29 29 28 29 30 29 30 31 31 32 32 34 34 33 33 33 33 33 34 34 35 35 34 33 34 36 34 34 33 30 30 29
15 16 17 18 20 20 21 22 22 23 26 30 30 29 29 29 30 31 30 30 32 31 32 33 34 33 33 32 34 32 35 34 33 33 32 35 32 34 34 34 33 33 32 30 28
15 16 16 18 19 20 21 21 21 23 25 32 31 30 30 30 32 31 30 30 31 32 33 32 33 32 32 33 34 33 34 33 33 32 33 33 33 32 34 34 33 34 32 31 28
14 15 16 17 18 20 20 21 22 24 25 31 30 30 31 30 31 31 30 30 31 32 33 32 33 34 33 34 34 34 33 33 33 33 31 33 33 33 31 29 34 34 31 30 28
14 15 16 17 19 19 19 21 23 24 30 31 30 31 31 31 31 32 31 30 30 29 30 32 32 33 33 33 33 33 32 30 30 31 31 26 30 31 34 34 34 33 31 30 28
15 16 17 17 17 18 19 23 23 27 29 33 32 32 30 32 31 32 31 30 31 32 32 31 31 33 34 32 32 32 32 30 28 30 29 30 26 29 34 34 33 33 31 29 28
15 15 17 17 18 17 20 22 24 28 31 31 31 31 31 32 32 32 30 31 32 32 30 32 32 35 34 34 33 32 31 33 31 32 31 33 32 33 33 34 33 32 31 30 28
16 16 19 17 16 17 21 21 27 30 29 30 29 30 30 31 31 32 31 32 32 33 33 32 31 33 33 33 33 32 33 31 32 29 29 31 28 22 22 18 32 32 31 30 28
15 18 18 18 17 19 20 23 26 28 27 28 29 30 31 31 32 31 31 32 33 33 33 33 31 32 33 31 31 32 31 32 32 31 29 29 26 23 21 18 32 32 31 30 28
14 20 18 18 19 21 22 24 26 28 27 28 28 29 29 31 31 31 31 32 33 33 32 32 31 30 31 33 34 33 32 32 30 29 31 31 30 27 26 30 32 32 31 30 29
14 20 18 18 20 22 24 25 26 28 27 27 28 29 29 28 28 30 31 31 31 32 28 31 30 29 30 32 33 32 32 32 32 31 29 28 20 22 30 32 32 32 31 29 28
15 21 19 18 20 22 23 25 26 26 27 27 28 29 28 27 28 28 30 30 29 30 28 28 30 29 29 29 29 30 31 32 31 30 30 31 29 27 24 23 21 27 30 28 27
15 21 21 21 21 22 23 25 25 25 25 26 27 27 27 27 27 27 29 30 29 27 29 30 28 29 30 31 32 32 31 32 31 31 30 31 29 24 20 18 20 23 29 28 26
16 17 17 21 21 23 21 23 24 26 26 25 25 27 27 27 28 28 28 29 29 29 28 29 27 28 28 30 31 31 32 32 32 32 32 32 31 25 19 22 19 20 28 27 25
14 14 16 20 21 21 22 22 23 24 26 26 26 26 27 27 27 25 26 26 27 26 28 27 27 27 26 29 30 29 31 32 32 32 32 31 30 21 18 16 19 28 27 27 25

GFSSW_850_temp_027.txt.gz
Temp
19 19 20 20 20 21 21 21 22 22 22 23 24 24 25 25 26 27 26 27 27 27 28 29 30 30 30 30 31 31 23 22 25 28 31 34 30 31 31 31 30 30 26 25 24
19 19 20 20 20 21 21 21 22 23 23 23 24 24 25 26 26 27 27 27 27 27 27 27 29 30 31 32 31 26 25 27 29 31 33 34 30 31 30 30 29 26 26 25 24
18 19 19 20 20 21 21 22 22 22 23 24 24 25 25 26 26 26 27 28 28 28 27 28 29 30 31 32 31 30 27 31 31 34 35 33 32 32 28 26 28 26 25 25 24
18 19 19 20 20 21 21 22 22 23 23 24 25 25 26 26 27 28 28 28 28 28 28 29 30 30 30 30 31 28 30 31 34 35 34 33 35 31 29 29 30 27 26 25 25
18 18 19 20 20 21 22 22 23 23 23 24 25 25 26 26 27 28 28 28 28 28 29 29 30 31 29 32 34 33 31 32 35 35 35 34 33 33 31 31 29 27 26 26 25
17 18 19 20 20 21 22 22 23 23 24 24 25 25 26 25 27 27 28 28 28 28 29 30 30 31 31 32 32 34 34 34 34 35 35 31 31 33 32 30 29 27 27 26 26
17 18 19 20 20 21 22 22 23 23 24 24 25 25 25 28 27 27 28 28 28 28 29 30 30 30 31 29 33 34 32 31 33 34 33 34 31 32 33 30 29 28 28 27 26
17 18 18 19 20 21 22 23 23 24 24 24 24 24 27 28 27 27 27 28 28 28 29 29 29 30 30 31 32 31 31 28 31 33 34 32 28 31 33 32 29 29 28 28 26
17 18 18 19 20 21 22 23 24 24 24 24 24 23 25 27 28 28 27 28 29 29 29 29 29 29 30 28 26 28 26 28 30 33 32 34 31 31 33 33 31 30 30 28 27
17 17 18 19 20 21 22 23 24 24 24 24 24 23 27 27 28 28 28 28 29 29 29 30 30 26 26 26 25 28 29 30 29 31 32 33 31 32 33 33 31 31 30 28 27
16 17 18 19 20 21 23 24 24 23 23 24 26 27 28 29 29 29 28 28 29 29 27 30 26 25 27 28 31 31 30 30 33 34 33 33 31 30 34 33 30 30 29 28 27
16 17 18 19 20 21 22 22 22 23 23 25 26 27 28 29 29 28 29 28 29 27 28 27 25 28 31 33 32 31 30 29 31 33 31 32 30 30 31 32 29 29 29 28 27
16 17 18 19 20 21 20 22 22 23 23 25 27 27 28 29 29 29 29 29 28 27 28 26 29 32 33 32 31 30 30 29 31 31 30 31 28 28 31 32 29 29 29 28 27
15 16 17 19 20 20 21 22 22 23 19 26 27 29 29 29 29 29 29 29 29 28 28 28 31 32 32 31 31 28 31 32 32 29 26 30 24 26 28 28 28 28 29 27 26
15 16 16 18 19 20 20 21 21 22 20 30 29 30 30 29 30 30 30 29 28 29 30 28 31 31 31 31 31 30 32 31 31 28 27 27 25 27 28 26 24 27 28 26 26
14 15 16 17 19 20 20 20 21 20 21 30 30 29 28 30 29 31 30 30 30 29 29 29 32 33 31 32 32 32 31 30 28 26 23 26 26 26 27 24 22 26 29 26 26
15 15 16 17 19 18 19 20 19 19 27 29 28 28 27 28 28 30 29 27 25 26 25 28 30 32 33 31 31 31 26 22 23 22 23 27 26 22 29 26 25 24 27 27 26
15 16 17 18 18 18 19 18 19 24 25 28 29 28 27 28 28 29 28 26 27 27 25 25 26 29 31 30 29 27 25 21 25 23 24 28 25 25 27 27 25 28 28 27 25
16 16 17 19 18 18 18 17 20 24 28 29 28 28 27 29 29 28 27 27 28 28 25 26 28 32 32 32 30 30 27 27 26 27 24 25 27 27 23 24 28 27 23 25 24
16 16 18 17 18 18 17 18 22 26 28 28 26 29 28 29 28 27 26 28 29 30 29 27 26 31 32 33 32 31 29 25 22 25 24 25 25 23 20 21 22 26 27 25 25
15 15 18 18 17 18 16 19 23 25 26 27 25 26 27 27 28 28 28 30 30 30 30 27 26 27 31 29 28 27 26 27 23 23 23 23 22 23 21 20 19 21 22 25 25
14 16 18 18 17 19 17 22 23 24 26 27 27 26 26 26 25 27 29 30 32 32 29 28 25 24 27 29 30 28 27 25 21 24 23 22 22 23 21 19 21 21 19 25 26
13 17 18 18 16 17 20 22 23 23 24 27 26 27 26 26 24 26 29 30 29 27 26 26 24 23 24 26 28 29 29 31 25 22 23 23 21 23 22 20 19 18 19 23 26
12 16 18 18 19 18 19 20 22 25 26 26 25 26 25 26 26 25 25 29 29 27 29 28 25 24 23 27 27 28 29 29 26 23 23 24 23 23 22 23 24 24 25 26 24
13 17 17 16 17 18 19 20 21 23 26 26 24 25 25 25 24 25 27 27 29 28 29 25 24 26 25 27 28 28 29 29 26 25 24 25 23 21 20 25 25 27 22 24 24
13 14 15 16 20 19 18 19 22 23 24 24 23 25 25 24 24 23 23 22 24 27 27 24 23 26 25 27 27 27 28 29 29 29 28 22 21 17 19 23 23 24 24 22 23
12 13 14 17 18 19 20 21 22 22 23 25 25 24 24 21 23 24 25 26 25 24 22 23 22 23 22 25 25 23 26 27 26 26 26 26 20 19 18 19 20 24 27 26 23

GFSSW_850_temp_030.txt.gz
Temp
19 19 20 20 20 21 21 22 22 22 23 23 24 24 25 25 26 27 27 27 28 28 28 29 30 30 30 30 31 30 25 25 28 28 27 30 29 30 29 27 27 27 25 24 23
18 19 20 20 20 21 21 22 22 23 23 23 24 24 25 26 26 27 27 27 27 28 28 29 30 30 30 30 30 27 21 25 28 28 30 30 30 30 28 27 25 26 25 24 23
18 19 19 20 21 21 21 22 22 23 23 23 24 25 26 26 26 27 27 28 28 28 28 29 29 29 30 31 30 27 24 26 29 29 31 30 30 29 27 25 26 24 23 24 23
18 19 19 20 21 21 22 22 23 23 23 24 24 25 26 26 26 27 28 28 28 28 29 29 29 29 29 29 31 29 30 31 32 33 34 30 31 29 30 28 28 27 25 24 23
18 19 19 20 21 21 22 22 23 23 23 24 25 25 26 26 27 27 28 28 28 28 28 28 29 29 28 29 30 29 31 31 33 33 33 34 31 30 30 29 26 26 25 24 23
18 19 19 20 21 21 22 22 23 23 24 24 24 25 25 24 27 27 28 28 28 28 28 29 29 30 30 29 29 31 32 32 32 32 33 31 31 31 29 28 26 25 25 24 24
18 19 19 20 21 21 22 23 23 23 24 24 24 25 25 28 27 27 28 28 28 28 28 29 29 29 29 27 31 31 31 29 32 33 33 32 31 29 28 27 26 25 25 25 24
18 18 19 20 21 22 22 23 23 24 24 24 24 24 26 27 27 27 27 28 28 28 28 29 29 29 29 30 30 28 27 27 29 30 32 31 28 29 28 27 26 26 25 25 25
17 18 19 19 20 22 23 23 24 24 24 24 24 24 27 27 27 27 27 28 28 28 29 29 29 29 29 26 23 24 26 26 28 31 32 30 28 30 28 27 26 26 26 25 25
17 18 19 19 20 22 23 23 24 24 24 24 24 23 27 28 28 28 27 28 28 29 29 29 29 24 22 22 24 25 27 27 27 30 31 31 30 30 29 28 27 26 26 26 26
16 17 18 19 20 21 23 24 24 23 23 24 24 25 27 28 28 28 28 28 28 28 26 28 24 23 24 24 26 27 29 28 29 30 31 29 31 30 30 28 27 26 26 26 26
16 17 18 19 20 21 21 22 22 21 22 24 25 25 27 27 27 28 28 28 28 25 26 24 24 25 27 28 28 30 29 28 28 31 30 30 30 29 27 28 27 26 25 25 25
16 17 18 19 20 20 21 21 22 22 21 23 27 27 28 28 27 28 28 28 27 25 25 24 26 29 28 29 30 28 29 29 28 30 29 29 26 26 27 27 27 26 26 26 26
15 16 17 19 20 20 21 21 21 22 16 21 24 27 28 27 28 29 29 28 27 26 26 26 28 29 29 30 29 28 29 29 29 26 25 26 23 23 23 24 26 25 25 25 25
15 16 16 18 19 20 20 21 22 22 19 26 26 29 29 28 29 29 29 28 27 27 28 26 28 29 30 30 29 27 30 29 29 25 25 25 23 23 24 23 22 26 25 25 26
15 15 16 17 19 19 20 21 21 17 19 26 28 26 25 27 28 29 29 29 29 27 27 26 29 30 29 30 30 30 27 24 21 21 22 24 24 23 25 23 23 26 25 24 24
15 15 16 17 19 18 19 21 16 17 22 26 27 25 24 24 26 27 27 26 25 25 24 25 27 29 32 30 28 27 21 20 22 21 22 23 23 22 22 24 25 23 24 23 24
15 16 17 18 18 18 19 16 18 20 21 24 27 26 24 25 25 26 25 24 24 24 23 24 24 28 30 28 27 26 22 20 24 22 22 23 25 23 23 24 24 24 25 20 19
16 17 18 18 18 18 19 14 16 19 25 24 24 25 24 26 27 25 24 24 25 23 24 23 25 28 29 30 27 28 25 23 22 22 21 21 25 24 22 23 23 21 22 19 22
16 17 18 18 18 18 14 14 16 22 23 23 23 24 23 25 24 23 23 25 26 26 25 24 24 26 29 30 29 27 26 24 19 24 25 22 24 22 23 24 22 18 21 21 21
15 16 18 17 17 17 13 13 19 23 23 22 22 24 24 25 25 23 24 27 26 27 24 22 23 26 29 27 27 26 25 22 20 19 21 21 21 20 23 21 19 20 23 23 22
15 13 17 17 15 13 13 17 20 21 23 22 24 25 25 24 25 25 24 26 29 29 25 23 21 22 28 27 28 25 26 21 20 24 19 19 20 20 18 19 21 21 21 20 22
13 15 17 17 12 11 15 18 20 20 21 21 23 24 24 25 24 24 24 27 28 26 25 24 20 22 24 23 25 28 28 23 18 18 21 20 20 19 19 19 21 24 23 24 25
12 11 17 18 17 16 16 16 19 22 22 23 23 24 23 23 23 24 24 26 27 27 26 24 19 21 21 23 24 26 25 25 22 21 21 20 21 21 18 18 17 19 27 27 27
12 12 14 11 14 14 17 17 17 18 22 24 23 23 23 23 21 20 22 23 25 26 26 21 22 24 23 26 26 26 26 25 25 24 24 25 21 20 18 17 17 19 20 20 21
12 12 13 13 15 14 13 16 18 19 21 22 23 23 18 18 20 21 21 21 22 21 23 18 21 24 23 25 24 24 25 25 26 25 25 21 22 18 19 19 18 17 17 17 18
11 12 11 13 13 13 16 18 20 21 22 20 20 19 18 19 21 22 22 22 22 22 20 19 19 19 22 23 23 23 25 26 23 21 21 22 20 16 16 17 17 17 20 21 20

GFSSW_850_temp_033.txt.gz
Temp
19 19 19 20 20 20 21 21 22 22 23 23 24 24 25 26 26 27 27 28 27 28 29 29 29 30 31 31 30 28 24 25 26 27 29 28 27 27 27 25 25 25 25 25 21
18 19 19 20 21 21 21 22 22 23 23 24 24 25 25 26 27 27 27 27 28 28 28 29 30 30 30 30 30 26 22 26 27 28 29 29 28 28 26 25 24 24 24 23 22
19 19 20 20 20 21 21 22 22 23 23 24 24 25 26 26 26 27 28 28 28 28 28 28 29 29 29 29 28 26 25 26 28 29 30 29 29 28 25 24 24 23 22 22 22
18 19 20 20 20 21 22 22 22 23 23 24 24 25 26 26 26 27 28 28 28 28 28 28 29 29 28 27 29 28 28 28 30 31 28 28 30 28 28 28 28 27 24 23 22
18 19 19 20 21 21 22 22 22 23 23 23 24 25 26 26 27 27 28 28 28 28 28 28 29 29 27 27 28 27 29 30 30 30 31 30 29 28 28 29 27 24 24 24 23
18 19 19 20 21 21 22 22 23 23 23 23 24 25 25 24 27 27 27 28 28 28 28 28 28 29 28 28 27 30 30 30 32 32 32 29 29 30 26 27 25 24 23 24 24
18 18 19 20 21 22 22 22 23 23 23 23 24 24 25 27 27 27 27 27 28 28 28 28 28 29 29 27 29 30 29 28 30 30 31 31 29 28 27 27 25 24 24 24 24
18 18 19 20 21 22 22 23 23 23 24 24 24 24 26 27 27 27 27 27 28 28 28 29 29 28 28 29 28 26 25 26 28 29 31 30 26 27 26 26 24 23 23 24 24
18 18 19 20 21 22 22 23 24 24 24 24 24 23 26 27 27 27 27 27 27 28 28 29 28 28 28 24 23 22 26 26 26 29 29 29 28 27 26 25 24 24 23 24 24
17 18 19 19 21 22 22 23 24 23 23 23 23 23 26 27 27 28 27 27 27 28 28 28 28 22 20 21 23 26 26 25 25 29 30 29 29 25 26 25 24 24 24 24 24
17 18 19 19 20 21 23 23 23 23 23 24 23 24 26 26 27 28 27 27 27 27 25 26 23 23 24 24 25 26 26 25 27 29 29 29 28 27 26 26 25 25 24 24 24
16 17 18 19 20 21 21 21 19 18 19 24 24 24 26 26 25 28 28 27 27 25 25 22 22 23 25 25 25 25 26 26 27 29 29 29 28 28 24 26 26 25 25 25 25
15 17 18 19 20 20 20 20 20 21 20 23 25 25 27 27 26 27 28 27 26 25 25 23 25 27 27 27 27 28 28 28 27 26 26 27 25 24 25 26 26 25 25 25 26
15 16 17 19 19 20 20 20 21 22 15 20 23 26 27 27 26 28 28 28 26 25 24 24 26 27 27 27 26 28 27 28 28 25 25 24 23 23 20 23 22 23 24 25 25
15 16 16 17 19 19 19 21 21 22 19 24 24 27 27 27 28 28 28 28 25 26 25 25 27 27 28 28 28 27 28 27 26 23 24 24 22 22 22 23 22 23 25 25 25
14 15 16 17 18 18 19 21 21 17 19 23 26 25 24 26 27 28 28 28 28 26 26 24 28 28 27 29 28 27 27 21 19 19 21 23 23 22 23 23 22 23 24 22 21
15 15 16 17 18 18 20 21 16 16 21 24 25 24 23 23 25 26 26 25 23 24 24 24 26 27 29 29 27 24 20 19 22 19 21 21 22 21 21 22 23 20 22 21 23
15 16 17 18 18 18 19 16 18 19 19 22 24 24 24 24 25 24 24 23 24 24 22 23 24 28 29 28 27 25 22 19 23 21 21 21 23 22 22 23 21 24 23 25 25
16 17 17 18 18 18 19 14 16 18 22 22 22 24 23 24 26 25 22 23 24 23 23 21 24 26 28 28 27 25 24 22 19 18 20 20 23 23 20 19 21 21 22 22 24
16 17 17 17 18 18 14 13 16 18 22 21 22 23 23 22 23 23 21 23 24 24 25 24 24 25 27 27 26 25 22 23 18 23 24 21 22 21 21 20 18 18 20 20 20
16 16 17 17 17 18 12 12 16 21 22 22 22 22 23 24 22 21 23 25 24 24 23 21 22 24 26 26 25 24 23 18 18 18 20 20 21 19 20 18 18 19 20 21 22
15 12 16 16 15 9 12 14 19 20 21 21 20 20 23 24 24 24 22 24 27 24 22 22 19 21 24 26 25 26 24 20 19 22 17 18 20 20 20 20 21 21 20 22 23
14 14 15 16 12 10 12 16 18 19 19 21 21 22 23 24 24 23 24 26 25 23 22 21 20 20 22 23 24 24 25 19 16 16 19 20 20 18 18 19 21 20 20 22 22
13 12 15 15 15 14 15 15 17 20 19 21 20 21 22 23 21 23 23 25 25 23 24 24 17 21 21 23 23 25 24 23 20 19 19 19 23 19 18 18 20 23 23 21 20
12 11 12 11 13 13 14 15 16 17 20 20 21 21 22 21 20 20 20 21 24 22 22 19 20 22 22 24 25 25 25 24 24 22 23 23 21 20 17 16 20 22 22 21 19
11 10 12 12 12 11 11 15 16 17 18 20 21 20 19 19 19 21 20 20 22 20 20 17 20 23 23 24 24 25 24 24 24 23 23 21 19 13 17 19 20 21 20 22 24
11 10 10 12 10 11 13 14 15 17 20 19 19 18 19 19 20 21 21 21 20 21 19 18 18 19 22 21 23 22 24 23 20 17 17 22 18 16 16 18 19 20 20 21 20

GFSSW_850_temp_036.txt.gz
Temp
18 19 19 19 20 21 21 22 22 22 23 23 24 25 26 26 27 27 28 27 27 28 29 29 30 30 31 30 29 28 23 24 26 26 27 27 26 26 26 25 24 23 24 23 22
18 19 19 20 20 21 21 22 22 22 23 23 24 25 26 26 27 27 27 27 27 28 29 29 29 30 30 30 29 25 21 26 26 27 28 28 27 26 25 24 23 23 24 23 22
18 19 19 20 20 20 21 22 22 22 23 24 24 25 26 26 27 27 27 27 27 28 28 29 29 29 29 29 28 25 24 26 27 28 29 28 28 28 25 23 24 23 24 22 22
18 19 19 20 20 21 21 22 22 23 23 24 24 25 26 26 25 27 27 27 27 28 28 29 29 29 26 27 28 27 27 27 29 29 28 27 29 26 26 27 28 27 26 22 22
18 19 19 20 21 21 21 22 22 23 23 24 24 25 26 27 27 27 27 27 27 27 28 28 28 28 27 27 27 27 27 29 29 30 29 29 28 27 26 28 28 25 24 23 23
18 19 19 20 21 21 22 22 22 23 23 24 24 25 25 25 27 27 27 27 27 27 28 28 28 28 28 27 27 28 28 29 30 30 29 28 27 29 26 27 26 25 24 24 23
18 18 19 20 21 21 22 22 22 23 23 24 24 24 25 27 27 27 27 27 27 28 28 28 28 28 28 27 28 27 27 27 29 29 30 29 27 26 28 25 24 24 24 24 24
17 18 19 20 21 21 22 22 23 23 24 24 24 24 25 27 27 27 27 27 27 27 28 28 28 28 28 28 26 25 24 25 28 29 30 29 26 27 27 24 22 23 23 23 24
17 18 18 19 20 21 22 22 23 24 24 24 24 24 25 26 27 27 27 27 27 27 28 28 28 27 27 24 23 21 25 26 25 27 28 28 27 27 24 23 22 22 23 23 24
17 17 18 19 20 21 22 23 23 23 23 23 23 23 26 26 26 27 27 27 26 27 28 28 27 21 20 22 24 26 25 25 24 26 28 28 27 24 23 23 22 22 23 23 24
16 17 18 19 20 21 22 23 22 22 22 23 23 24 25 26 26 27 27 27 26 27 23 24 21 23 25 24 24 25 25 24 24 26 27 27 28 27 24 24 23 23 23 23 24
16 17 18 18 20 20 20 20 18 19 19 24 24 24 25 25 25 27 27 27 26 24 24 21 22 23 24 24 25 24 25 25 25 26 27 26 28 26 22 24 24 23 23 24 24
15 16 17 18 20 20 20 19 19 20 18 22 24 24 26 26 26 27 27 27 25 24 24 22 25 25 25 26 26 25 25 27 26 25 25 25 25 25 24 23 25 25 23 25 25
15 16 17 18 19 19 19 20 20 21 14 19 22 25 25 26 26 27 27 27 25 24 22 23 24 26 26 26 25 26 26 27 27 25 25 22 22 22 21 20 21 22 23 23 21
15 15 16 17 18 18 19 20 21 21 18 23 23 25 25 26 27 26 27 27 24 24 23 24 26 26 26 27 26 26 27 26 25 22 23 22 21 21 20 21 20 21 22 21 20
14 15 16 17 18 18 19 20 21 16 18 22 24 24 24 25 26 26 26 27 27 25 25 24 27 26 26 28 27 25 24 20 17 18 21 22 21 21 21 21 20 20 20 20 20
15 15 16 17 18 18 19 20 15 16 20 23 23 23 22 23 24 26 24 24 22 22 23 24 26 26 28 28 26 23 20 19 22 19 21 20 21 21 21 21 21 19 20 21 20
15 16 17 17 17 18 19 16 18 18 18 20 22 22 22 23 24 24 23 22 23 22 20 22 23 26 27 27 25 24 21 19 23 20 21 19 24 22 20 20 21 22 23 21 22
16 16 17 17 18 18 18 13 15 17 20 20 20 23 23 23 24 24 21 21 22 22 23 21 24 25 26 27 26 24 23 20 17 17 19 19 22 22 20 19 20 19 20 21 22
16 16 16 17 17 17 14 13 15 17 19 21 21 22 22 22 22 21 20 22 23 22 24 23 24 25 26 26 24 25 21 22 17 22 23 20 20 21 21 19 18 19 20 22 24
16 16 16 16 16 17 12 11 15 19 19 21 21 21 22 23 21 20 21 23 23 22 23 20 22 24 24 25 23 23 21 17 16 17 19 20 20 18 20 18 17 19 22 22 24
15 12 15 15 14 8 11 13 17 19 20 20 20 20 21 22 22 19 21 22 24 22 22 21 19 21 23 24 23 24 22 19 19 21 15 17 20 20 19 19 20 21 22 22 21
14 14 14 15 11 10 11 14 17 18 19 20 20 20 21 21 22 22 22 25 24 22 21 20 19 19 21 22 24 24 22 17 15 15 17 19 20 19 18 19 20 20 21 21 21
13 11 14 15 13 13 14 14 15 19 18 19 19 20 21 21 20 22 21 24 23 22 23 23 16 19 20 22 22 24 23 20 19 19 18 18 22 22 19 18 19 20 21 21 20
12 9 10 11 11 12 13 14 15 15 18 18 19 18 21 21 20 20 20 20 22 21 20 19 21 20 21 22 23 23 23 22 23 20 22 22 20 20 19 17 19 19 19 21 19
11 10 11 11 10 11 10 14 14 15 16 18 18 19 18 19 20 21 19 21 21 20 19 16 18 21 22 23 24 23 23 22 22 20 22 21 20 17 16 17 19 18 19 20 19
10 10 10 10 10 11 12 14 14 14 17 19 18 17 18 19 20 20 20 19 19 20 19 18 17 19 20 21 23 22 22 22 19 17 19 21 20 15 16 18 19 21 21 22 20

GFSSW_850_temp_039.txt.gz
Temp
18 19 19 20 20 21 21 22 22 22 23 24 24 25 26 26 27 27 28 28 28 29 28 28 28 28 27 28 28 27 30 29 30 29 30 28 29 26 25 25 24 23 23 23 22
18 19 19 20 20 21 21 21 22 22 23 24 24 25 26 26 27 27 27 27 28 28 28 29 29 29 29 28 27 29 30 29 29 30 30 29 29 27 27 25 24 22 23 23 22
18 19 19 20 20 21 21 22 22 23 23 24 24 25 26 26 27 26 27 27 28 28 28 29 29 30 29 29 28 27 30 29 29 30 29 30 28 28 27 26 26 24 23 23 22
18 18 19 20 20 21 21 22 22 23 23 24 24 25 26 27 27 26 27 27 27 28 27 28 29 29 29 30 28 30 29 28 30 28 29 29 28 28 28 29 26 26 25 24 22
18 18 19 20 21 21 21 22 22 23 23 24 24 25 26 26 26 26 27 27 27 27 28 28 28 28 30 29 28 30 30 29 29 28 29 28 29 30 27 27 28 26 23 25 23
18 19 19 20 20 21 22 22 23 23 24 24 24 25 25 25 26 27 27 27 27 27 28 27 27 28 28 28 29 28 28 29 29 30 28 29 29 29 28 27 26 24 24 23 24
18 19 19 20 20 21 22 22 23 23 24 24 24 25 25 26 26 26 27 27 27 27 28 28 27 27 28 30 27 28 31 32 31 31 31 29 29 29 27 24 23 23 23 22 24
17 18 19 20 20 21 22 22 23 24 24 24 25 24 25 26 27 27 26 27 27 27 27 27 28 28 27 27 28 29 30 31 31 30 30 30 32 31 26 25 24 23 22 22 24
17 18 19 19 20 21 22 22 23 24 24 24 24 24 25 26 26 26 26 26 27 27 27 28 28 26 27 30 30 30 30 30 31 29 30 30 32 28 25 25 25 23 23 22 22
17 17 18 19 20 21 22 23 23 23 23 24 24 23 26 26 26 26 26 26 27 27 27 27 26 28 28 30 30 30 29 29 28 30 30 30 30 29 25 25 25 24 23 23 22
16 17 18 19 20 21 22 22 22 22 23 24 24 24 25 26 26 26 26 26 26 27 27 24 28 29 29 28 27 28 28 27 29 29 29 29 30 30 26 25 25 24 23 23 23
16 17 18 19 20 20 21 21 20 19 20 24 24 24 25 25 25 26 26 26 26 27 25 27 27 27 26 26 27 27 28 29 29 28 29 29 30 28 26 26 26 25 23 23 20
16 17 17 18 19 20 20 20 20 20 18 22 23 23 25 25 25 26 26 26 26 25 26 27 28 25 27 27 28 28 29 29 29 28 27 28 31 28 27 25 24 25 24 23 19
15 16 17 18 19 19 19 20 20 20 21 24 23 24 24 25 26 27 27 27 26 26 25 26 26 27 27 28 28 29 28 29 29 30 30 26 29 29 26 26 25 23 24 19 18
15 16 17 18 18 19 19 20 20 20 23 24 24 24 24 25 26 25 26 26 26 26 26 27 27 27 27 29 28 30 28 28 27 28 28 28 29 30 26 28 25 23 22 19 19
15 16 17 17 18 18 19 20 20 22 22 24 24 24 24 25 26 25 26 26 26 26 25 26 26 27 29 28 28 26 27 26 25 27 29 25 27 30 28 26 25 23 21 19 19
15 16 17 17 17 18 19 20 21 21 22 24 24 24 24 25 26 26 26 26 26 25 25 26 27 28 28 29 27 27 28 28 28 28 28 24 26 29 27 25 24 23 21 19 19
15 16 17 17 17 18 19 20 19 21 21 22 23 23 24 25 26 26 25 26 25 25 24 26 27 28 28 29 29 27 28 28 26 27 27 24 28 30 26 23 22 22 21 19 19
16 17 17 17 17 18 18 19 20 19 21 22 23 24 24 24 25 25 26 26 26 26 26 26 27 27 27 28 28 26 28 26 24 21 27 26 27 28 25 25 22 21 20 20 19
16 16 16 16 17 17 18 17 18 18 20 21 22 23 24 24 25 25 24 26 26 25 27 26 26 27 27 27 26 27 25 27 26 26 26 26 25 29 28 28 23 22 22 20 20
16 15 15 15 16 17 18 17 17 18 18 21 22 22 23 24 24 24 25 26 26 26 26 26 26 27 26 27 28 26 27 24 26 24 27 27 28 26 26 25 25 23 22 22 21
15 16 14 15 16 10 16 15 16 19 19 21 21 22 22 23 24 23 25 25 24 25 26 26 26 26 27 26 25 26 27 27 28 24 23 26 29 26 24 23 23 24 22 20 21
14 14 14 15 16 15 14 16 16 19 20 21 21 22 22 23 23 23 23 24 23 25 26 24 24 26 26 26 25 27 24 23 22 24 24 27 28 25 24 22 21 22 20 21 21
13 15 14 15 13 15 15 16 17 17 18 19 20 21 22 23 21 23 24 24 22 23 23 25 23 26 27 27 26 25 25 24 26 27 25 28 28 29 27 24 22 21 20 20 19
12 11 11 15 14 14 14 15 16 17 18 18 20 20 22 22 22 23 23 23 23 21 22 25 26 23 25 25 26 27 26 25 26 27 29 28 26 28 22 20 21 20 19 19 19
11 11 11 11 10 13 12 15 16 17 17 19 19 21 20 21 23 24 22 22 23 23 22 21 23 24 25 25 26 26 26 25 25 25 26 25 26 21 18 18 19 20 19 19 19
10 10 10 10 12 15 15 14 15 15 18 18 19 19 20 21 20 20 20 19 19 21 22 22 22 23 24 24 25 25 25 26 24 23 25 26 27 21 21 20 20 19 18 18 18

GFSSW_850_temp_045.txt.gz
Temp
19 20 20 21 21 21 22 22 23 23 24 24 24 25 26 26 27 28 28 28 27 28 28 27 27 27 28 29 31 32 24 25 35 34 35 35 35 33 32 32 31 30 30 28 25
19 20 20 21 21 21 22 22 23 23 24 24 24 25 26 26 27 28 27 28 28 28 28 29 30 30 31 32 34 35 25 32 36 36 36 35 35 34 34 33 31 29 28 26 25
19 20 20 21 21 22 22 22 23 23 24 24 25 25 26 27 27 29 28 28 28 28 28 30 31 32 32 34 35 35 32 36 36 35 35 36 35 34 35 34 33 31 28 26 25
19 20 20 20 21 22 22 23 23 24 24 24 25 26 27 27 31 28 28 28 28 28 28 30 31 32 33 35 35 35 36 35 36 35 35 36 35 35 34 34 33 31 28 27 26
19 20 20 20 21 22 22 23 23 24 24 25 25 26 27 28 30 28 28 27 28 28 30 31 32 33 35 36 35 35 36 35 35 35 35 35 35 35 35 34 32 30 29 28 27
19 20 20 21 21 22 22 23 23 24 24 25 25 26 25 30 28 27 27 27 29 30 31 31 32 33 34 35 35 36 35 36 36 36 35 35 36 35 35 34 32 30 29 28 28
18 19 20 21 21 22 22 23 24 24 24 25 25 25 26 29 28 27 28 29 29 30 31 31 31 32 34 35 35 35 35 36 37 36 36 36 36 35 35 34 32 31 30 29 28
18 19 20 21 21 22 23 23 24 24 25 25 25 25 28 28 28 27 28 29 29 29 30 30 30 32 33 34 35 35 36 36 37 36 36 35 32 27 35 34 33 31 30 29 28
18 19 20 20 21 22 23 23 24 24 25 25 25 25 30 28 28 29 29 30 30 30 30 29 30 32 34 34 35 36 33 30 36 36 36 36 35 35 35 34 34 32 30 29 28
17 18 19 20 21 22 23 23 24 25 25 25 25 26 28 30 29 29 29 29 30 31 31 31 32 34 34 35 33 35 35 34 34 36 36 36 36 37 35 35 34 33 31 30 28
17 18 19 20 21 22 23 23 25 24 24 28 29 30 29 29 28 28 29 29 30 30 32 33 33 33 34 35 36 35 35 35 35 36 35 36 35 36 35 35 35 33 31 30 29
17 18 18 19 20 21 22 24 22 20 25 28 28 28 28 28 29 30 29 30 31 32 33 33 32 35 36 35 35 34 34 34 36 35 35 36 35 36 36 35 34 34 32 30 30
16 17 18 19 20 20 21 21 21 21 26 30 29 29 29 28 30 31 29 31 32 32 33 32 34 34 33 34 33 34 34 34 34 35 36 35 35 35 35 34 33 33 32 31 30
16 17 17 19 20 20 22 20 21 21 27 31 29 29 29 29 30 30 30 31 32 32 33 33 34 33 33 33 34 33 35 35 34 34 34 35 33 34 34 34 34 33 32 31 30
15 16 17 18 19 21 20 20 21 22 26 31 30 28 30 30 32 31 30 31 32 32 32 32 33 33 32 33 34 34 35 34 34 34 34 34 34 35 35 34 34 33 31 30 28
15 16 17 17 18 19 19 20 21 26 27 30 31 30 30 30 32 31 30 30 31 32 32 33 33 34 34 34 34 35 34 34 34 34 33 34 33 34 34 33 34 32 29 28 26
15 16 17 17 19 18 19 21 25 26 31 30 31 32 31 31 32 31 31 31 31 29 30 32 32 33 33 33 34 34 33 32 32 32 32 34 33 34 34 33 33 32 29 27 26
16 16 17 17 16 17 19 24 24 29 30 31 31 32 31 32 32 32 31 31 32 32 32 31 31 33 34 33 33 33 33 33 31 32 33 33 32 33 34 33 32 31 29 27 26
16 16 16 16 16 17 21 24 26 29 30 29 31 30 31 32 32 32 31 32 33 33 31 32 32 35 34 34 34 33 32 35 33 33 32 34 33 34 34 33 32 31 29 27 26
16 18 19 16 16 18 23 23 28 28 27 28 28 31 30 31 31 31 31 32 33 33 32 33 31 34 34 34 34 33 34 32 33 30 30 32 32 33 33 33 32 31 30 28 27
16 20 17 16 17 20 23 26 27 26 26 27 28 29 30 31 31 31 31 32 33 33 33 33 31 33 33 32 32 32 32 33 34 33 32 29 30 34 33 33 33 32 29 27 27
17 22 17 17 21 23 25 26 22 26 25 27 27 28 28 30 29 30 31 32 32 33 32 33 32 31 32 34 34 35 33 33 32 31 32 32 29 34 33 32 32 31 29 28 28
19 21 17 18 23 25 25 24 24 25 26 26 27 28 28 28 27 30 31 31 31 32 32 32 31 30 31 33 33 32 33 33 33 32 31 31 30 34 32 32 31 30 28 26 26
18 22 20 19 22 23 24 23 24 23 24 25 26 27 27 27 28 28 29 31 30 31 28 30 31 30 31 32 33 31 32 33 33 32 32 32 30 27 31 31 30 28 27 26 25
18 22 20 22 23 23 23 23 23 24 23 25 25 25 26 26 27 28 29 31 30 27 29 31 28 30 31 32 33 33 32 32 32 32 32 25 27 22 30 30 30 28 26 26 25
17 19 20 21 20 22 17 22 23 24 24 24 24 26 27 26 27 28 29 30 30 30 29 30 28 30 30 32 33 31 32 32 32 33 32 32 26 20 26 28 27 26 26 25 25
15 16 17 20 21 22 23 23 23 23 23 23 25 26 26 27 26 27 27 27 28 28 29 29 29 29 28 31 32 30 32 32 32 33 33 31 30 29 29 28 27 26 26 26 25

GFSSW_850_temp_048.txt.gz
Temp
19 20 20 21 21 21 22 23 23 23 23 24 24 25 26 26 27 28 28 29 29 29 29 27 27 29 30 31 32 32 28 31 32 29 31 29 28 34 32 32 32 31 31 28 26
19 20 20 21 21 22 22 23 23 23 24 24 25 25 26 26 27 26 28 29 29 29 30 29 31 32 32 33 34 33 27 30 34 37 35 31 29 29 28 29 31 30 29 27 26
19 20 20 21 21 21 22 23 23 24 24 24 25 26 26 26 27 28 28 29 29 29 30 30 31 32 33 34 35 30 30 33 35 36 36 34 29 27 27 27 30 30 28 27 26
20 20 20 20 21 21 22 23 23 24 24 25 25 26 27 27 30 29 29 29 29 29 30 30 31 33 34 34 36 34 33 36 37 36 36 37 35 29 31 31 31 31 29 28 27
20 20 20 21 21 22 22 23 23 24 24 25 26 26 27 28 30 29 29 29 29 29 29 31 32 33 34 35 36 36 36 36 36 36 36 36 36 36 31 33 33 31 29 28 28
19 20 21 21 21 22 22 23 24 24 24 25 25 26 27 29 29 28 29 28 29 29 31 32 33 33 34 35 36 36 36 37 37 37 36 36 36 35 35 34 33 31 30 29 28
19 20 20 21 22 22 23 23 24 24 25 25 25 26 25 29 29 29 29 29 30 31 32 32 33 33 34 35 35 36 35 37 36 37 37 36 34 33 31 29 32 32 31 30 29
19 19 20 21 22 22 23 23 24 25 25 25 25 25 27 30 30 30 29 30 30 31 31 32 31 32 33 34 35 35 36 32 31 32 37 36 32 33 32 28 30 33 32 31 29
18 19 20 21 21 22 23 24 24 25 25 25 26 26 29 29 29 30 30 31 32 31 31 31 31 32 33 34 34 35 34 31 33 34 37 36 33 33 32 31 35 33 32 31 30
18 19 19 20 21 22 23 24 25 26 25 25 26 26 28 31 31 30 31 31 31 32 32 32 32 33 34 34 32 32 28 30 28 34 37 36 36 36 36 36 35 34 32 31 30
17 18 19 20 21 22 24 25 26 25 24 28 29 29 31 30 30 30 30 31 31 31 32 33 33 32 34 35 35 35 30 28 28 32 35 35 36 36 36 36 36 35 32 31 30
17 18 19 20 21 22 23 23 24 23 25 28 29 30 31 30 30 30 31 31 32 31 33 33 33 34 35 36 35 35 35 33 34 36 36 35 36 37 36 36 35 35 33 32 25
16 17 18 20 21 22 22 24 23 24 26 28 30 30 31 30 30 32 31 31 32 32 33 33 34 36 35 35 34 34 34 34 35 36 36 35 35 35 36 35 35 34 33 32 25
16 17 18 19 21 21 23 23 23 24 26 30 31 31 31 31 31 31 32 32 33 32 33 33 35 35 34 34 34 33 35 35 35 34 33 35 33 33 35 35 35 33 33 31 26
15 16 17 19 20 22 22 23 23 24 25 33 33 31 31 31 32 32 32 32 32 33 33 33 34 34 33 34 35 34 36 35 35 34 34 34 34 32 34 33 33 33 32 30 27
15 16 17 18 19 21 21 22 23 25 26 32 32 31 31 32 32 33 32 32 32 33 34 33 34 35 34 35 35 35 35 34 34 34 32 34 34 32 32 31 33 31 30 29 27
15 16 17 17 19 20 21 22 25 25 31 31 32 32 32 32 32 33 32 31 31 30 30 33 33 34 34 34 35 34 33 31 31 31 32 35 34 33 34 34 33 31 29 28 27
16 16 17 18 18 19 20 24 23 28 29 33 33 33 32 33 32 33 32 31 32 32 32 31 31 33 34 33 33 33 33 32 30 31 29 30 30 33 34 33 32 31 29 27 26
16 17 18 18 19 18 21 23 25 28 31 32 32 31 32 33 33 32 32 32 33 33 31 32 32 35 35 35 34 33 32 34 33 33 32 29 28 34 34 33 32 30 29 28 27
17 17 20 19 18 19 22 22 27 30 30 30 29 31 30 32 32 32 32 33 33 34 34 33 31 34 35 35 35 34 35 32 33 30 30 32 30 28 30 32 32 31 30 28 27
17 19 20 19 19 20 22 25 27 28 29 28 28 29 30 31 32 32 32 33 34 34 34 33 32 32 34 33 33 33 33 33 34 33 28 28 23 25 20 23 32 32 30 29 28
16 21 20 19 21 22 23 25 27 29 28 28 28 28 29 31 31 31 32 33 34 34 33 33 32 31 32 35 35 34 33 33 31 31 32 31 29 30 27 33 33 31 30 29 29
16 22 20 20 22 24 25 26 27 28 27 27 27 29 29 29 28 30 31 32 33 33 31 33 31 30 30 33 34 33 34 34 33 32 30 27 30 31 29 28 29 31 29 29 28
16 22 21 20 21 23 25 26 26 25 26 27 27 28 28 28 29 28 30 32 31 32 30 30 31 30 30 31 33 32 33 33 33 31 32 30 26 24 25 22 22 30 28 27 27
17 22 22 22 23 24 25 25 25 25 26 26 26 27 27 26 27 28 29 30 32 31 31 31 29 30 31 32 33 33 32 33 32 32 31 29 25 24 22 21 22 28 27 27 26
18 20 19 22 22 24 21 23 24 25 26 25 25 26 27 26 26 27 29 29 29 31 30 31 28 29 29 31 32 32 31 23 31 33 33 32 24 21 24 27 28 27 27 26 26
17 18 18 21 23 23 23 23 24 25 25 25 26 26 26 27 27 28 28 28 29 28 28 29 29 28 27 30 31 30 32 33 33 33 33 31 27 23 22 23 25 27 27 26 26

GFSSW_850_temp_051.txt.gz
Temp
19 20 20 21 21 21 22 22 23 23 24 24 25 25 26 26 27 28 28 29 29 29 30 29 30 30 30 30 31 32 25 26 28 26 29 30 29 31 31 31 31 30 27 26 25
20 20 20 21 21 22 22 22 23 23 24 24 25 25 25 26 27 27 29 29 29 29 30 30 30 31 31 32 32 31 28 29 30 31 30 29 29 30 30 30 29 27 27 25 25
19 20 20 21 21 22 22 23 23 24 24 24 25 25 26 26 27 29 29 29 29 29 30 30 30 31 31 32 33 32 30 31 33 34 31 28 29 31 29 28 30 27 26 25 25
19 20 20 21 22 22 23 23 23 24 24 25 25 26 26 27 27 29 29 29 29 30 29 30 30 31 30 29 33 31 32 35 35 35 30 28 28 28 29 28 31 29 26 25 25
19 20 20 21 22 22 23 23 24 24 24 25 25 26 26 26 28 29 29 29 29 29 29 30 30 31 29 32 33 32 32 33 35 36 33 30 28 29 27 31 29 28 27 26 26
19 20 20 21 22 22 23 23 24 24 25 25 26 26 26 26 29 29 29 29 29 29 30 30 31 32 32 33 31 34 35 35 34 34 36 33 32 31 28 34 31 28 28 27 26
19 19 20 21 22 22 23 23 24 25 25 25 25 26 26 28 30 29 29 29 30 30 30 31 32 32 32 30 33 34 32 30 33 32 33 34 32 30 30 32 33 30 28 28 27
18 19 20 21 21 22 23 24 24 25 25 25 25 25 26 29 30 30 29 29 30 30 31 31 31 31 31 32 32 31 29 28 30 33 33 32 29 27 31 33 32 31 29 29 26
18 19 20 21 21 22 23 24 25 25 25 25 25 24 25 29 29 30 30 30 31 31 31 31 31 31 31 28 27 29 26 28 30 32 31 31 29 28 31 32 31 30 29 26 24
18 19 20 20 21 22 24 25 26 26 25 25 25 24 28 29 30 30 30 30 31 31 31 31 31 27 26 26 25 29 28 29 29 31 31 30 31 30 31 30 29 30 29 26 25
17 18 19 20 21 22 24 25 26 25 24 25 27 28 29 30 30 30 30 31 31 31 27 31 27 25 26 28 30 31 29 28 29 32 31 29 31 30 32 30 30 28 30 25 26
17 18 19 20 21 22 23 23 23 23 24 25 26 28 29 30 30 30 30 30 30 27 29 27 26 29 31 31 31 31 29 28 30 33 31 28 31 32 31 33 32 29 25 24 22
16 17 18 20 21 22 22 23 23 24 24 26 28 28 29 30 30 30 31 31 30 28 28 27 29 33 33 31 31 31 29 28 29 31 32 30 30 30 31 25 28 30 27 25 26
16 17 18 20 21 21 23 23 24 24 20 26 28 29 30 31 30 31 31 31 30 28 29 29 31 32 32 32 32 29 31 33 32 30 28 32 26 28 22 22 23 29 23 22 22
15 16 17 18 20 21 21 23 23 24 20 30 30 31 31 31 31 31 31 31 29 29 30 28 30 30 31 32 32 29 31 31 32 29 30 29 26 24 20 19 21 27 24 24 24
15 16 17 17 19 21 21 22 23 21 21 29 31 31 29 31 31 31 31 31 32 30 30 29 33 32 31 32 32 32 32 29 30 27 24 27 26 25 22 18 22 26 26 26 25
15 16 17 17 19 20 20 21 19 20 28 29 29 29 28 29 29 30 30 28 26 27 26 28 30 31 33 31 30 31 28 23 24 23 24 25 25 25 28 23 25 25 27 26 26
16 16 17 18 19 19 20 19 19 25 26 29 30 30 29 29 29 30 29 27 28 27 26 25 25 30 32 29 28 28 27 22 25 25 25 27 27 27 30 28 28 28 27 26 25
16 17 18 20 19 19 19 17 20 24 28 29 29 28 29 30 30 29 28 28 29 27 26 26 27 32 32 32 30 28 27 27 26 27 25 25 29 28 23 19 25 26 27 26 24
16 17 19 19 19 19 17 18 22 26 28 28 27 28 28 28 29 29 27 29 30 30 29 27 25 29 32 32 31 29 29 27 23 26 26 26 26 24 22 18 18 24 22 26 25
16 16 20 19 19 19 17 20 23 25 26 26 26 26 26 26 27 27 29 30 31 31 30 27 25 28 29 30 29 28 27 28 25 24 23 23 23 23 19 18 18 19 19 26 26
14 17 20 20 19 20 18 21 24 25 27 28 27 26 25 26 25 26 27 30 33 32 29 29 24 24 27 29 31 29 29 26 22 24 24 21 23 26 19 20 18 16 16 17 26
14 18 20 20 17 18 21 23 24 25 26 27 27 26 26 25 24 26 27 30 32 27 26 28 24 24 24 26 26 28 29 29 25 23 24 22 21 22 21 18 16 14 17 23 26
13 17 20 20 20 20 19 21 23 26 26 26 24 25 25 24 24 24 26 29 30 30 30 29 25 24 23 25 27 27 29 29 26 23 24 23 22 22 19 18 18 21 25 26 26
14 18 19 18 19 20 20 21 23 24 26 26 24 24 23 24 23 24 25 26 28 28 30 26 25 26 25 27 29 28 29 28 28 25 25 23 22 20 18 20 22 26 26 26 26
14 17 18 18 22 22 20 21 23 24 25 24 23 24 24 23 22 22 23 23 26 24 24 24 23 27 25 27 28 28 29 29 27 29 27 25 24 20 21 22 24 25 25 26 26
14 16 17 19 19 21 20 23 23 24 24 25 24 24 23 24 24 24 25 26 26 25 23 23 23 23 22 25 26 24 27 28 25 24 25 24 23 20 21 23 24 26 26 26 25

GFSSW_850_temp_054.txt.gz
Temp
20 20 20 21 21 22 22 23 23 24 24 24 25 25 26 26 27 27 29 30 29 29 29 29 30 29 27 27 28 29 23 23 24 25 27 31 28 30 30 27 27 26 26 26 24
20 20 20 21 21 22 22 23 23 23 24 24 25 25 26 26 27 28 30 30 29 29 29 29 30 29 28 29 30 27 22 25 27 27 28 31 29 30 30 28 26 26 26 24 24
19 20 20 21 21 22 22 23 23 23 24 24 25 25 26 26 27 29 29 29 29 29 29 29 30 29 29 31 31 30 27 30 30 31 31 30 29 29 28 27 27 24 24 24 24
19 20 20 21 21 22 23 23 23 24 24 25 25 25 26 27 26 29 29 29 29 29 29 30 30 29 28 28 31 30 31 32 33 32 31 29 29 28 30 29 27 26 25 24 24
19 20 20 21 22 22 23 23 24 24 24 25 25 25 25 26 28 29 29 29 29 29 29 29 30 29 28 29 30 30 31 32 33 33 31 29 28 29 29 28 26 25 25 24 24
19 20 20 21 22 22 23 24 24 24 24 25 25 25 25 24 29 29 29 29 29 29 29 29 30 31 30 29 29 31 31 32 32 30 29 28 28 28 29 27 26 25 25 24 24
19 19 20 21 22 22 23 24 24 24 25 25 25 25 25 28 29 28 29 29 29 30 29 30 30 30 31 28 31 31 28 29 31 31 29 30 27 27 30 28 26 25 25 25 24
18 19 20 20 22 22 23 24 25 25 25 25 25 25 26 29 29 29 29 29 29 29 29 30 31 31 31 31 29 28 26 27 29 31 31 31 27 27 31 28 27 26 25 26 24
18 19 19 20 21 22 23 24 25 25 25 25 24 24 26 29 29 30 29 29 30 30 30 31 31 31 31 26 23 23 26 27 29 30 31 30 28 28 32 27 27 25 25 24 20
17 18 19 20 20 22 23 24 25 25 25 25 24 24 28 29 29 30 30 29 30 30 30 30 30 25 22 22 23 25 26 26 27 29 31 28 27 28 31 29 27 25 25 22 20
17 18 19 20 20 21 24 24 25 24 24 25 25 26 28 29 29 30 30 30 30 30 27 29 25 24 24 24 26 26 27 27 28 30 31 28 27 28 28 29 27 23 21 20 20
16 17 19 20 20 21 22 22 23 22 23 24 26 26 28 28 26 29 30 30 29 26 27 24 23 26 27 27 27 27 27 26 27 29 29 28 28 26 27 27 29 23 20 20 19
16 17 18 19 21 21 22 22 23 23 22 23 27 28 29 28 28 29 30 30 28 26 26 24 26 29 29 28 28 28 26 26 28 29 29 28 26 26 25 27 27 26 24 23 23
16 16 17 20 20 21 22 22 23 23 16 21 25 28 29 29 28 30 30 30 27 26 26 25 28 28 28 28 27 29 27 29 28 26 24 27 24 23 20 22 22 21 22 22 21
15 16 17 18 20 20 21 22 23 23 19 26 26 30 30 29 30 30 31 30 27 27 27 25 28 27 29 29 31 28 30 30 30 28 27 27 22 23 19 22 23 22 21 21 22
15 16 17 17 19 20 21 22 23 17 18 25 29 27 27 28 29 30 30 30 31 27 27 26 30 30 29 31 31 31 30 25 22 22 23 25 24 22 20 21 21 23 22 21 23
15 15 16 17 19 19 20 21 16 16 23 26 28 27 25 26 27 28 28 27 25 26 24 26 27 27 30 30 28 28 22 21 23 21 23 24 23 24 23 21 23 23 23 22 22
15 16 17 18 19 18 19 16 17 20 21 25 26 25 27 26 26 27 26 25 25 25 23 24 24 28 30 29 27 27 22 20 25 22 24 24 26 25 22 22 23 22 21 20 23
16 17 18 19 18 18 18 13 15 19 24 24 24 26 25 26 27 26 24 24 25 24 24 21 23 28 29 29 28 27 25 23 22 22 22 22 23 23 22 21 19 19 24 25 24
16 17 19 18 19 18 14 13 16 22 23 22 23 24 23 24 24 26 25 25 27 26 26 24 24 26 29 31 28 27 26 26 19 25 24 22 25 21 19 19 19 18 19 21 22
15 16 19 18 18 18 13 13 19 23 24 23 22 24 24 24 24 24 25 26 27 27 24 23 23 28 29 27 26 27 26 23 21 20 21 21 21 21 18 19 17 18 22 23 24
15 13 19 18 17 15 14 17 21 21 23 22 23 23 25 23 23 25 25 26 28 26 25 23 21 23 26 28 29 26 26 22 21 23 19 20 18 19 17 17 20 22 26 27 27
14 15 19 19 14 14 16 19 21 21 21 22 23 23 24 24 24 24 25 27 27 26 27 25 20 21 23 23 26 27 27 24 20 18 20 20 17 18 18 17 20 24 26 26 27
13 12 18 19 19 17 17 17 19 23 22 23 23 23 21 21 22 23 23 26 27 25 27 24 19 21 21 23 25 27 27 25 22 21 21 20 16 16 17 17 17 21 24 25 25
13 13 17 14 16 15 16 17 19 20 23 24 23 23 22 22 20 22 22 22 24 25 24 21 23 25 23 24 27 27 27 26 26 23 24 19 17 17 18 18 18 22 19 21 22
13 14 15 16 17 16 14 17 19 21 21 21 22 23 22 22 22 21 20 21 23 22 21 18 21 23 25 25 25 26 26 27 26 24 25 22 20 19 19 19 18 18 19 21 22
13 14 14 16 15 16 17 19 22 23 23 22 21 21 21 21 23 23 22 23 22 23 20 19 19 18 21 22 23 23 27 27 26 24 25 22 22 20 18 19 20 20 21 24 24

GFSSW_850_temp_057.txt.gz
Temp
19 20 20 21 21 21 22 22 23 23 24 24 25 25 26 27 27 27 29 29 29 29 28 28 28 26 24 24 25 26 22 23 25 25 26 28 29 28 28 26 25 25 25 24 22
19 20 20 21 21 21 22 22 23 23 23 24 25 25 26 27 27 28 29 29 29 29 28 29 28 27 26 26 26 25 21 23 25 26 26 28 29 29 27 25 24 25 24 22 22
19 20 20 21 21 22 22 23 23 23 24 24 25 25 26 27 27 28 29 29 29 29 29 28 28 28 27 28 28 25 25 25 28 29 29 28 29 30 27 24 24 23 22 21 22
19 20 20 21 21 22 22 23 23 23 24 24 25 25 26 27 26 28 29 29 29 29 28 29 29 28 27 27 29 28 29 29 30 31 28 28 30 28 28 29 27 27 24 21 22
19 19 20 21 21 22 22 23 23 23 24 24 25 25 26 26 28 29 29 29 29 28 29 29 28 28 27 28 28 28 29 31 31 30 30 30 27 27 28 28 27 25 23 22 22
18 19 20 20 21 22 23 23 24 24 24 24 24 25 24 24 29 29 28 29 29 29 29 29 29 29 28 28 28 30 29 29 31 29 29 28 26 29 27 26 25 24 23 23 23
18 19 19 20 21 22 23 23 24 24 24 24 24 24 24 28 29 28 28 29 29 29 29 29 29 28 29 28 29 30 27 27 29 29 27 29 27 26 27 25 25 23 24 22 23
18 18 19 20 21 22 23 23 24 25 25 24 24 24 25 28 28 29 28 29 29 29 29 30 29 28 29 30 28 28 25 25 28 28 29 29 26 26 26 25 24 23 24 21 21
18 18 19 20 21 22 23 23 24 25 25 25 24 24 25 28 29 29 29 29 29 29 29 30 29 29 29 25 23 22 25 26 26 29 29 27 28 27 27 25 24 24 23 21 20
17 18 19 19 20 22 23 23 25 25 24 24 23 23 27 28 28 28 29 29 29 29 29 29 29 23 20 21 23 25 26 25 25 28 28 27 29 24 26 25 25 24 22 22 20
17 17 18 19 20 21 23 23 24 24 24 24 24 25 27 28 28 29 28 29 29 29 26 26 23 24 24 23 25 26 25 24 26 27 28 27 26 26 24 26 25 25 21 22 22
16 17 18 19 20 21 22 22 19 18 19 24 26 25 27 26 26 29 29 29 28 26 26 23 23 24 25 25 24 24 24 24 25 27 29 27 26 24 24 25 25 23 22 22 22
15 16 18 19 20 20 21 20 21 21 20 23 25 27 28 28 27 29 29 29 27 26 25 23 25 26 26 26 26 24 24 25 25 26 27 27 25 24 23 23 26 23 23 21 23
15 16 17 19 20 20 21 21 21 22 16 20 23 27 28 28 27 29 29 29 26 25 24 24 25 26 26 25 25 24 25 26 27 26 25 25 23 23 20 21 21 22 21 20 20
14 15 16 17 19 19 20 21 22 23 19 24 25 28 28 28 30 29 29 29 25 26 25 24 27 27 27 27 27 26 27 26 28 25 25 25 23 22 20 23 21 20 19 18 18
14 14 16 16 18 19 20 21 22 17 18 23 26 26 25 27 28 29 29 29 29 26 25 24 27 27 26 28 28 28 26 22 19 20 22 25 23 22 22 20 20 19 17 17 18
14 14 15 16 18 18 19 21 16 16 21 24 25 25 24 25 26 27 26 25 23 24 23 25 25 27 29 28 27 24 20 20 23 20 22 22 23 21 19 20 19 17 15 16 20
15 15 16 18 18 18 19 16 17 18 19 22 23 23 26 26 26 26 25 24 24 23 20 22 23 26 28 28 28 27 22 19 24 21 22 22 24 18 20 20 18 20 23 26 25
15 16 17 19 18 18 18 14 15 17 21 22 22 23 22 23 24 25 23 23 23 22 23 20 22 25 27 27 27 26 24 22 18 19 20 21 20 20 19 19 18 19 23 22 23
15 16 18 18 18 17 13 13 15 17 21 21 22 22 22 22 23 23 23 25 25 23 24 23 24 25 27 28 27 26 23 23 18 23 24 21 23 19 18 19 19 19 21 23 22
15 15 17 17 17 18 12 12 16 21 22 21 21 21 22 23 23 23 24 26 25 25 22 21 22 25 28 26 26 24 24 20 18 18 20 21 20 18 19 19 18 19 23 25 24
14 12 17 16 16 12 12 14 20 20 21 20 20 19 20 22 24 24 24 25 25 24 24 21 19 21 23 24 25 26 25 21 19 22 17 18 20 18 18 17 18 21 26 24 24
12 14 16 17 13 12 14 17 19 19 19 20 21 22 23 22 23 22 24 26 25 23 24 22 19 21 22 22 24 26 25 20 16 16 18 20 20 17 18 17 19 20 24 24 23
11 11 16 16 16 15 17 16 17 21 20 21 20 22 21 22 20 23 22 24 24 24 22 22 16 20 20 22 23 25 26 23 20 19 19 19 21 18 17 16 18 20 21 21 22
12 12 14 12 15 14 15 16 17 18 21 21 20 20 21 21 21 21 20 20 23 23 22 19 21 22 22 23 25 26 26 24 24 22 23 22 19 19 19 18 18 21 22 22 22
12 12 14 14 15 14 12 16 17 18 19 21 21 21 20 20 20 21 20 20 22 21 20 16 20 20 24 24 24 26 26 26 25 22 23 19 19 18 20 19 18 19 22 22 23
11 12 12 14 13 14 14 16 17 18 21 21 21 19 19 20 21 22 22 22 21 22 20 18 17 17 21 20 23 22 25 26 25 23 19 19 20 18 17 17 18 20 20 21 22

GFSSW_850_temp_060.txt.gz
Temp
19 20 20 20 21 21 21 22 22 23 23 24 25 25 26 27 27 28 29 29 29 29 28 27 26 24 23 22 23 24 21 22 25 25 26 27 27 26 27 24 25 24 24 24 23
19 20 20 20 21 21 22 22 22 23 23 24 25 25 26 27 28 28 29 29 29 29 28 28 27 25 24 24 24 23 20 23 25 25 26 28 28 26 26 24 24 23 24 24 23
19 20 20 21 21 21 22 22 23 23 24 24 25 25 26 27 28 28 28 29 29 28 28 28 27 26 25 26 26 23 23 24 27 28 28 27 28 28 25 23 24 23 23 23 23
19 19 20 20 21 21 22 22 23 23 24 24 24 25 26 26 26 28 28 28 28 28 28 27 27 26 26 26 28 26 26 27 29 30 29 26 28 27 27 27 28 26 26 24 23
19 19 20 20 21 21 22 23 23 23 24 24 24 25 26 26 28 28 28 28 28 28 28 27 27 28 26 27 27 25 28 29 29 29 28 28 27 27 27 28 27 25 23 24 24
18 19 20 20 21 21 22 23 23 24 24 24 24 24 25 23 28 28 28 28 28 28 28 28 28 28 27 27 27 29 28 28 30 28 28 26 26 28 28 27 25 25 22 23 24
18 18 19 20 21 22 22 23 23 24 24 24 24 24 24 27 28 28 28 28 28 28 28 28 28 28 28 26 28 29 27 25 28 28 27 28 27 26 27 26 23 22 21 22 23
17 18 19 19 20 21 22 23 23 24 25 25 25 24 25 28 28 29 28 28 28 28 28 28 28 27 27 28 27 26 24 24 27 28 28 28 26 25 26 25 22 22 21 21 22
17 18 18 19 20 21 22 23 24 24 25 25 25 24 25 27 28 28 28 28 29 28 28 28 27 27 27 23 22 21 25 25 25 27 27 26 26 26 26 23 22 22 21 21 22
16 17 18 19 20 21 22 23 24 24 24 24 24 23 27 28 28 28 28 29 28 28 28 28 26 22 20 21 22 24 24 24 24 26 27 26 24 25 26 23 22 22 20 21 22
16 17 17 18 19 20 22 23 23 23 22 24 24 25 26 27 27 28 28 28 27 28 25 25 22 23 24 22 24 25 24 23 25 26 27 25 25 24 26 23 23 22 21 20 22
15 16 17 18 19 20 20 20 18 18 18 24 25 25 26 25 25 29 28 28 27 24 24 22 22 23 24 24 24 23 24 22 24 26 25 26 26 23 23 23 24 21 19 19 21
15 16 17 18 19 20 20 19 19 19 18 22 25 26 26 27 26 28 28 28 26 25 24 22 24 25 25 25 24 22 23 23 25 24 26 25 24 22 23 21 22 21 19 18 19
14 15 16 18 19 19 19 19 20 21 15 19 22 26 26 26 26 29 29 29 25 24 22 23 24 25 25 24 23 24 23 25 26 24 24 24 23 23 19 18 18 17 17 17 17
14 15 15 16 17 18 19 20 21 21 18 23 24 26 25 26 28 27 29 28 24 24 23 23 25 26 26 26 24 24 26 24 25 23 24 24 22 23 20 17 19 17 18 21 23
14 14 15 16 17 18 19 20 21 16 17 21 24 25 24 25 26 27 27 27 27 25 24 23 26 26 25 27 25 26 25 20 18 18 21 23 22 22 20 19 17 16 19 25 29
14 14 15 16 17 17 18 20 15 15 19 22 23 22 23 24 25 26 25 24 23 22 22 24 24 25 27 27 25 23 20 20 22 20 21 21 21 21 18 18 17 16 19 28 26
14 15 16 17 17 17 18 15 16 17 17 19 22 20 23 23 24 25 23 23 23 21 18 21 22 24 26 25 25 26 21 19 23 20 21 20 22 22 19 19 18 19 24 24 25
15 16 17 18 18 17 17 13 14 16 19 20 21 20 20 22 23 24 22 22 22 21 22 19 22 23 25 26 26 24 22 21 17 17 19 19 19 19 18 17 16 16 19 23 22
15 16 17 17 17 17 13 12 15 16 19 19 21 21 21 21 22 22 23 24 24 21 23 23 22 24 26 26 24 25 22 22 17 22 23 19 21 20 18 17 17 17 19 20 22
14 15 15 16 16 16 11 11 15 18 20 20 20 20 20 21 22 22 23 24 24 24 21 19 21 23 27 25 24 22 22 17 16 17 19 20 19 18 19 18 18 18 21 21 22
13 11 15 15 14 9 11 13 18 19 20 20 20 19 20 21 22 23 23 24 24 23 22 20 18 20 23 24 23 24 24 19 19 21 16 17 20 20 18 18 19 20 21 22 22
11 13 14 14 11 10 12 15 17 18 19 19 18 19 19 20 21 22 23 24 24 22 23 21 18 20 21 21 23 24 21 17 15 15 17 19 20 18 16 17 20 21 21 20 22
11 10 13 14 14 14 16 16 16 19 18 19 19 20 21 20 20 21 21 22 23 22 20 20 15 19 19 21 22 24 24 20 19 19 17 18 22 22 18 17 18 22 22 20 21
11 10 12 13 13 13 15 15 16 17 18 19 18 18 19 19 20 21 20 20 22 22 20 18 20 20 21 20 23 25 24 23 23 21 23 23 20 21 19 18 19 20 20 20 21
10 10 12 12 13 13 12 14 16 17 17 19 18 19 17 18 18 19 20 20 21 20 20 15 19 19 22 20 21 25 24 23 23 20 22 21 20 18 21 21 20 22 21 19 21
10 10 10 12 11 12 13 15 16 17 19 20 20 17 18 19 21 21 22 21 21 21 18 17 17 17 21 19 22 21 23 24 24 22 20 21 22 20 20 17 19 21 22 23 23

GFSSW_850_temp_063.txt.gz
Temp
19 20 20 20 21 21 22 22 23 23 24 24 25 25 26 26 27 28 28 29 29 28 28 26 25 23 22 22 22 23 27 29 30 29 30 28 28 26 25 25 25 24 24 24 23
19 19 20 20 21 21 22 22 23 23 24 24 24 25 26 27 27 28 28 29 29 29 28 27 26 24 22 23 23 25 27 29 30 31 31 30 29 28 27 26 25 23 24 24 24
19 19 20 20 21 21 22 22 23 23 23 24 25 25 26 26 27 27 27 28 28 28 27 27 26 25 24 24 25 25 29 30 30 30 30 30 29 28 28 26 26 25 24 24 24
18 19 19 20 21 21 22 22 22 23 23 24 25 26 26 26 27 27 28 27 27 27 27 26 26 25 27 28 27 27 28 28 29 30 29 28 29 29 28 30 28 27 27 25 24
18 19 19 20 20 21 22 22 23 23 24 24 25 25 26 26 27 27 28 27 27 26 27 27 26 27 29 28 28 28 29 29 29 28 28 27 29 30 28 27 28 27 26 26 25
18 19 19 20 20 21 22 22 23 23 24 24 25 25 25 24 27 28 27 27 27 27 27 27 28 28 27 28 28 29 29 29 29 28 27 28 28 28 27 25 26 26 24 25 24
17 18 19 19 20 21 22 22 23 24 24 24 25 25 25 27 27 27 27 27 27 27 28 28 28 27 27 28 27 28 30 32 31 29 29 28 29 29 26 24 23 22 22 22 24
17 18 18 19 20 21 22 22 23 24 24 25 25 25 25 27 27 28 27 28 27 27 27 27 27 26 26 27 28 29 29 31 31 29 27 29 31 32 25 24 23 22 22 21 24
17 17 18 19 19 20 21 22 23 24 24 25 24 24 25 27 27 28 28 28 28 28 27 27 26 26 26 28 29 28 30 29 29 29 29 30 31 32 25 25 24 22 21 21 23
16 17 17 18 19 20 21 22 23 24 24 24 23 23 26 27 27 27 27 28 28 27 27 26 25 27 27 29 28 28 28 29 28 29 30 30 30 32 28 25 24 23 21 20 22
15 16 17 18 18 19 21 22 22 22 22 24 23 24 26 26 27 28 27 28 27 27 28 25 28 28 29 27 27 27 27 27 29 29 28 29 29 30 25 25 24 23 21 20 20
15 16 16 17 18 19 19 20 18 18 18 24 24 24 25 25 24 27 27 27 27 28 25 27 27 28 26 26 27 27 27 28 29 28 29 29 30 25 24 24 25 23 21 21 19
14 15 16 17 18 19 19 19 19 19 18 22 24 25 25 26 25 27 27 28 28 27 27 28 28 26 27 27 27 28 27 29 29 28 28 28 29 25 23 22 23 23 21 21 20
14 14 15 17 18 18 18 18 19 19 21 24 23 25 24 25 26 28 28 28 27 28 26 27 27 27 27 27 28 28 28 28 27 28 30 27 30 26 23 21 21 20 20 20 20
13 14 15 15 16 17 17 18 19 19 21 25 24 24 24 25 26 27 27 27 28 27 27 28 26 26 27 28 27 29 27 27 27 28 28 28 30 29 23 24 20 19 20 20 21
13 13 15 15 16 17 18 18 18 21 20 24 24 25 25 24 26 26 26 26 27 27 26 28 25 28 29 28 27 27 27 25 25 27 29 27 28 30 29 27 23 21 20 20 21
13 14 14 15 16 17 17 18 20 20 22 24 24 24 24 25 26 27 26 26 27 26 26 27 27 27 27 28 27 27 28 28 28 28 29 24 27 29 27 24 24 22 21 20 19
14 14 15 16 16 17 17 19 18 20 21 22 23 24 24 24 25 26 25 26 25 26 26 26 27 27 28 29 29 28 29 28 27 27 28 24 28 31 25 22 21 22 20 20 20
14 15 16 16 17 16 16 18 20 19 21 21 23 24 24 24 24 24 26 27 27 26 27 26 26 26 26 28 29 26 27 27 25 22 26 27 27 28 25 23 21 21 20 20 20
14 15 15 15 16 16 17 18 19 18 20 21 22 22 23 24 25 25 25 25 26 25 25 26 26 27 28 27 25 28 26 27 26 25 26 26 26 29 27 26 22 21 20 20 20
13 13 14 15 14 15 18 17 18 18 19 21 21 22 22 22 23 24 25 25 25 24 24 25 27 27 27 28 29 26 27 24 26 25 28 27 28 28 27 26 24 23 22 21 21
12 14 13 13 15 11 16 16 17 20 19 21 21 21 22 22 23 24 25 25 23 24 25 24 26 27 28 26 26 27 28 27 28 25 24 26 29 27 26 25 23 25 23 21 21
10 11 13 13 16 16 15 17 18 20 20 20 20 21 21 22 22 23 24 24 23 24 24 23 24 27 27 26 25 27 26 25 23 24 24 27 29 23 23 23 23 23 22 20 22
9 13 12 13 13 15 17 17 18 18 19 19 21 21 21 22 21 23 24 24 22 22 20 22 21 25 27 27 26 26 25 24 26 27 26 28 28 29 27 24 23 22 22 20 22
9 12 10 15 15 15 16 17 17 17 19 18 19 20 21 21 22 22 22 24 24 21 21 23 24 23 24 24 25 26 27 25 25 26 29 28 27 28 25 23 23 22 21 19 20
8 9 10 12 12 14 13 16 17 18 18 20 19 21 20 21 23 23 23 22 24 24 23 21 24 22 25 24 25 26 26 26 25 24 25 25 26 23 23 22 23 21 21 20 20
8 8 8 12 13 15 16 17 17 17 19 19 20 20 19 22 21 21 20 20 21 22 22 22 23 23 25 23 25 26 25 26 25 23 23 27 22 21 21 21 20 20 20 21 21

GFSSW_850_temp_066.txt.gz
Temp
20 20 20 21 21 22 22 23 23 24 24 24 25 25 26 26 27 28 27 28 29 28 27 26 22 22 22 25 25 27 33 33 33 33 33 33 33 31 30 29 28 27 28 27 23
19 20 20 21 21 22 22 22 23 24 24 24 25 25 25 26 27 28 27 28 29 28 27 25 24 24 27 28 29 30 33 33 34 34 34 34 32 32 30 30 29 27 25 25 23
19 19 20 21 21 21 22 22 23 23 24 24 24 25 26 26 27 28 27 27 28 27 25 26 26 26 29 30 31 32 33 34 34 33 33 34 33 32 32 31 31 29 26 24 24
19 19 20 20 21 21 22 22 23 23 24 24 24 25 26 27 30 28 28 27 26 25 24 26 26 29 31 32 31 31 33 34 34 33 33 34 33 33 32 33 31 30 27 25 25
18 19 20 20 21 21 22 22 23 23 24 24 25 25 25 27 28 27 28 27 26 25 25 27 28 30 32 32 32 32 33 33 34 34 32 32 33 33 32 32 30 29 27 26 26
18 18 19 20 21 21 22 22 23 23 24 24 25 25 24 28 27 27 27 27 27 25 27 27 29 30 31 31 32 32 33 33 34 34 32 33 34 32 31 30 29 28 27 27 26
17 18 18 19 20 21 22 22 23 24 24 25 25 25 24 27 27 27 27 27 25 26 27 28 28 29 31 32 31 32 33 35 35 34 35 32 34 34 31 29 29 28 27 27 26
17 17 18 19 19 20 21 22 23 24 24 25 25 25 26 27 27 27 25 25 26 26 26 27 27 29 29 31 31 32 34 33 34 34 34 34 34 35 31 30 29 28 27 26 25
16 17 17 18 19 20 21 22 23 24 24 25 24 24 28 26 26 27 26 27 26 26 26 26 27 29 30 31 32 33 32 33 34 33 34 34 33 35 31 30 29 28 27 26 25
16 16 17 18 18 20 21 22 23 23 24 24 24 24 26 28 27 26 26 26 28 28 27 27 29 31 32 32 31 32 33 33 32 34 33 34 34 34 32 31 30 28 26 26 26
15 16 17 17 18 19 21 22 23 23 21 26 27 27 27 26 27 27 27 26 28 29 30 30 31 31 32 32 32 31 31 31 33 34 32 33 34 33 31 31 30 28 27 26 26
15 15 16 17 18 19 19 20 19 18 21 24 24 24 25 25 26 27 27 28 29 30 31 30 30 32 31 31 31 31 31 31 33 33 32 34 33 31 30 30 30 29 27 27 26
14 15 16 17 18 18 18 17 19 18 21 26 25 26 27 25 27 29 28 29 30 31 31 30 32 31 30 31 30 31 31 31 32 33 33 33 33 32 31 28 28 29 29 27 26
14 14 15 16 17 17 17 18 19 19 25 28 27 27 25 26 28 29 29 29 31 31 31 31 32 31 30 30 31 31 33 31 31 31 32 33 32 32 32 31 29 29 28 27 26
13 14 15 15 16 16 16 17 18 18 23 29 29 25 26 27 29 29 29 29 30 31 31 31 30 30 30 31 31 31 32 31 31 32 33 33 32 33 31 32 31 28 27 26 26
13 14 15 15 16 16 17 18 17 23 23 27 28 28 28 27 29 28 27 28 30 31 31 31 31 31 31 32 31 32 31 31 31 32 31 32 32 33 34 33 33 28 26 26 25
14 14 14 15 15 16 16 17 22 23 26 27 28 29 29 29 29 30 29 29 29 28 29 30 30 31 31 30 32 31 31 30 30 31 31 31 31 32 34 33 30 30 27 25 24
14 14 15 16 16 16 16 21 21 25 26 26 26 27 28 29 29 30 30 30 30 31 31 30 29 31 31 31 31 31 31 31 29 30 31 31 30 32 33 32 28 27 26 24 24
13 15 15 16 16 16 17 21 22 24 25 25 27 26 28 28 28 28 29 30 31 31 29 30 30 31 31 32 32 31 30 33 31 31 31 32 32 33 34 33 30 28 26 25 25
13 14 13 15 15 15 19 20 24 23 24 25 25 26 27 28 28 28 29 30 30 31 31 31 29 31 31 31 30 31 32 30 31 28 28 31 30 31 32 33 31 28 27 25 25
13 14 14 15 14 16 20 22 23 23 22 24 25 25 26 26 27 28 29 28 29 29 31 31 30 31 31 30 31 30 30 31 32 31 30 30 31 33 33 33 31 30 28 27 25
11 17 13 14 17 19 21 22 20 23 23 23 24 24 24 25 26 27 28 29 26 29 29 31 30 29 30 32 31 32 31 31 30 29 31 30 31 34 34 33 30 31 28 27 26
12 14 12 14 19 20 21 20 21 22 23 23 24 24 25 25 24 26 27 27 26 28 28 28 29 28 29 31 30 30 31 31 31 30 30 30 31 34 32 31 29 28 28 25 25
10 16 15 14 16 18 20 21 21 21 22 23 23 24 24 24 25 25 27 28 26 27 22 26 28 28 30 30 31 30 31 31 31 30 31 31 32 31 29 29 28 27 27 24 24
11 16 13 18 18 18 19 20 20 21 21 22 23 23 24 23 25 25 27 28 27 24 26 28 27 28 29 29 30 31 31 31 30 31 31 31 31 28 27 27 26 26 26 24 24
11 13 13 15 16 16 16 19 20 22 22 22 22 24 24 23 25 25 26 27 27 27 27 27 27 27 28 29 29 29 30 30 30 31 30 30 29 27 26 25 24 24 25 25 23
8 9 10 16 18 18 20 20 20 21 21 22 23 23 23 24 24 25 26 25 26 26 26 26 27 27 28 28 29 28 29 29 30 29 29 30 27 26 25 24 23 22 23 23 23

GFSSW_850_temp_069.txt.gz
Temp
20 20 21 21 21 22 22 22 23 23 23 24 25 25 26 27 27 28 28 29 28 28 28 26 25 26 27 29 31 31 33 35 35 35 36 36 36 34 33 32 31 30 31 29 25
20 20 20 21 21 22 22 22 23 23 24 24 24 25 26 27 27 27 28 28 29 28 27 26 28 28 30 32 33 34 35 35 37 37 36 36 36 35 34 34 31 30 29 27 26
19 20 20 21 21 22 22 22 23 23 23 24 25 25 26 27 27 30 28 28 28 28 27 28 29 29 32 34 34 35 35 36 36 36 36 36 36 35 35 35 33 31 29 27 26
19 20 20 21 21 22 22 22 23 23 24 24 24 25 26 26 31 29 28 28 28 27 27 28 29 31 33 35 35 34 35 35 36 36 36 36 36 36 35 35 34 32 29 28 27
19 19 20 20 21 22 22 22 23 23 24 24 25 25 25 27 30 29 28 28 27 26 27 29 31 32 33 34 35 35 36 35 36 36 35 35 36 36 35 34 33 32 29 28 28
18 18 19 20 21 21 22 22 23 24 24 24 25 25 24 29 27 29 28 28 25 26 28 29 31 32 32 33 34 34 34 35 35 36 36 36 36 35 34 33 32 31 30 29 29
17 18 18 19 20 21 22 22 23 24 24 24 25 25 25 28 28 26 27 27 26 28 29 30 30 31 32 34 34 34 34 36 36 36 36 35 36 33 34 33 32 31 30 30 29
17 17 18 19 20 21 21 22 23 24 24 24 25 25 27 28 28 26 26 26 27 28 29 30 30 30 31 32 33 34 35 34 37 36 36 36 35 36 34 33 32 32 31 30 29
17 17 18 18 19 20 21 22 23 24 24 24 25 24 28 28 27 28 28 28 28 29 29 29 29 31 32 33 33 34 33 34 36 37 36 36 35 37 35 34 33 32 31 30 29
16 17 17 18 19 19 21 22 23 24 24 24 24 25 28 29 30 29 28 29 30 29 29 29 30 32 33 33 32 33 34 35 35 36 36 35 35 37 35 35 34 32 31 30 29
15 16 17 17 18 19 21 22 24 23 22 27 29 29 30 29 28 28 29 29 30 30 31 31 32 32 33 35 34 34 34 34 35 36 35 35 35 36 35 35 35 32 31 30 30
15 16 16 17 18 19 19 22 20 19 22 26 27 28 29 29 29 30 30 30 30 31 32 32 32 33 34 34 33 33 33 33 34 35 35 35 35 36 36 35 35 33 32 30 30
15 15 16 17 18 18 18 20 18 19 23 26 28 28 29 29 29 30 30 30 32 32 33 32 34 34 34 32 32 33 32 33 33 34 35 34 34 35 36 34 33 33 33 31 30
14 15 16 17 17 17 20 18 19 19 24 29 30 29 29 30 30 30 31 31 32 32 33 33 34 34 33 32 33 32 34 34 33 33 32 35 32 35 36 35 34 34 33 32 30
14 14 15 15 16 18 18 18 18 20 23 31 31 30 30 30 31 32 31 31 32 33 33 32 33 33 32 33 34 32 34 33 33 33 33 34 34 35 35 35 35 35 33 32 30
13 14 15 14 14 16 17 18 19 23 23 29 31 30 31 30 31 32 32 31 32 32 33 33 34 34 33 34 34 34 33 33 33 33 32 33 34 35 35 35 36 34 32 31 30
14 14 14 15 17 16 16 18 23 23 28 28 30 31 31 31 32 32 31 31 31 30 30 32 33 34 33 32 34 33 32 31 31 32 32 35 34 34 36 36 35 35 32 30 29
14 15 16 16 15 15 17 22 21 25 27 30 29 31 30 32 32 32 32 31 32 32 32 31 30 33 34 33 32 32 32 32 30 32 33 34 32 34 36 35 34 32 32 29 28
14 14 15 15 14 14 18 21 23 25 28 28 29 28 29 31 31 32 31 31 32 33 30 31 31 34 34 34 33 32 32 34 32 33 33 34 35 35 36 35 35 32 30 29 28
14 14 17 15 14 15 20 20 24 27 27 27 26 28 28 30 30 30 31 32 32 33 34 32 30 34 34 33 34 33 34 32 32 29 30 33 33 33 34 34 35 33 31 29 28
14 17 16 15 14 17 21 23 24 25 25 25 26 27 28 29 30 30 31 32 33 33 34 33 32 32 33 32 32 32 32 32 34 33 31 31 32 35 34 35 34 33 31 29 28
13 19 15 15 18 21 22 24 24 25 25 26 26 26 27 28 28 29 30 31 31 32 31 32 32 30 32 34 34 34 33 32 31 30 32 32 32 36 35 35 33 34 31 30 29
14 17 16 15 20 23 24 24 24 24 25 25 25 26 27 26 26 28 29 30 29 30 31 32 31 30 30 32 34 32 33 33 33 32 31 31 31 34 34 34 31 32 31 29 29
13 20 19 17 19 21 22 23 23 23 24 24 25 26 26 26 27 26 28 30 29 30 26 28 30 30 30 31 33 31 32 33 32 31 31 32 33 32 31 31 31 30 29 28 27
14 19 18 20 20 22 22 22 22 23 24 24 24 25 25 25 26 26 28 29 29 27 28 30 28 30 31 31 31 32 32 32 32 32 31 31 27 22 29 29 29 29 29 27 27
14 16 17 18 19 20 19 20 21 23 24 24 24 25 26 25 25 26 28 28 28 30 29 30 28 29 29 32 31 31 32 32 33 33 32 33 25 29 28 28 27 27 27 27 26
13 13 14 18 21 21 21 20 21 22 23 23 25 25 25 26 26 27 28 28 29 28 28 28 28 28 28 30 31 30 31 32 32 33 33 30 28 30 28 26 25 25 26 26 26

GFSSW_850_temp_072.txt.gz
Temp
20 20 21 21 21 22 22 22 23 23 24 24 25 25 26 26 27 27 27 29 29 29 29 28 26 28 29 30 32 34 34 34 36 36 36 37 36 35 35 33 32 32 31 29 26
20 20 21 21 21 22 22 22 23 23 24 24 25 25 26 26 27 27 29 29 29 29 29 28 29 30 31 33 34 36 34 35 37 37 36 37 37 36 36 32 31 31 29 27 26
19 20 20 21 21 22 22 23 23 23 24 24 25 25 26 26 27 30 30 29 29 29 28 29 30 31 32 33 35 36 35 37 37 37 37 37 37 37 36 30 28 31 29 27 26
19 19 20 20 21 22 22 23 23 23 24 24 25 25 26 26 29 29 29 29 28 28 28 29 30 31 33 34 35 35 36 36 37 37 37 37 36 37 36 36 34 31 30 28 27
18 19 19 20 20 21 22 22 23 24 24 24 25 25 26 26 29 29 29 29 29 28 27 30 31 32 33 34 35 35 36 36 36 36 37 36 36 36 36 35 34 31 30 29 28
18 18 19 20 20 21 22 22 23 24 24 24 25 25 25 27 29 29 29 29 28 27 28 29 31 32 33 33 34 35 35 35 35 36 37 36 37 36 34 34 34 31 30 29 29
18 18 19 19 20 21 22 22 23 23 24 24 24 25 24 27 30 27 26 28 27 27 29 30 31 32 32 33 34 34 35 35 36 36 37 37 36 36 34 34 34 32 31 30 29
17 18 18 19 20 20 22 22 23 23 24 24 24 24 25 28 30 30 28 27 27 29 30 31 31 31 32 32 33 34 34 33 36 37 37 36 35 36 35 35 34 33 32 31 30
17 17 18 19 19 20 21 22 23 24 24 24 24 25 27 29 29 30 29 29 29 29 30 30 31 31 32 32 32 33 32 33 35 38 37 36 35 37 37 35 34 33 32 31 30
16 17 17 18 19 20 21 23 24 25 24 23 24 24 27 29 30 30 30 29 30 30 30 31 31 31 32 32 31 33 34 35 35 37 37 36 35 37 37 36 35 34 32 31 30
16 17 17 18 19 19 21 23 24 24 22 26 29 27 30 31 31 31 30 30 30 31 31 31 31 30 32 34 34 34 34 34 35 37 36 35 35 36 37 36 36 34 32 32 31
16 16 17 18 19 20 20 21 23 22 23 25 26 28 29 30 31 30 31 31 31 31 32 32 31 33 34 34 34 34 33 33 34 36 35 35 35 36 37 36 36 36 33 32 31
15 15 16 18 19 19 20 21 21 22 23 24 26 27 29 30 31 31 31 31 32 31 32 32 33 35 34 34 33 33 32 33 33 35 36 35 34 35 36 36 35 35 34 32 31
14 15 16 17 18 19 20 20 21 22 23 26 28 28 28 30 31 31 31 32 32 32 32 33 34 34 34 33 33 32 34 34 34 33 32 35 32 34 35 36 35 35 35 33 32
14 14 15 14 16 18 20 19 20 21 21 29 31 30 30 30 31 31 31 31 32 32 32 32 33 33 33 33 34 33 34 34 34 33 33 33 33 34 36 35 35 35 35 34 32
14 14 15 15 16 18 18 19 20 22 21 27 30 32 32 31 31 31 32 31 32 32 33 33 34 35 34 35 34 34 34 33 33 33 31 33 33 34 35 35 36 32 34 33 32
14 14 15 16 17 18 17 19 21 21 27 27 28 31 31 31 32 32 32 32 31 30 30 32 33 34 35 33 34 34 32 30 30 31 31 34 34 34 36 36 36 32 33 32 31
14 14 16 17 16 17 18 21 20 24 26 28 29 30 30 31 31 32 31 31 33 32 31 30 30 33 34 33 32 33 32 30 29 30 32 34 33 35 37 37 35 34 32 31 30
14 16 16 17 16 16 18 20 22 24 27 27 28 28 29 31 31 31 31 31 32 32 30 31 31 34 34 35 34 32 32 34 31 32 32 33 34 36 36 36 36 33 32 31 30
13 15 16 19 17 17 20 19 23 25 27 27 26 27 27 29 30 30 31 32 32 33 34 32 30 33 34 35 35 33 34 31 32 29 29 32 33 33 33 34 35 33 32 30 30
13 17 18 18 17 18 20 22 24 25 25 26 26 26 27 28 28 28 28 31 32 33 34 33 32 32 33 32 33 33 32 32 33 32 30 30 32 34 33 34 34 34 33 30 29
13 19 18 18 19 21 22 23 23 25 26 27 27 26 26 27 27 28 28 28 29 30 32 33 32 31 31 34 34 34 33 32 31 29 31 31 31 33 35 35 35 34 32 30 30
13 17 19 18 20 22 24 25 25 25 26 26 26 27 27 26 25 27 28 29 29 30 28 30 31 29 30 32 33 32 33 33 33 31 30 30 32 33 32 33 32 32 32 30 30
13 20 21 19 20 21 22 23 24 25 25 25 25 26 26 26 27 26 27 29 29 30 28 29 29 29 29 30 32 31 33 33 33 31 31 32 27 26 23 24 28 31 30 30 29
14 20 19 18 21 22 22 23 23 23 25 25 24 25 25 24 25 26 27 28 29 28 30 29 27 29 31 32 32 30 30 32 32 32 31 32 25 23 21 20 20 29 29 28 28
14 16 16 18 19 21 20 21 22 23 22 23 24 24 25 25 25 25 27 27 28 29 26 28 27 28 29 31 31 31 32 32 32 33 33 32 26 25 22 24 28 28 28 28 28
14 13 14 17 19 22 22 21 22 23 22 23 23 24 24 25 26 27 27 28 28 28 25 23 27 27 27 24 25 27 31 29 32 32 31 30 26 24 25 25 25 26 26 27 27

GFSSW_850_temp_075.txt.gz
Temp
20 20 21 21 22 22 23 23 23 23 24 24 24 25 26 26 27 27 28 29 29 29 29 29 30 29 28 29 30 30 27 27 31 33 33 33 32 31 31 32 32 31 28 26 25
20 20 21 21 21 22 22 23 23 23 24 24 25 25 26 26 28 29 30 29 29 29 29 29 30 29 30 31 32 31 29 31 33 34 35 35 36 32 29 28 28 28 27 26 25
19 20 20 21 21 22 22 22 23 24 24 24 25 25 26 26 27 29 30 29 29 29 29 29 28 29 30 32 32 32 31 33 34 36 36 35 35 32 27 26 28 27 26 26 25
19 20 20 20 21 21 22 22 23 23 24 24 25 25 25 26 26 29 29 29 29 29 28 29 28 30 29 29 32 31 33 35 35 35 35 35 36 34 33 31 30 28 27 26 25
18 19 19 20 21 21 22 22 23 23 24 24 24 25 25 25 27 29 28 29 29 29 28 28 28 30 28 31 32 31 32 34 35 35 35 36 35 35 34 32 30 28 27 26 26
18 18 19 19 20 21 22 23 23 23 24 24 24 24 24 24 29 29 29 29 29 29 28 27 28 30 31 31 30 33 32 33 34 34 35 34 35 35 34 32 30 28 27 27 26
17 18 19 19 20 21 21 22 23 23 24 24 24 23 23 27 29 28 28 29 28 28 27 28 29 30 31 29 32 32 30 31 32 34 33 35 34 32 34 32 30 29 28 28 27
17 17 18 19 20 21 21 22 23 23 24 24 24 23 23 28 29 29 27 28 28 27 28 29 30 31 31 31 31 29 28 27 32 33 34 35 30 33 34 34 30 30 29 29 28
17 17 18 18 19 20 21 22 24 24 24 23 24 23 23 28 29 30 30 29 28 28 28 29 30 31 31 27 25 27 26 27 30 33 34 33 32 34 35 34 32 31 30 29 28
16 17 17 18 19 19 21 22 24 24 23 23 23 22 25 29 29 29 30 29 29 29 29 30 30 26 25 25 23 25 27 28 30 33 33 32 31 33 35 33 32 31 31 30 28
16 16 17 18 18 19 20 22 23 24 22 23 24 24 27 28 29 30 30 30 29 29 27 30 25 24 25 27 29 29 29 29 30 32 31 30 32 33 34 34 32 31 30 29 27
15 16 17 18 19 19 19 20 21 21 21 22 23 24 25 26 27 29 31 30 29 27 28 27 26 28 30 30 30 30 29 29 30 32 32 30 31 32 32 32 35 30 30 29 26
14 14 16 18 19 19 19 21 21 21 21 22 23 24 25 27 27 29 30 30 28 27 28 26 28 31 31 30 30 29 29 30 29 30 30 30 28 30 32 34 35 31 32 30 27
14 14 15 17 19 19 20 20 20 20 17 22 24 26 25 26 27 28 29 30 29 28 28 28 30 31 31 31 31 27 31 31 31 29 26 30 24 27 28 30 30 33 31 30 27
13 14 14 14 16 18 19 19 19 20 16 26 27 29 28 26 28 28 29 30 28 29 28 28 29 30 30 31 31 29 31 30 30 27 28 29 25 25 27 28 28 29 31 30 28
13 14 14 15 16 18 18 18 19 18 18 25 27 27 27 28 28 29 30 30 31 29 29 29 32 31 31 33 32 33 31 29 28 26 23 26 26 28 28 28 29 31 32 29 26
14 14 14 15 18 17 17 18 17 17 24 24 25 26 27 27 28 29 28 28 27 25 26 28 29 31 32 30 31 31 27 23 22 22 23 26 26 28 30 30 29 30 31 29 26
14 14 16 17 17 17 17 16 16 21 23 25 26 26 25 27 29 29 28 27 29 28 25 26 26 29 31 30 28 29 26 21 23 23 25 28 26 29 31 32 31 33 32 30 26
14 16 17 19 17 16 17 15 18 21 24 24 24 24 25 27 27 28 27 27 29 29 27 26 27 31 31 32 31 27 27 27 25 25 24 26 28 31 31 31 29 29 30 30 26
13 15 18 18 17 17 16 16 19 21 22 23 22 23 23 25 26 25 25 28 26 30 29 28 25 28 31 32 32 29 28 26 22 24 23 25 27 25 30 28 28 27 28 30 27
13 14 18 18 17 17 15 18 21 22 23 23 23 23 24 24 24 24 25 27 27 27 27 26 27 27 30 29 28 29 29 27 24 23 23 23 24 29 31 28 27 26 28 29 28
12 14 18 18 18 19 17 20 22 23 24 24 24 24 24 24 23 24 24 26 27 27 26 26 25 26 28 30 31 30 29 28 22 23 23 23 24 23 29 29 28 27 29 29 29
10 13 19 19 16 18 20 22 23 24 24 24 24 24 24 22 21 23 24 27 28 27 26 24 23 22 26 27 30 29 30 27 24 22 24 22 23 25 23 23 23 25 27 29 29
10 15 18 19 19 18 18 19 21 24 24 24 23 23 22 21 22 21 24 27 27 27 28 26 22 24 22 24 27 29 28 27 25 22 26 25 24 22 21 22 21 20 22 20 29
11 16 16 16 17 17 19 20 21 21 23 22 20 22 22 20 20 21 23 24 26 27 26 22 22 23 24 27 29 27 27 28 27 26 26 26 21 20 21 21 19 18 18 17 23
11 14 13 14 17 17 18 19 21 22 22 20 20 21 22 20 21 20 22 21 22 24 24 22 21 20 23 27 24 27 27 28 27 26 27 26 22 22 22 24 23 18 20 21 23
11 12 12 14 16 17 19 19 20 21 22 22 22 21 20 22 23 23 25 25 24 23 23 20 19 18 22 22 24 24 22 25 22 20 21 19 19 21 21 22 22 22 22 22 23

GFSSW_850_temp_078.txt.gz
Temp
20 20 21 21 21 22 22 22 23 23 24 24 24 25 25 26 27 28 29 30 29 29 29 28 29 29 27 26 27 27 24 24 26 30 31 29 29 30 30 28 29 28 26 25 23
20 20 21 21 21 22 22 23 23 23 24 24 24 25 25 26 27 29 30 30 29 29 29 29 29 29 27 28 29 27 22 27 28 32 32 30 31 30 30 27 26 26 25 24 24
19 20 21 21 22 22 22 23 23 23 24 24 24 25 25 26 27 29 29 30 29 29 28 28 28 27 28 29 29 29 28 29 31 33 33 33 31 31 28 27 26 24 23 24 24
19 19 20 20 21 22 22 23 23 23 24 24 24 24 25 26 25 28 29 28 29 28 28 28 28 27 27 26 29 28 30 31 31 32 31 31 32 28 30 30 28 26 25 24 24
18 19 19 20 20 21 22 23 23 23 23 24 24 24 25 25 27 29 29 28 28 28 28 28 27 27 26 27 28 29 29 30 31 32 32 33 33 32 30 30 26 25 25 24 24
18 18 19 19 20 20 21 22 23 23 23 24 24 24 24 22 28 29 28 28 28 28 28 28 27 28 28 28 27 30 29 30 31 31 32 32 32 34 30 28 26 25 25 25 24
17 18 18 19 20 20 21 22 22 23 23 23 23 23 22 27 28 27 27 27 28 28 28 28 28 27 29 26 30 30 27 28 30 31 30 32 30 30 29 27 26 25 26 25 25
17 17 18 18 19 20 21 22 22 23 23 23 23 22 22 27 27 29 28 27 27 28 28 28 28 28 28 30 29 27 27 25 29 29 31 31 27 30 28 27 26 26 26 25 25
16 17 17 18 19 19 21 21 22 23 24 23 22 22 22 27 27 29 29 28 28 28 28 28 27 28 29 25 22 22 23 25 27 30 29 30 28 30 29 27 27 26 26 25 25
15 16 17 18 19 19 21 21 22 23 22 22 21 20 24 27 27 27 28 29 27 28 28 27 28 25 22 21 22 22 23 24 25 29 29 28 29 30 29 28 27 27 26 26 25
15 15 16 18 18 19 20 21 20 21 20 20 21 21 23 27 25 27 28 27 28 28 24 27 24 22 23 23 25 24 24 24 27 29 29 28 28 29 30 29 28 27 27 26 25
14 15 16 17 18 19 19 19 18 18 17 20 21 22 23 25 23 27 28 27 27 25 25 25 23 25 26 26 26 26 25 25 27 28 30 28 28 28 29 29 28 28 27 25 24
13 14 15 17 18 18 19 19 19 19 18 20 22 22 24 26 24 25 26 27 25 24 25 24 26 28 27 27 27 26 24 26 26 28 28 28 26 27 28 31 29 28 27 26 25
13 14 14 16 18 18 19 19 19 20 13 18 21 24 24 24 24 27 27 26 26 26 26 24 27 27 27 27 27 24 28 27 28 27 24 26 24 24 27 27 27 27 26 25 24
13 13 14 14 14 16 17 19 19 20 15 22 24 26 26 25 27 27 28 26 25 26 24 25 27 26 26 27 28 27 29 28 28 26 25 25 23 23 25 27 26 25 26 25 24
13 14 14 14 15 17 18 19 19 15 16 22 25 23 23 24 25 27 27 27 28 25 25 26 29 28 27 29 29 29 28 25 22 21 22 24 24 27 25 26 28 26 27 25 24
13 14 14 15 16 16 17 18 14 14 20 21 21 22 22 22 24 25 25 24 23 23 23 25 25 27 29 27 28 28 23 21 23 21 22 24 24 25 26 26 27 26 28 26 24
14 15 16 17 17 16 17 14 16 18 19 21 21 21 21 22 24 25 24 23 24 23 22 23 24 26 29 26 27 26 23 20 22 21 23 24 24 26 28 30 31 30 28 25 24
14 16 17 17 17 17 17 12 14 18 21 20 20 20 20 22 23 22 23 24 25 25 22 23 22 28 28 29 27 27 25 23 22 22 21 22 24 27 27 25 25 26 25 24 23
13 15 18 18 17 16 12 12 15 19 20 20 18 20 20 21 21 20 21 24 25 26 25 24 22 25 28 28 29 26 27 25 19 24 22 22 24 25 27 26 26 24 24 23 23
13 13 18 18 17 16 11 12 17 20 20 19 20 19 20 20 21 20 22 24 24 24 25 24 22 23 25 26 26 26 26 25 23 20 22 21 22 24 24 25 26 25 24 24 24
12 10 17 17 16 13 12 16 20 20 20 20 20 20 21 20 20 20 21 23 25 24 23 24 22 20 24 27 27 27 26 25 25 23 19 20 22 23 21 20 25 25 24 24 24
10 12 18 17 13 11 14 16 18 18 20 20 20 20 21 21 20 20 21 24 25 24 23 22 19 19 22 24 26 26 27 26 22 21 25 23 22 22 20 18 20 19 21 23 23
10 8 16 17 16 15 13 15 17 19 20 20 19 19 17 18 19 19 20 23 24 25 24 22 18 19 18 20 23 24 26 26 23 21 23 22 24 22 19 17 17 19 21 23 23
10 11 12 9 12 12 13 15 16 17 19 19 18 18 18 17 17 18 20 21 23 24 24 22 19 21 19 21 24 25 24 25 25 22 24 23 24 19 18 15 16 18 23 24 25
10 11 11 12 13 12 13 15 16 18 17 18 18 18 18 18 17 16 17 18 19 21 22 20 19 19 21 21 23 21 24 24 20 19 22 20 19 17 19 18 18 17 18 19 19
10 10 11 11 11 11 12 14 16 16 19 19 19 17 17 18 18 18 18 19 19 22 21 20 18 18 20 19 22 19 19 19 17 17 17 16 15 15 17 17 18 19 18 19 19

GFSSW_850_temp_081.txt.gz
Temp
19 20 20 20 21 21 22 22 22 23 23 24 24 25 25 26 27 27 28 29 29 29 28 27 27 26 24 23 24 26 23 22 25 26 28 28 28 29 29 26 26 25 25 26 22
20 20 20 21 21 21 22 22 22 23 23 24 24 24 25 25 27 29 29 29 29 28 28 28 28 27 26 25 26 24 20 24 26 28 29 29 28 29 27 26 25 25 24 24 22
19 20 20 20 21 21 21 22 22 23 23 23 24 24 25 25 26 29 29 29 29 28 28 27 27 27 26 27 28 26 25 28 29 30 30 30 29 29 26 25 25 23 23 23 22
18 19 19 20 21 21 21 22 22 22 23 23 24 24 25 25 25 28 29 29 28 28 28 27 27 27 25 26 28 27 28 28 29 30 28 29 30 29 28 29 28 28 27 23 22
18 18 19 19 20 20 21 22 22 22 22 22 23 24 24 24 26 28 28 28 28 28 28 27 26 26 25 26 27 27 28 29 30 31 31 31 29 29 28 29 27 24 25 24 24
17 18 18 19 19 20 21 21 22 22 22 22 23 23 23 21 27 28 27 27 27 27 27 27 27 27 26 26 26 28 28 28 30 31 30 30 30 30 28 27 25 23 23 24 25
16 17 17 18 19 20 20 21 21 22 22 23 23 22 22 26 27 27 28 27 27 26 26 27 27 26 26 25 28 28 27 26 28 29 28 31 29 29 29 25 23 23 23 24 25
16 16 17 17 18 19 21 21 21 22 22 23 23 22 22 27 26 28 28 27 27 27 27 27 26 26 26 27 26 26 25 25 27 27 29 29 26 29 28 24 24 23 23 23 24
15 16 16 17 18 19 21 21 21 22 22 23 23 21 22 25 26 26 26 26 26 27 27 26 25 26 27 24 22 20 23 24 24 28 28 29 26 28 28 25 24 24 24 23 24
15 15 16 17 17 18 20 21 21 21 21 21 20 20 24 25 24 25 25 25 26 27 27 25 26 22 20 21 21 22 24 23 24 26 26 25 26 26 26 25 25 24 24 24 24
14 14 15 16 17 19 19 20 20 20 21 19 20 20 21 26 23 25 26 25 25 26 23 25 22 21 22 22 24 24 23 22 24 26 27 26 25 26 26 26 25 25 24 24 24
13 14 15 16 17 18 19 18 15 14 14 20 21 21 22 22 21 26 24 25 24 22 23 23 21 23 24 24 23 23 23 22 23 26 24 24 25 26 25 26 26 25 25 24 24
12 13 14 16 17 18 18 17 17 17 16 20 21 21 23 22 20 24 24 25 24 22 22 23 24 25 25 24 24 23 22 24 23 25 25 25 24 26 26 27 27 26 26 25 24
12 13 14 15 16 17 18 18 18 19 13 17 21 23 24 23 22 26 26 25 23 23 22 23 24 25 24 24 24 21 25 25 25 23 23 26 22 23 25 24 24 27 26 25 24
12 13 13 13 14 16 17 18 19 19 16 22 22 24 23 23 25 26 27 25 23 23 22 22 24 24 24 25 25 24 26 25 25 23 23 24 21 22 24 25 24 23 26 25 24
13 13 13 14 16 16 17 19 19 15 16 19 21 20 20 22 23 25 26 25 25 23 23 23 26 25 26 27 25 26 26 23 20 18 20 22 22 23 24 25 26 23 25 25 23
13 14 14 16 16 17 18 18 14 14 18 19 19 19 18 20 21 22 22 23 21 21 21 23 23 25 26 25 26 26 21 22 20 19 21 21 21 23 24 25 25 25 25 25 24
15 15 17 18 18 17 17 14 16 17 17 19 19 18 20 20 21 21 20 20 22 22 19 20 22 24 25 24 24 22 19 18 21 21 23 21 21 24 25 26 27 26 27 27 23
15 17 17 18 17 17 17 12 14 15 19 18 17 18 18 20 20 19 20 21 22 24 21 19 21 24 25 26 25 24 22 22 22 20 19 20 22 24 26 25 23 24 26 25 23
14 17 17 17 17 17 12 12 14 16 18 18 17 18 18 19 18 18 20 22 22 23 22 23 22 23 25 26 26 25 25 24 20 22 21 20 23 22 25 25 23 23 24 24 23
14 16 17 17 16 16 11 11 14 18 18 18 17 17 17 18 19 19 20 21 22 22 22 21 20 21 24 24 23 24 23 23 22 19 19 19 20 21 23 22 21 22 23 23 23
13 11 15 16 14 9 11 13 18 18 19 17 18 17 18 19 19 20 20 21 23 22 22 21 17 19 21 23 24 24 24 22 21 21 16 18 19 23 19 18 20 22 23 22 22
11 13 16 16 11 10 12 14 17 17 17 18 19 19 19 19 18 19 20 22 23 22 21 21 17 17 19 20 23 24 23 25 21 19 21 20 22 21 17 17 19 20 23 23 22
11 9 15 15 14 13 12 13 15 18 18 18 18 18 17 17 17 17 17 21 21 22 22 19 15 18 18 20 21 21 23 23 23 19 20 21 21 17 17 15 15 16 19 20 18
10 9 10 8 10 10 11 13 14 14 18 17 17 17 17 16 15 15 17 16 20 21 21 19 19 16 17 18 22 22 22 23 20 20 21 18 16 16 14 14 15 15 16 18 19
10 9 11 10 10 10 10 12 13 14 15 16 17 16 17 17 16 15 16 15 17 19 18 16 18 19 20 20 22 21 20 20 19 20 19 18 17 16 15 15 15 16 17 16 17
9 9 9 9 8 10 10 11 12 12 15 17 16 15 16 17 17 17 17 17 17 18 17 17 17 16 18 20 19 20 18 17 16 16 17 17 16 15 15 15 14 14 15 16 16

GFSSW_850_temp_084.txt.gz
Temp
19 19 19 20 20 21 21 22 22 23 23 24 24 24 25 26 26 27 28 29 28 28 27 27 26 24 22 22 23 23 21 21 24 25 26 28 27 27 27 26 26 25 24 24 23
19 19 19 20 20 20 21 21 22 22 23 23 24 24 25 25 26 28 28 28 29 28 27 27 26 24 23 23 23 22 19 23 25 27 27 28 28 27 26 25 25 24 24 24 23
18 19 19 19 19 20 20 21 21 22 22 23 23 24 24 25 26 28 28 28 28 28 28 27 26 25 24 24 24 23 23 25 27 28 29 28 27 28 25 23 25 24 24 23 23
18 19 19 19 20 20 20 21 21 21 22 22 23 24 24 25 24 27 27 27 27 27 27 27 26 25 23 23 27 25 26 27 28 29 28 27 29 27 27 28 29 28 26 24 23
16 17 17 18 19 20 21 21 21 21 22 22 23 23 24 24 26 28 27 28 27 27 27 26 26 26 23 24 26 25 26 28 29 29 28 30 29 27 27 29 29 28 25 25 23
16 16 17 17 18 19 20 21 21 22 23 23 22 22 22 20 27 27 27 27 27 26 26 26 26 26 25 24 24 27 27 27 28 28 29 27 28 28 30 29 28 27 25 27 25
15 16 17 17 18 19 20 20 21 22 23 23 23 22 22 24 26 26 26 27 27 26 26 26 26 25 24 24 26 27 26 25 27 28 28 28 28 29 31 27 26 24 25 26 25
15 15 16 16 17 18 19 20 21 22 22 23 23 22 22 25 25 26 25 26 26 26 26 26 26 25 25 26 25 24 23 24 25 26 28 28 26 26 28 25 23 22 22 24 24
14 15 15 16 16 18 19 21 21 21 21 22 21 21 22 23 24 24 24 24 25 26 26 25 24 25 24 22 20 20 21 23 23 26 28 27 26 26 28 25 23 22 22 22 24
14 14 15 15 16 17 19 20 20 20 20 20 20 20 24 23 23 24 24 24 24 25 25 23 24 20 19 19 20 21 23 22 22 26 24 25 24 24 27 24 23 23 22 22 22
13 13 14 15 16 17 19 20 20 20 20 19 20 20 23 24 23 24 23 24 24 24 21 23 20 19 21 20 22 23 23 22 22 24 25 24 23 24 25 24 23 23 23 22 23
13 13 14 15 16 17 17 17 15 14 13 20 20 20 23 21 19 24 24 24 23 21 21 21 19 21 23 21 22 22 22 21 22 23 25 24 23 24 24 23 24 23 23 23 23
12 13 14 15 16 17 17 17 16 16 15 19 21 21 22 21 21 24 24 24 21 21 20 20 21 23 23 23 23 21 22 22 21 22 23 23 21 23 25 24 24 24 25 24 24
12 13 13 15 16 17 17 17 17 18 13 18 21 22 23 22 21 24 25 24 22 21 21 20 22 23 23 23 23 21 22 23 22 22 21 24 20 21 23 23 22 24 24 24 24
13 13 14 14 15 16 17 17 18 17 17 20 21 22 22 22 23 25 25 23 21 22 21 21 22 22 22 23 22 23 23 23 23 21 21 22 20 20 22 24 22 21 25 25 25
13 13 15 15 17 17 17 18 18 15 17 18 20 19 18 20 21 23 24 24 23 21 22 21 24 22 22 24 23 25 24 22 17 17 19 20 20 20 22 25 25 23 26 27 25
14 14 15 17 17 17 18 18 14 15 17 18 17 17 16 18 19 21 20 19 20 20 20 21 22 24 25 24 24 24 19 18 19 19 19 19 20 19 23 23 23 24 26 29 28
14 16 17 17 17 17 17 14 17 17 16 18 18 16 18 18 19 19 19 18 21 21 18 19 20 22 24 23 22 21 18 17 19 19 20 20 21 22 23 24 25 27 27 27 28
15 16 17 17 17 17 18 12 15 15 17 17 16 17 17 19 19 17 18 19 21 21 20 18 20 23 23 24 24 22 20 21 21 17 18 19 20 21 22 23 23 23 24 25 24
15 17 16 16 16 17 12 12 14 15 17 17 16 17 17 17 17 17 18 21 20 21 20 19 19 22 24 24 24 23 23 22 20 18 19 19 19 21 22 22 21 21 21 24 24
15 17 16 16 16 16 11 11 14 18 17 16 16 16 16 17 18 18 19 20 21 20 20 20 18 20 22 23 22 23 21 22 21 19 18 19 18 19 20 17 16 17 19 22 23
14 12 14 16 14 8 11 13 16 16 18 17 17 16 17 17 17 19 19 19 21 20 19 19 15 18 21 22 21 22 22 21 20 19 18 18 21 16 16 15 15 16 17 20 21
12 13 14 15 10 9 11 13 15 16 16 17 17 17 18 17 17 18 18 20 20 19 19 18 16 16 19 21 21 22 22 21 19 17 19 18 21 16 15 15 15 15 16 17 19
12 10 14 14 12 11 11 13 14 16 16 17 17 17 16 16 16 16 16 18 20 20 20 18 15 16 17 18 19 19 20 20 19 17 18 19 21 16 14 14 15 16 16 16 16
11 8 8 8 9 9 10 11 13 13 15 16 16 16 15 16 14 15 15 15 18 20 18 17 17 17 17 18 19 20 19 19 19 20 21 19 17 16 15 15 15 15 16 17 16
10 9 9 9 9 10 9 12 12 12 12 15 15 14 15 15 15 14 15 14 15 17 17 15 18 18 18 19 19 20 18 17 18 17 16 17 16 16 15 15 16 16 15 14 15
9 9 9 8 7 9 9 10 11 11 13 14 14 14 14 15 16 16 15 16 15 14 13 14 14 15 16 17 19 18 16 16 17 16 15 17 16 15 15 15 14 14 15 15 15

GFSSW_850_temp_087.txt.gz
Temp
19 19 19 20 20 21 21 21 22 22 23 24 24 24 25 26 26 27 27 27 28 27 26 26 24 23 22 21 21 22 26 28 29 29 30 31 30 27 27 26 25 25 24 24 24
18 18 19 19 20 20 21 21 22 22 22 23 24 24 24 25 27 27 27 27 27 27 26 26 23 22 21 22 23 25 26 28 29 30 30 30 29 29 28 27 25 23 24 24 24
17 18 18 19 19 20 20 21 21 22 22 23 23 24 24 24 26 26 27 27 27 26 25 25 25 23 23 23 24 25 28 29 29 30 29 30 30 29 29 28 28 26 23 23 24
17 17 17 18 18 19 19 20 21 22 22 23 23 23 23 24 27 27 27 28 27 27 25 24 24 24 25 26 26 26 27 28 29 29 29 30 30 30 29 31 28 27 27 25 24
16 17 17 18 18 19 19 20 21 22 23 23 23 23 23 23 25 27 27 27 27 27 26 26 25 25 26 26 26 27 29 28 29 27 28 29 30 31 29 30 28 27 26 26 24
16 16 17 17 18 19 20 20 21 22 23 23 23 23 22 22 25 26 26 26 25 25 25 25 26 26 26 26 26 27 27 28 28 29 28 30 31 29 31 29 26 26 26 25 25
15 15 16 17 17 18 19 20 20 21 22 23 23 22 21 24 25 25 25 25 25 25 26 25 25 25 24 26 25 27 27 29 30 30 30 29 29 30 31 30 25 23 23 24 25
14 15 15 16 17 18 20 20 21 21 21 21 22 22 22 24 24 24 24 24 24 25 25 24 24 24 24 25 26 27 26 28 30 28 30 29 30 31 29 27 26 23 22 22 23
14 15 15 16 16 18 19 20 21 20 20 21 21 21 22 23 24 23 23 24 24 25 25 23 24 24 24 26 26 25 27 26 28 28 28 29 28 30 28 28 27 24 23 22 22
13 14 15 15 16 17 19 20 20 20 20 20 21 20 23 23 23 23 24 24 24 24 23 22 23 25 25 26 27 28 26 26 26 28 29 29 28 30 29 28 28 26 24 23 23
13 14 15 15 16 17 19 20 20 20 20 20 19 20 23 22 23 23 23 23 24 23 25 23 25 25 26 27 28 26 25 25 27 27 26 28 27 29 29 28 28 26 24 24 23
13 14 15 16 17 17 17 17 15 15 16 20 21 21 22 21 21 23 24 22 23 25 23 24 25 25 26 26 25 25 26 26 26 26 27 28 28 29 29 29 28 27 25 24 23
13 14 15 16 17 16 17 16 16 16 16 20 21 21 22 20 21 23 23 23 24 23 24 25 26 26 25 26 25 26 26 26 26 27 26 26 28 28 30 28 28 27 26 25 25
13 13 15 16 16 16 16 16 17 17 19 22 22 22 22 21 22 24 24 23 24 25 25 25 26 25 25 25 26 26 27 26 26 26 26 26 26 28 29 29 28 29 27 26 25
13 13 15 15 16 16 16 17 17 16 22 22 22 22 22 22 23 25 24 22 24 25 24 26 24 24 25 26 27 26 27 27 27 26 25 27 26 28 28 29 29 31 28 28 27
13 14 16 16 17 17 17 17 17 20 20 20 20 20 21 21 22 22 23 23 22 23 23 24 24 25 27 26 26 26 26 24 23 25 25 27 26 28 29 30 31 30 29 29 28
14 15 17 17 16 17 17 18 20 20 19 20 20 20 19 21 23 23 22 24 23 22 23 24 25 26 25 26 25 26 26 25 25 25 26 24 25 27 30 30 29 30 28 27 27
15 16 16 17 17 17 18 19 19 18 19 20 19 20 20 21 22 21 23 23 23 23 22 23 24 25 26 26 26 26 26 25 23 24 26 24 26 28 28 27 27 26 25 25 25
15 16 16 16 16 17 17 19 18 18 19 19 20 20 20 21 20 21 22 22 23 23 21 22 23 25 24 27 27 24 25 28 25 23 24 26 26 28 29 29 25 23 23 23 23
16 16 16 16 16 17 18 16 17 17 18 18 18 19 19 20 21 21 21 23 22 23 21 22 22 25 25 25 26 27 27 25 25 23 23 25 25 26 27 25 23 23 21 22 23
15 16 16 16 16 17 17 16 16 17 17 18 18 19 19 19 19 20 21 23 22 22 22 22 21 24 25 25 26 25 26 25 25 24 24 24 25 26 24 21 20 21 19 21 22
14 16 15 16 17 11 16 15 15 18 17 18 18 18 19 19 19 20 20 21 22 21 21 21 22 22 23 25 24 24 25 25 25 23 25 25 26 19 20 20 19 18 17 18 20
13 14 15 16 17 16 14 16 15 17 18 18 19 19 19 19 19 19 20 21 20 20 21 21 21 22 23 24 24 23 23 23 22 22 25 25 25 19 19 19 17 19 17 17 17
12 15 14 14 12 14 14 15 16 16 16 16 18 18 18 19 18 19 19 20 20 20 19 19 20 21 22 22 22 22 22 21 22 22 25 25 26 19 18 17 18 18 16 16 16
11 10 9 14 13 12 12 13 15 16 16 16 18 18 17 17 18 18 19 19 20 20 20 19 20 20 22 21 21 21 23 21 21 21 21 23 25 18 16 16 17 16 16 16 16
10 10 9 9 8 12 11 14 14 15 14 17 17 17 17 17 18 18 18 18 18 20 19 19 19 20 21 23 22 22 21 21 20 19 21 20 17 17 15 15 16 16 17 16 16
9 9 9 8 10 12 13 13 14 12 14 14 15 15 17 17 16 16 16 16 17 17 17 17 19 19 20 22 21 21 19 18 16 16 16 18 19 16 15 15 14 14 14 14 14

GFSSW_850_temp_090.txt.gz
Temp
19 19 19 20 20 21 21 21 22 22 22 23 23 24 24 25 26 27 26 27 27 27 26 22 22 22 23 25 25 26 31 33 33 33 34 34 35 33 31 32 29 29 29 28 24
18 18 18 19 19 20 20 21 22 22 22 23 23 23 24 25 26 25 26 27 27 27 24 23 24 23 25 27 27 29 32 33 34 34 34 34 34 33 32 31 29 28 26 25 23
17 18 18 19 19 19 20 20 21 22 23 23 23 23 23 24 26 28 27 27 27 27 23 25 25 25 27 28 29 30 31 34 33 33 33 34 34 33 33 33 32 30 26 24 23
17 17 18 18 19 19 20 20 21 22 22 23 23 23 23 24 29 26 26 26 26 26 24 25 25 26 29 30 30 30 31 32 32 32 32 33 33 34 34 34 32 32 28 25 24
17 17 18 18 19 19 20 20 21 22 22 22 23 23 23 24 26 26 26 26 26 23 25 26 27 28 30 31 31 31 32 32 32 32 31 31 32 33 34 34 31 30 27 26 25
16 16 17 17 18 18 19 20 21 21 22 22 22 22 22 25 25 25 25 25 23 23 25 26 27 28 29 30 30 31 31 31 31 32 32 32 32 33 33 33 31 29 28 27 26
16 16 16 16 18 18 19 20 20 21 21 22 22 22 22 25 24 24 24 23 23 24 26 26 26 27 29 30 29 29 30 32 33 33 34 32 32 33 33 32 32 29 28 28 27
15 15 16 17 18 19 20 20 21 21 21 21 21 22 24 24 24 24 23 24 24 24 24 25 25 26 28 29 29 30 31 31 34 32 32 31 32 34 34 32 32 31 29 28 26
15 15 16 16 17 19 20 21 21 21 21 21 21 21 26 24 24 23 24 25 25 24 24 24 25 27 29 29 30 31 30 32 32 32 32 32 32 33 32 32 32 32 29 27 27
15 15 15 16 17 18 19 21 20 21 21 21 21 21 25 24 23 23 23 23 24 25 25 25 26 28 29 30 29 31 32 32 30 32 32 32 32 33 33 33 33 33 30 28 27
15 15 15 15 16 17 20 19 21 22 21 21 22 22 24 23 23 23 23 24 25 26 28 27 28 28 30 30 30 31 31 30 31 32 31 31 31 32 33 33 34 33 31 28 28
15 14 15 16 17 17 18 18 15 16 21 21 21 21 22 21 24 25 23 25 26 28 29 28 27 30 30 30 30 30 29 30 31 32 30 31 31 32 33 33 33 33 32 29 28
14 14 16 17 17 17 17 17 17 16 21 23 23 23 24 22 25 26 25 26 27 28 29 28 30 30 29 28 29 29 29 30 30 31 31 30 30 32 33 33 33 33 32 31 29
14 15 16 17 17 16 15 17 17 17 25 25 25 24 24 24 26 25 25 25 28 28 28 29 30 29 29 28 29 29 31 30 29 30 29 31 28 31 32 33 34 34 33 31 29
14 15 16 16 16 15 16 17 17 16 26 24 25 23 24 25 26 26 24 25 27 27 27 28 28 28 28 29 30 29 31 30 29 29 29 30 29 30 32 32 33 35 34 34 32
15 15 16 18 17 16 17 18 17 24 25 24 24 25 26 26 26 26 26 25 25 27 28 27 28 28 29 29 30 30 29 29 29 29 28 29 30 30 32 32 33 34 34 32 31
15 16 17 17 15 17 18 17 24 25 23 23 24 25 25 26 26 26 26 27 26 25 26 28 29 30 29 28 29 29 28 27 27 27 27 30 30 30 32 33 31 31 30 29 29
16 16 16 17 17 17 18 23 23 22 23 23 24 25 25 25 26 26 26 27 27 26 26 26 26 28 29 28 28 29 28 28 25 27 28 30 28 30 32 32 30 29 28 28 29
16 16 17 17 17 18 19 24 23 22 22 22 24 24 24 25 24 25 26 26 26 25 24 25 26 28 29 29 29 28 27 29 28 29 28 29 30 31 31 32 32 30 29 28 28
16 16 16 17 17 17 22 19 22 21 22 22 23 23 23 24 24 25 25 26 25 26 25 25 23 28 28 29 30 28 30 27 28 25 25 27 28 29 30 30 31 30 28 26 26
15 17 16 17 17 19 23 22 21 21 20 22 22 22 23 23 23 24 24 25 25 25 25 26 25 26 27 28 27 28 27 28 28 27 24 25 27 31 30 30 27 28 24 22 24
15 20 16 17 20 20 22 20 18 21 21 22 22 22 22 22 23 23 23 24 23 24 23 25 24 24 26 28 28 27 25 25 26 25 27 27 28 29 27 26 25 25 21 19 19
15 16 16 17 21 21 20 20 20 21 21 22 22 22 22 22 21 23 23 23 23 24 23 23 23 23 25 27 26 25 25 25 24 25 24 25 27 26 25 25 22 21 20 17 17
14 19 18 17 17 19 20 20 20 19 20 20 21 22 22 22 23 21 22 23 22 22 20 21 23 23 23 24 26 24 25 26 23 22 22 24 25 25 23 22 20 20 17 16 15
13 17 13 20 19 18 18 19 20 20 20 20 21 21 21 20 21 22 22 23 23 22 22 23 21 23 24 25 25 25 25 25 24 24 21 18 24 24 21 19 19 20 19 19 19
13 15 14 16 15 17 14 19 19 20 19 21 20 21 21 20 21 20 21 21 21 22 22 22 20 22 22 24 25 25 25 26 25 24 24 24 24 22 17 18 18 16 18 18 17
10 11 12 14 16 17 19 19 18 17 19 18 19 19 20 21 19 19 19 20 21 21 20 20 20 21 21 24 24 23 25 24 23 22 22 22 19 20 18 18 18 17 17 17 16

GFSSW_850_temp_093.txt.gz
Temp
19 19 19 20 20 20 20 20 21 21 22 23 23 24 24 25 26 26 25 27 27 28 27 24 25 26 27 28 29 30 32 34 35 35 36 36 37 36 34 35 32 32 32 29 26
18 18 19 19 19 20 20 21 21 21 22 22 23 23 23 24 25 26 27 26 26 27 26 26 27 27 29 30 31 32 33 34 37 36 36 36 36 36 36 35 33 32 29 28 26
18 18 19 19 19 19 20 20 21 21 22 22 22 23 23 24 25 28 27 27 27 26 26 27 28 28 30 31 32 33 33 35 35 35 35 35 36 36 36 36 36 33 30 27 26
17 18 19 19 19 20 20 21 21 21 22 22 22 23 23 24 29 28 27 27 27 26 26 27 28 29 31 33 33 33 34 34 35 34 34 35 35 35 35 36 36 34 31 28 27
17 18 19 19 20 20 21 21 21 21 21 22 22 23 23 24 27 27 27 26 26 24 27 28 29 30 32 33 34 34 34 34 34 34 34 34 34 35 35 35 35 34 31 29 28
17 18 18 19 20 20 21 21 21 21 21 22 22 23 23 27 26 25 24 26 24 25 27 28 29 30 31 32 33 33 33 33 34 34 34 35 35 35 35 35 35 33 32 30 29
17 18 18 19 20 20 21 21 21 21 21 21 22 22 24 27 26 25 24 24 26 26 28 29 29 30 30 32 32 32 33 34 35 35 36 35 35 35 35 35 35 33 32 31 30
17 17 18 18 20 21 21 21 21 22 21 21 22 22 26 26 25 25 25 26 26 27 27 28 28 29 29 30 32 32 33 32 35 36 35 34 33 36 36 36 36 34 33 32 30
17 18 18 19 19 20 21 21 22 22 21 22 22 22 29 25 26 26 26 27 27 27 27 27 27 29 30 31 31 32 32 33 34 37 35 34 33 35 35 35 35 34 34 32 31
17 17 18 18 19 20 21 22 22 22 22 23 22 24 27 27 26 26 26 26 27 28 27 27 28 30 31 31 30 32 33 34 34 36 35 34 34 35 35 35 35 35 34 34 31
16 17 18 17 18 19 21 21 23 23 25 25 26 26 27 26 26 27 26 26 27 27 29 30 30 30 31 33 33 33 32 32 33 35 34 33 33 34 35 35 35 35 35 35 32
16 17 18 17 18 19 19 21 18 18 24 25 25 25 26 25 28 28 26 28 28 29 31 31 30 32 32 32 32 32 31 32 33 34 34 33 33 34 35 35 35 35 35 34 33
15 16 18 17 18 18 19 18 17 18 23 27 26 27 27 26 28 29 28 29 30 30 31 31 32 33 32 32 31 31 31 31 32 33 34 33 32 33 34 35 34 35 35 35 33
15 16 18 18 18 18 19 17 17 18 26 28 28 27 27 28 29 27 28 28 30 30 30 31 32 31 31 31 32 30 32 32 32 31 31 33 31 33 34 34 35 35 35 35 33
16 17 17 18 18 19 17 17 17 18 28 28 29 26 27 28 29 29 27 28 29 30 30 30 30 30 30 31 32 31 32 32 32 31 31 31 31 32 34 33 34 35 35 35 34
17 17 18 18 17 17 17 17 18 25 27 28 28 29 29 29 29 28 29 28 29 29 31 30 31 31 31 31 31 31 31 31 31 31 30 30 31 31 33 34 34 35 35 34 33
17 17 18 18 18 17 17 19 26 28 27 28 28 29 29 29 29 29 29 30 29 27 29 30 31 32 31 30 31 31 30 28 28 29 29 31 31 32 34 34 35 34 33 32 32
17 17 17 18 18 17 18 25 25 27 27 27 27 29 28 28 29 29 29 29 30 28 28 28 28 30 31 30 29 29 30 29 26 28 29 31 30 32 34 34 33 32 32 31 32
17 17 17 18 18 17 21 26 28 26 26 26 28 28 28 28 27 28 29 29 28 28 25 26 27 29 30 31 31 30 29 31 29 30 29 30 30 32 33 33 33 33 32 31 29
17 18 20 18 17 19 24 24 26 25 25 26 26 26 27 27 27 28 28 28 27 28 27 27 26 28 29 30 31 29 30 29 29 26 26 28 28 29 30 30 32 33 32 29 27
17 21 19 19 18 21 25 26 25 24 24 25 26 26 26 26 26 27 27 28 27 26 27 27 27 27 28 29 29 29 29 25 26 27 24 27 28 30 30 26 28 29 29 27 25
17 23 19 19 22 25 26 25 21 25 24 25 25 25 25 26 25 26 26 27 26 26 25 26 25 24 26 29 29 29 20 18 26 18 19 22 26 22 23 30 29 28 25 22 21
18 20 20 19 24 26 25 24 23 25 25 25 25 25 26 24 23 25 26 26 25 25 24 24 24 24 25 28 25 25 23 19 26 26 24 22 20 23 18 17 25 23 21 19 19
17 23 22 21 22 23 24 24 24 23 23 24 24 25 24 24 25 24 25 26 25 25 22 23 24 24 24 25 26 25 25 27 27 26 23 22 22 21 14 14 24 22 21 21 20
18 21 19 23 23 22 22 23 23 24 23 23 23 24 24 23 23 24 25 25 25 24 24 25 23 24 24 25 26 27 27 27 27 26 19 23 18 22 14 14 20 21 20 19 18
17 18 19 20 20 20 17 22 22 24 23 23 23 24 24 22 23 23 23 23 23 24 24 24 22 23 23 25 26 26 27 27 28 28 27 26 25 25 21 21 21 19 20 20 17
15 15 16 19 21 21 23 23 22 22 22 22 23 23 22 23 21 21 22 22 23 23 23 23 23 22 22 25 25 25 27 26 27 27 26 24 22 21 22 21 16 15 15 16 16

GFSSW_850_temp_096.txt.gz
Temp
19 19 19 19 20 20 20 21 21 22 22 23 23 24 24 25 26 26 26 27 27 27 27 26 25 26 28 29 30 31 31 31 30 21 33 37 37 37 36 34 34 33 32 29 27
18 19 19 19 20 20 21 21 21 21 22 22 22 23 24 24 25 26 28 28 27 27 27 26 27 28 29 30 31 33 32 33 35 29 35 36 37 36 37 37 34 32 31 28 27
19 19 19 20 20 21 21 21 21 21 22 22 22 23 23 24 25 28 28 27 27 27 26 28 29 30 30 31 33 33 33 35 35 35 35 36 36 36 36 36 35 32 30 28 27
18 19 20 20 21 21 21 21 21 22 22 22 22 23 23 23 28 28 28 28 28 28 25 29 29 31 32 32 33 34 35 35 35 35 35 36 36 36 36 36 36 33 30 28 27
18 19 20 20 21 21 21 22 22 22 22 22 22 22 23 23 26 27 28 28 27 27 25 29 30 31 32 33 33 34 35 35 35 35 35 35 36 35 35 35 36 34 31 29 28
18 19 20 20 21 22 22 22 22 22 22 22 22 22 23 26 28 27 26 27 27 26 27 29 30 31 32 32 33 33 34 34 34 34 35 35 35 35 36 35 35 34 31 30 29
18 19 20 20 21 22 22 22 22 22 22 22 22 22 22 26 28 28 26 25 26 27 27 29 30 30 31 32 32 33 33 34 34 35 35 36 35 36 36 36 36 36 34 32 30
18 19 20 20 21 21 22 22 22 22 22 22 22 22 25 27 27 27 27 27 27 28 28 29 29 30 30 31 31 32 32 31 34 35 36 36 33 36 36 36 36 36 35 33 31
18 19 20 20 21 21 22 22 23 23 23 23 22 22 28 27 27 28 28 28 28 28 28 29 29 29 30 30 30 32 31 32 34 36 36 36 34 35 36 36 36 35 35 34 32
18 19 19 20 21 21 22 23 23 23 23 23 23 24 27 29 28 28 28 28 28 29 29 29 29 29 30 30 28 30 31 33 33 35 36 35 35 36 36 35 36 35 35 35 34
18 19 19 20 20 21 22 24 23 24 23 27 27 28 29 28 28 28 28 28 28 29 29 30 30 30 31 32 32 32 32 32 33 34 34 34 34 35 35 35 35 35 35 35 35
18 19 19 20 20 20 21 22 20 20 23 27 27 27 28 28 29 29 28 29 29 29 31 30 30 32 33 33 32 32 31 32 33 34 34 33 33 34 35 35 35 35 35 35 35
18 19 19 20 20 20 21 20 20 21 23 28 28 29 29 28 30 30 29 30 31 30 31 31 32 34 33 33 32 32 32 31 32 33 33 33 32 33 35 35 35 35 35 35 35
17 18 19 20 20 21 22 20 21 21 25 29 29 29 28 29 30 30 29 29 30 31 31 31 33 32 32 31 32 31 33 33 32 32 30 33 31 32 34 35 36 35 35 35 35
17 18 18 18 19 21 20 20 20 22 27 30 31 28 29 30 30 30 29 29 29 30 31 30 31 31 31 31 32 31 32 32 31 31 31 31 31 32 34 33 34 35 35 35 35
17 18 18 18 18 20 20 20 21 25 27 29 30 31 31 31 31 30 30 29 30 30 31 31 32 32 32 32 32 32 31 31 31 31 29 30 31 31 33 33 34 35 35 34 33
18 18 19 19 20 19 20 22 25 27 30 30 30 31 31 31 31 31 30 30 30 28 29 30 32 33 33 31 32 31 30 28 28 29 29 32 31 32 33 34 34 33 32 32 33
18 19 19 19 19 19 20 24 25 30 30 30 30 30 29 30 31 30 30 30 31 29 28 28 27 31 31 30 29 30 30 28 25 27 28 31 29 30 32 32 34 33 30 32 33
18 19 19 20 19 19 22 25 28 29 29 28 29 29 30 30 29 30 30 30 30 29 26 26 27 29 31 31 31 29 28 31 29 29 29 30 30 31 27 30 31 30 30 32 31
18 18 21 21 20 21 24 24 28 28 28 28 27 29 28 29 28 29 29 30 29 29 28 27 25 28 30 30 30 30 31 28 28 25 24 25 26 21 22 23 24 19 20 22 21
18 21 22 21 21 22 24 28 28 27 26 27 27 27 28 28 28 28 29 29 29 28 27 27 26 26 28 28 28 28 26 26 25 24 23 22 26 24 23 23 20 18 15 17 24
17 23 22 21 23 25 26 27 25 26 26 26 27 26 27 27 27 27 27 29 27 27 26 26 25 24 26 28 30 29 26 24 24 24 25 23 24 24 22 23 17 15 15 14 19
17 21 23 22 23 26 28 27 26 26 27 27 27 27 27 26 25 26 27 28 27 27 24 25 24 23 25 28 29 27 27 26 23 24 24 16 17 24 21 20 15 15 17 15 19
16 23 24 23 23 24 24 25 26 26 25 25 26 26 26 25 26 25 26 27 27 27 24 24 24 23 23 24 26 25 26 27 27 24 23 19 20 24 20 19 17 16 16 17 18
17 22 22 23 24 24 24 24 24 25 26 25 25 25 25 24 25 25 26 26 27 24 25 25 22 24 24 25 25 25 26 27 27 27 27 27 25 19 17 18 17 16 17 18 18
17 19 19 20 21 22 21 23 23 25 25 25 24 26 25 24 24 24 24 24 24 24 24 25 22 23 23 25 25 26 27 27 28 28 28 27 19 15 18 17 17 16 18 16 17
17 17 17 19 21 23 23 24 24 25 24 24 24 24 24 25 24 23 23 23 24 23 23 24 23 23 22 24 25 24 22 24 23 21 20 24 20 20 20 19 18 17 17 17 17

GFSSW_850_temp_099.txt.gz
Temp
19 19 20 20 21 21 21 21 22 22 22 23 23 24 24 25 25 26 27 28 28 27 27 27 28 27 26 27 28 29 26 27 26 26 26 31 31 33 35 32 32 31 27 26 25
19 19 20 21 21 21 21 22 22 22 22 23 23 23 24 24 25 26 29 28 28 27 27 27 26 27 26 28 29 28 25 28 29 29 27 30 31 33 35 34 31 29 27 26 25
19 19 20 21 21 21 21 21 22 22 23 23 23 23 23 24 25 28 28 28 28 27 27 27 27 28 29 30 30 30 28 31 32 34 31 31 33 35 34 32 30 27 26 25 25
19 20 20 21 21 21 21 22 22 22 23 23 23 23 23 23 24 28 28 28 28 28 27 27 27 29 28 28 31 29 31 32 33 34 34 32 34 33 35 34 34 29 27 25 25
19 20 20 21 21 21 22 22 23 23 22 22 22 22 22 22 25 27 27 28 28 28 27 26 27 29 27 29 31 29 30 32 33 33 33 34 32 33 34 35 35 29 27 26 25
19 20 21 21 21 22 22 23 23 22 22 22 22 22 22 22 27 27 27 27 27 27 27 27 28 29 30 30 28 31 31 31 32 32 33 32 32 33 35 35 34 29 27 26 26
19 20 20 21 21 22 23 23 23 23 23 23 22 22 22 25 27 27 27 26 26 26 27 27 28 29 30 28 31 31 28 29 30 32 31 33 31 32 35 35 35 29 27 27 26
19 20 20 21 22 22 23 23 23 23 23 23 22 22 23 27 28 27 27 27 27 27 27 28 28 29 29 29 29 27 26 25 30 31 32 32 29 31 36 35 35 33 28 28 27
19 19 20 21 22 22 23 23 24 23 23 23 22 22 24 28 28 28 28 27 28 28 28 28 29 29 29 25 23 25 25 26 29 32 32 31 29 32 35 35 34 35 32 29 28
19 19 20 21 21 22 23 24 24 23 23 23 22 21 27 28 28 28 28 28 28 29 29 29 29 25 24 23 22 24 25 27 29 31 31 30 30 31 34 34 34 34 35 31 29
19 19 20 21 21 21 23 23 23 23 22 24 25 26 28 28 28 28 28 28 28 28 26 29 24 23 25 26 27 28 27 27 29 31 29 28 29 30 31 32 33 34 34 35 34
19 20 20 21 21 21 21 21 20 20 21 25 26 27 28 28 28 29 29 28 28 25 26 25 24 27 29 29 29 28 27 27 28 30 30 28 28 30 30 30 33 33 34 34 34
19 19 20 21 21 21 21 21 21 21 21 25 27 28 29 28 29 29 29 30 28 27 27 25 27 31 31 30 29 27 27 27 27 29 28 28 27 27 30 32 33 34 35 34 34
18 19 19 21 21 21 21 20 21 21 19 27 28 29 29 29 28 30 30 29 29 28 28 28 30 30 29 29 29 26 29 29 28 27 24 27 25 25 27 28 29 32 33 34 34
18 19 19 19 20 20 20 20 21 21 23 28 29 29 29 29 30 30 29 29 27 28 28 26 28 28 28 29 30 28 29 28 28 25 24 25 23 26 26 27 27 29 33 34 34
19 19 20 19 20 20 20 21 21 20 23 29 30 29 28 29 30 31 30 29 30 28 28 27 31 29 29 30 31 29 28 26 25 24 22 24 24 26 25 25 27 27 28 30 31
19 19 19 20 20 20 20 21 20 22 30 28 28 30 28 29 30 30 30 28 25 25 25 26 28 29 29 27 27 27 23 20 21 20 21 25 24 22 22 21 20 20 19 20 22
20 20 20 20 20 20 20 20 22 28 28 30 28 28 28 29 29 30 29 26 28 27 23 23 23 26 28 27 26 25 25 21 21 21 23 24 24 20 23 22 21 19 21 22 18
20 21 21 21 20 20 21 20 24 26 27 27 27 27 27 28 29 29 27 27 28 25 24 23 23 27 28 28 27 25 22 24 22 24 22 22 23 24 22 22 20 18 21 23 21
19 20 22 21 21 21 20 20 25 28 27 26 25 27 26 27 27 26 27 29 28 26 25 24 21 24 26 27 27 26 26 21 19 20 20 21 22 19 19 19 19 18 15 20 25
18 19 22 22 22 22 19 22 26 28 26 25 24 24 24 25 26 26 26 27 27 26 25 23 20 21 24 23 23 24 22 22 21 21 19 19 20 21 20 20 18 16 16 17 19
17 18 22 22 21 22 20 24 26 27 26 27 26 25 25 25 24 25 25 26 27 27 24 23 21 18 21 24 25 25 24 22 18 19 19 19 19 21 20 18 16 16 16 16 16
15 17 22 22 19 21 23 25 27 26 26 26 25 26 25 24 23 24 25 27 27 26 22 23 19 18 19 21 24 23 23 22 20 19 18 17 17 21 19 18 17 16 16 15 17
13 18 22 23 23 22 21 23 24 26 26 25 24 24 23 22 22 22 24 27 27 25 24 23 20 19 17 19 21 21 23 24 21 21 21 20 21 18 18 17 17 17 16 16 17
14 19 19 19 20 20 20 21 22 22 24 25 24 24 23 21 22 22 24 23 24 24 23 20 19 20 20 22 23 23 23 24 23 20 19 18 17 17 16 16 16 17 17 17 18
13 16 18 18 19 19 20 20 22 23 23 23 23 24 23 21 21 20 20 20 21 20 19 19 17 18 19 22 23 23 24 22 22 19 18 20 17 17 17 19 16 15 15 15 16
13 15 16 17 18 19 20 21 23 23 23 24 23 21 22 22 22 22 22 22 20 19 18 18 18 18 18 21 21 20 19 20 18 16 17 16 16 16 16 16 16 15 15 15 17

GFSSW_850_temp_102.txt.gz
Temp
20 20 20 21 21 21 22 22 22 23 23 23 23 24 24 25 25 26 27 29 28 28 27 26 26 27 25 25 26 26 23 23 24 25 27 32 30 32 32 29 28 27 26 25 23
19 20 20 21 21 21 22 22 22 22 23 23 23 23 24 24 25 27 29 28 28 28 27 26 27 26 25 26 27 25 21 25 25 26 26 28 29 30 31 29 28 27 27 25 24
19 20 20 20 21 21 22 22 22 23 23 23 23 23 23 23 25 28 28 28 28 28 27 26 27 25 25 27 27 26 25 28 29 29 29 28 28 31 31 28 28 24 24 24 24
19 19 20 21 21 21 22 22 23 23 23 23 23 23 23 23 24 27 27 28 28 28 27 27 26 26 25 25 29 27 29 29 30 31 29 28 31 31 32 32 31 29 27 24 24
19 20 20 21 21 22 22 22 23 23 23 23 23 22 23 22 26 27 27 27 28 28 28 27 26 26 25 26 27 27 27 29 30 30 30 31 30 30 31 34 30 28 26 24 24
19 20 20 21 21 22 22 23 23 23 23 23 22 22 22 20 27 27 27 27 27 27 27 26 27 27 27 27 26 28 28 28 29 30 30 29 29 30 32 33 31 26 25 24 25
20 20 20 21 22 22 23 23 23 23 23 23 22 22 22 26 26 26 27 27 27 27 27 27 27 27 28 25 28 28 25 26 28 29 28 30 28 29 32 33 31 26 25 24 24
19 20 20 21 22 23 22 23 24 24 23 22 22 22 24 27 27 27 27 26 27 27 27 28 27 27 28 28 27 25 24 23 26 28 29 29 26 29 33 31 29 26 25 24 24
19 20 21 21 22 22 22 24 24 23 23 23 22 21 25 27 27 28 27 27 27 27 27 27 27 28 28 24 21 21 22 23 25 28 28 28 26 28 33 33 30 26 26 25 24
19 20 21 21 22 22 23 24 23 23 23 23 22 21 27 28 28 28 28 28 27 28 28 28 28 23 20 20 20 22 22 23 24 28 27 27 26 27 30 31 32 29 26 26 25
19 20 21 21 21 21 22 23 23 23 22 23 23 22 25 27 28 28 28 28 28 28 25 27 23 21 22 22 24 24 23 23 25 27 27 26 25 26 28 30 30 32 28 26 26
19 20 21 21 21 21 21 21 20 20 20 23 24 24 27 27 28 29 28 28 27 24 25 23 22 24 25 25 24 24 23 23 25 27 28 25 25 26 26 27 30 30 32 28 27
19 20 21 21 21 21 20 20 21 21 19 23 26 27 28 28 28 28 28 28 26 24 24 22 24 27 27 26 25 24 24 24 25 26 25 25 24 24 27 28 30 28 28 29 30
19 20 20 22 22 21 20 21 20 21 16 22 26 28 28 28 27 29 29 29 28 27 26 24 26 27 26 27 27 25 27 27 26 24 22 25 22 23 22 23 23 20 20 19 21
19 19 20 20 20 20 20 21 21 21 22 26 27 29 29 28 29 29 30 29 26 26 27 24 26 26 26 26 27 25 27 26 26 24 22 23 21 20 20 19 20 20 19 17 19
20 19 21 21 21 21 21 21 21 19 24 27 28 27 27 28 28 29 29 29 28 27 26 25 28 27 26 27 27 27 24 22 21 19 19 21 21 18 18 18 20 19 18 18 20
20 20 20 21 21 21 21 21 18 21 25 26 27 25 26 26 27 28 27 26 24 24 22 24 26 26 26 24 24 23 20 19 19 19 19 21 20 18 20 20 20 18 18 17 22
20 20 21 21 21 21 21 18 21 24 24 26 25 24 26 27 28 28 27 25 25 23 20 21 22 24 25 24 24 22 22 19 20 18 21 21 22 20 21 21 20 19 19 18 18
20 21 22 21 21 21 21 16 20 24 25 24 24 24 24 25 26 25 26 24 23 23 22 20 22 24 25 24 24 22 20 21 19 19 18 19 21 22 21 20 19 18 19 16 16
19 20 22 22 21 21 16 16 21 24 25 23 22 23 22 22 23 23 24 24 24 24 23 22 20 21 24 24 23 22 22 20 16 19 19 18 20 19 20 18 17 17 16 16 15
18 19 22 22 21 20 15 16 22 25 26 24 23 22 23 23 23 22 23 24 25 24 22 21 18 19 21 20 20 20 19 19 17 16 17 16 18 18 19 17 16 15 16 15 16
17 14 21 21 20 15 16 21 24 24 26 24 24 23 23 22 22 23 23 24 26 25 23 21 16 17 19 20 22 20 23 17 16 17 16 15 17 17 18 17 16 16 16 16 16
15 15 21 21 16 14 17 20 22 21 22 23 24 23 22 22 21 22 23 25 25 23 21 21 16 15 16 17 20 21 21 20 16 14 16 16 16 17 16 15 16 16 17 17 16
14 11 19 20 19 17 16 18 19 22 22 23 23 23 22 21 20 21 21 24 24 23 22 20 15 16 15 17 18 19 20 21 19 16 18 16 16 16 15 14 15 16 16 17 17
13 13 16 12 15 15 16 18 19 19 22 22 21 22 21 20 18 18 19 19 21 21 20 17 17 18 18 18 20 20 21 21 18 17 17 16 16 15 14 14 15 15 15 16 16
13 13 14 15 16 15 15 18 19 19 20 20 21 20 19 19 19 18 18 18 18 18 18 15 16 17 17 19 20 20 20 20 19 18 17 17 16 16 16 15 15 15 15 16 16
11 12 13 14 13 14 14 16 18 18 20 22 20 19 18 19 21 21 20 20 18 17 16 16 15 14 15 18 18 17 18 18 17 16 15 15 15 15 14 14 14 13 13 14 15

GFSSW_850_temp_105.txt.gz
Temp
19 20 20 21 21 22 22 22 22 23 23 23 24 24 24 24 25 25 27 28 27 27 27 26 26 25 24 24 24 25 21 21 24 25 28 30 28 30 30 29 27 26 26 25 23
19 19 20 21 21 21 22 22 22 23 23 23 23 23 24 24 25 26 28 28 27 27 26 26 26 25 24 24 25 23 20 24 24 25 25 27 27 28 28 28 27 26 26 25 23
18 19 20 20 21 21 22 22 22 23 23 23 23 23 23 24 25 27 28 28 28 27 26 26 25 25 24 25 25 24 23 25 26 28 28 26 27 29 29 27 27 26 25 24 22
19 19 20 20 21 21 22 22 22 23 23 23 23 23 23 23 25 27 27 28 28 27 26 26 25 25 24 24 26 25 26 27 28 29 28 27 29 29 29 30 31 29 29 25 22
19 19 19 20 21 22 22 22 23 23 23 23 23 23 22 23 26 27 27 27 27 27 27 26 25 25 24 25 26 25 26 27 28 28 28 29 27 27 29 30 31 29 26 25 23
19 20 20 20 21 22 22 22 23 23 23 23 23 22 22 21 27 27 27 27 26 26 27 26 26 26 26 26 25 27 26 26 28 29 29 28 27 28 32 32 29 27 25 24 23
20 20 20 21 22 22 22 23 23 24 24 23 23 22 22 26 26 26 26 26 26 26 26 27 26 26 26 25 27 26 25 24 26 27 27 29 26 27 32 30 28 26 24 23 22
19 20 20 21 22 22 22 24 24 24 23 23 23 22 25 26 26 27 26 26 26 26 27 27 26 26 26 27 25 25 23 22 25 27 27 27 24 26 31 29 29 25 24 23 23
19 20 21 21 22 22 23 23 23 23 23 23 22 22 26 26 27 27 27 27 27 27 27 26 26 26 26 22 20 19 22 23 23 26 26 27 24 26 30 28 28 25 24 23 23
19 20 21 21 22 22 22 23 23 22 23 23 22 23 27 27 27 28 28 27 27 27 27 27 26 22 18 19 20 23 22 22 22 24 25 24 23 24 29 28 27 27 24 23 23
19 20 21 21 21 21 23 22 22 22 22 23 22 23 26 27 27 28 28 27 27 27 24 24 22 21 21 20 22 23 22 21 23 25 24 24 23 25 26 24 20 21 24 24 24
19 20 21 21 21 21 21 20 19 19 19 23 23 23 26 26 25 28 28 27 26 24 24 21 21 23 23 23 22 21 21 21 22 23 23 23 25 24 22 20 20 19 19 21 23
19 19 20 21 21 20 21 20 20 20 18 23 25 25 27 27 27 28 28 27 26 24 23 22 24 25 25 24 24 22 21 22 23 25 24 24 23 21 21 22 21 19 18 19 20
19 19 20 21 21 21 21 20 20 20 16 23 25 27 27 27 27 28 29 28 26 24 22 22 24 25 25 25 24 24 24 25 25 22 22 23 20 20 18 20 20 19 18 16 20
19 19 20 21 21 21 20 21 21 21 22 26 27 28 28 28 28 29 29 28 26 26 25 24 26 24 24 24 24 25 25 24 25 23 21 22 19 20 17 19 19 19 18 17 17
20 19 20 21 21 21 21 21 21 19 23 26 27 26 26 27 27 29 29 28 27 26 24 24 26 25 25 25 25 24 24 20 17 17 18 20 20 18 19 20 18 19 18 18 19
20 20 21 21 21 21 21 21 18 20 24 24 25 24 24 25 26 26 26 25 23 24 22 22 24 24 25 23 22 21 18 17 18 17 18 20 19 18 21 20 19 17 18 17 18
19 20 21 22 21 21 21 18 22 23 23 25 24 23 24 22 25 25 26 22 22 21 19 21 22 23 24 24 23 21 19 17 19 18 18 18 20 20 20 20 19 18 17 16 17
19 21 22 21 21 21 20 17 21 22 24 23 23 21 21 22 24 23 23 22 22 22 21 20 21 22 23 23 22 21 19 20 18 16 16 17 20 21 19 19 18 18 17 16 17
18 20 21 21 21 21 15 16 18 21 23 23 22 22 21 22 21 20 22 23 24 23 21 20 20 21 22 22 22 22 20 18 15 18 18 17 18 18 20 17 16 16 16 16 17
18 19 20 21 20 20 15 15 19 23 23 23 22 22 22 21 21 21 21 24 24 23 21 19 18 20 20 20 20 18 18 17 15 14 16 15 16 18 18 17 16 15 16 16 16
16 14 20 20 18 12 15 18 21 22 23 23 23 22 22 21 21 22 22 22 24 24 22 19 14 17 20 19 19 19 20 15 14 16 14 14 14 17 16 15 15 15 16 16 16
14 16 19 20 14 13 14 18 20 20 20 21 22 23 22 22 21 21 21 22 23 20 21 20 15 15 16 17 18 20 19 19 14 12 14 14 15 15 15 14 15 15 15 16 16
13 11 18 18 16 15 15 17 18 21 21 21 21 21 21 20 17 19 18 21 22 21 20 19 13 15 15 17 18 17 18 19 17 13 14 14 16 16 15 14 14 15 15 15 15
12 11 12 11 13 13 14 16 17 16 20 20 19 19 20 18 17 18 18 17 19 19 19 16 17 15 15 16 17 17 18 19 18 16 15 16 15 15 14 13 14 14 14 15 15
12 11 12 12 13 13 12 14 15 16 17 18 19 19 18 18 18 18 18 17 18 17 18 13 15 16 16 17 18 18 19 19 18 18 16 16 15 15 15 15 15 14 13 13 15
10 10 11 12 11 13 13 14 15 15 17 19 19 18 18 17 20 21 21 20 18 16 15 15 13 13 14 16 16 16 17 18 18 16 15 14 15 15 13 13 14 13 13 13 14

GFSSW_850_temp_111.txt.gz
Temp
19 20 20 20 20 21 21 22 22 23 23 23 23 24 24 24 24 25 26 26 27 26 25 25 24 24 22 21 22 22 26 26 27 27 28 29 29 29 29 29 27 26 26 26 25
19 19 20 20 21 21 22 22 23 23 23 23 23 24 24 24 24 25 26 26 26 26 25 25 25 24 23 23 23 25 26 27 28 29 29 29 28 29 29 30 28 26 24 25 25
18 19 19 20 21 22 22 23 23 23 24 23 23 24 24 24 24 25 26 26 26 25 25 25 25 24 24 23 24 24 27 27 28 28 27 29 29 28 30 31 31 30 24 24 23
18 19 19 20 21 22 23 23 23 23 24 24 23 24 24 24 26 25 26 27 25 24 24 24 24 24 25 26 25 26 26 26 28 28 28 28 28 29 28 30 29 29 25 25 22
19 19 20 21 22 22 22 23 23 24 24 24 24 24 23 24 25 26 26 26 25 25 24 25 24 24 26 26 26 26 27 27 27 26 26 26 27 28 28 28 27 28 25 24 23
19 19 20 21 22 22 22 23 24 24 24 24 24 23 24 25 25 26 26 26 25 25 25 25 25 25 26 26 27 26 26 27 26 27 26 27 29 28 27 26 27 27 25 22 21
19 19 20 21 22 22 22 23 23 24 24 24 24 23 24 25 25 26 26 25 25 25 25 25 25 25 25 27 25 25 27 28 28 28 29 26 29 26 24 25 26 25 23 22 21
19 20 20 21 22 22 22 23 23 23 23 23 23 24 25 26 26 26 26 26 25 25 25 25 25 25 25 25 26 26 26 28 28 27 27 27 28 26 23 24 24 23 23 22 21
19 20 20 21 22 22 22 22 23 23 23 23 23 23 25 25 26 26 26 26 26 25 25 25 25 24 25 26 27 26 27 26 27 26 27 28 26 25 23 23 23 22 22 22 21
19 20 21 21 22 22 22 23 22 22 23 23 23 24 25 26 26 26 26 26 26 26 25 25 24 26 25 27 26 26 26 27 26 27 27 27 25 25 23 23 23 22 21 21 21
19 20 21 21 22 21 22 23 22 22 22 22 22 23 25 26 26 27 27 26 26 26 27 23 27 27 27 25 26 25 25 25 27 26 26 25 25 24 23 24 23 22 21 21 19
20 20 21 21 22 21 21 21 19 19 19 23 23 23 25 25 26 26 26 26 26 26 24 26 27 26 24 24 24 24 25 26 26 25 26 25 25 24 24 23 22 22 21 20 20
19 20 21 21 22 22 21 20 19 19 19 22 23 24 25 26 26 26 26 26 26 25 25 26 27 25 26 25 25 25 26 26 26 26 26 26 26 25 24 23 22 23 22 21 19
19 20 21 21 22 21 20 20 20 20 23 26 26 26 26 26 27 27 27 27 26 27 24 26 26 26 26 26 25 27 25 25 26 26 27 25 27 24 24 24 24 23 22 22 20
19 20 21 21 21 21 20 20 20 20 25 26 26 26 26 26 26 27 27 27 27 26 26 26 26 26 26 26 25 26 24 25 25 26 25 25 26 27 23 25 25 23 21 21 20
19 20 21 21 21 21 21 21 20 23 24 26 25 26 27 26 26 26 26 26 25 26 25 25 24 26 26 25 25 24 25 23 22 24 25 24 25 26 26 25 25 24 21 20 19
19 20 21 21 21 21 21 21 23 24 24 25 25 25 24 25 26 25 26 25 26 26 25 25 25 25 24 26 24 25 25 25 25 25 25 22 23 25 25 24 23 22 21 19 18
19 20 20 21 21 21 21 22 23 23 24 24 23 24 25 24 24 24 24 25 24 24 24 25 24 25 24 24 24 23 23 24 22 23 24 22 24 25 23 22 21 21 20 19 19
19 20 20 20 21 21 20 23 23 22 22 23 24 24 24 24 24 25 23 24 24 24 25 24 24 23 24 24 23 23 23 21 22 19 21 23 23 24 22 22 22 21 20 19 18
18 19 19 20 20 20 21 19 21 21 22 23 24 23 23 23 24 24 24 24 24 23 22 23 24 23 23 23 23 24 22 23 22 21 21 22 22 24 24 23 21 21 20 18 17
18 18 19 19 20 20 21 20 20 21 20 23 23 23 23 23 23 23 22 23 23 23 22 23 23 23 23 23 23 23 23 20 21 21 21 21 22 23 23 21 20 20 19 17 17
16 18 18 19 20 13 19 18 18 21 20 22 23 23 23 22 23 23 23 22 20 22 23 20 23 23 23 21 20 21 22 22 21 21 21 20 21 23 22 21 18 19 18 17 16
12 14 17 18 19 19 17 19 19 20 21 21 22 22 22 22 22 22 22 21 20 22 22 21 21 22 22 22 21 22 22 20 19 18 20 20 22 21 20 20 19 18 17 17 16
11 15 16 16 14 16 17 18 19 18 19 19 20 21 21 21 19 21 21 21 20 20 18 20 19 21 22 22 22 21 21 21 20 20 21 21 21 22 22 20 19 18 17 16 15
11 11 10 16 16 15 15 16 18 19 18 18 20 20 20 20 20 21 20 21 20 19 19 21 21 20 22 21 21 21 21 22 21 20 19 22 21 21 20 18 17 16 15 15 14
9 9 10 11 10 14 13 16 17 17 17 19 19 19 19 20 21 20 20 20 21 19 20 18 20 18 19 21 21 20 21 21 21 21 21 20 20 20 17 17 17 15 15 14 14
8 8 8 11 12 14 16 15 16 16 17 17 17 18 19 19 17 18 19 18 19 19 18 18 18 18 19 19 19 18 20 20 21 21 20 20 21 19 19 18 16 14 14 13 12

GFSSW_850_temp_114.txt.gz
Temp
19 19 20 20 21 22 22 22 23 23 23 23 23 24 24 24 24 25 25 25 26 26 26 25 23 23 24 26 26 27 32 31 31 30 31 32 33 32 32 33 31 30 30 28 24
19 19 20 21 21 22 22 23 23 23 23 24 24 24 24 24 24 25 25 25 26 25 24 24 25 24 27 28 28 30 31 31 32 32 32 32 32 32 32 33 34 32 26 26 23
19 19 20 21 22 22 23 23 23 23 24 23 24 24 24 24 24 26 25 25 25 25 24 25 26 26 29 29 29 31 31 32 31 31 31 31 32 32 33 33 33 32 29 25 24
19 19 20 21 22 22 23 23 23 24 24 24 24 24 24 24 29 25 26 26 25 23 24 25 26 28 30 30 29 30 31 30 31 31 31 32 31 32 32 32 30 30 30 26 24
19 19 20 21 22 22 22 23 24 24 24 24 24 24 24 24 26 26 26 26 25 23 25 26 27 29 30 30 29 30 31 30 31 31 31 30 31 31 32 30 30 30 29 27 25
19 20 20 21 22 22 23 24 24 24 24 24 24 24 24 29 25 26 26 25 25 24 25 26 28 28 29 30 30 30 30 30 31 31 30 31 32 31 30 29 30 29 29 27 26
19 20 20 21 23 22 23 23 23 24 24 24 24 24 23 25 25 26 25 24 24 25 26 26 26 27 28 30 29 29 30 32 31 31 32 31 32 30 29 29 30 29 28 27 26
20 20 21 21 22 22 23 23 23 23 23 23 23 24 27 25 25 25 25 25 24 24 25 26 26 27 28 28 30 31 31 32 32 32 31 31 31 30 29 30 29 27 27 26 25
20 20 21 21 22 23 23 22 23 23 23 23 24 23 27 25 25 25 25 26 25 25 25 25 26 29 29 30 31 31 32 31 31 31 31 32 31 30 29 29 28 27 26 26 25
20 20 21 22 22 23 23 23 22 23 23 24 24 25 26 27 26 25 25 26 27 26 26 27 28 31 31 32 31 30 31 31 30 31 31 31 31 31 29 30 28 27 26 25 25
20 20 21 22 22 22 23 23 24 23 23 25 26 25 26 25 26 26 26 26 27 28 30 29 31 31 31 30 30 30 30 30 31 30 30 30 30 30 29 30 29 28 26 25 24
20 21 21 22 22 22 21 22 19 20 25 23 23 24 25 26 28 27 26 28 28 30 29 30 31 30 30 29 29 30 30 30 31 30 30 30 30 29 29 29 28 28 27 26 25
19 20 21 21 22 22 21 20 20 20 25 26 25 26 27 26 29 29 28 29 30 29 30 30 30 29 30 29 30 30 30 30 30 30 31 30 31 29 29 29 28 28 27 26 24
19 20 21 21 21 22 20 21 21 21 29 28 29 27 26 27 29 28 28 29 30 30 29 30 30 29 30 29 30 30 30 29 30 30 30 30 30 30 29 29 29 28 27 26 25
19 20 21 21 21 21 21 21 21 20 29 29 29 27 27 29 29 28 27 29 30 30 29 29 29 29 29 29 29 29 29 29 29 30 30 30 29 30 29 28 28 28 26 25 24
19 20 21 21 21 21 21 21 20 27 28 28 29 30 30 29 29 28 29 28 28 30 30 29 28 29 29 29 28 28 29 30 29 30 29 29 29 31 30 29 29 28 26 24 23
19 20 20 21 20 21 21 21 27 28 28 28 29 30 30 30 30 30 30 29 30 28 29 29 29 28 28 29 29 29 30 29 29 29 29 28 28 30 29 28 28 27 26 24 23
19 20 20 20 21 21 20 26 26 28 28 28 28 29 30 29 29 29 29 29 28 29 29 29 27 28 28 28 27 27 28 27 26 28 29 28 27 28 28 27 26 25 25 24 23
19 20 19 20 21 21 23 26 28 27 27 27 28 29 29 28 28 29 29 29 28 28 28 28 28 27 27 28 27 27 27 27 27 27 26 28 28 29 28 27 26 25 25 24 22
19 19 19 20 21 21 25 23 26 25 26 27 27 28 28 28 28 29 28 28 27 28 28 28 27 28 26 27 26 27 27 26 27 25 25 28 27 27 27 27 26 26 25 23 22
18 20 19 20 20 22 26 26 25 24 24 26 27 27 28 27 28 28 28 27 27 27 27 28 27 27 26 27 27 26 26 26 26 25 25 26 27 27 26 26 25 25 24 22 21
15 22 19 20 23 23 25 24 21 25 24 26 26 27 27 27 27 27 27 27 25 26 27 27 27 26 27 26 26 26 26 26 25 25 26 25 25 27 26 25 24 23 22 21 20
15 17 18 19 24 25 23 24 23 25 25 25 26 26 26 26 25 26 26 24 25 26 26 26 26 25 26 26 25 25 26 25 25 24 23 23 25 27 26 26 24 22 21 20 19
13 21 20 19 19 22 23 23 23 22 23 23 25 25 25 25 25 25 25 25 24 25 21 23 25 24 25 26 26 24 25 25 25 23 24 25 25 26 26 25 23 21 19 19 18
13 18 14 21 20 20 20 21 23 23 23 23 24 25 25 24 25 25 26 25 24 21 23 25 23 24 25 25 25 25 25 25 25 25 24 24 24 25 24 22 21 19 18 18 17
13 14 15 17 16 19 16 21 22 22 22 23 23 23 24 24 25 24 25 24 24 24 24 24 22 23 22 24 24 23 24 24 25 25 24 24 24 25 22 22 21 19 18 17 16
9 10 12 16 18 19 21 21 21 20 21 21 21 22 23 23 21 22 23 23 24 23 23 22 22 22 22 23 23 22 24 24 24 24 24 23 23 23 22 21 19 18 17 16 14

GFSSW_850_temp_117.txt.gz
Temp
19 19 20 21 21 22 23 23 23 23 23 23 24 24 24 24 24 24 24 25 26 26 26 25 26 27 27 29 30 31 33 34 34 33 34 35 35 34 34 35 34 33 32 30 27
19 19 20 21 22 23 23 23 23 23 23 24 24 24 24 24 24 23 25 26 26 26 26 26 28 28 30 31 32 33 34 34 35 35 34 34 34 34 34 35 35 34 30 29 26
19 20 20 21 22 22 23 23 23 24 24 24 24 24 24 24 24 28 26 26 26 26 26 27 29 29 31 32 33 34 34 35 34 33 33 34 34 34 35 34 34 33 32 28 27
19 20 20 21 22 22 23 23 24 24 24 24 24 24 24 24 30 25 26 26 26 25 26 28 29 30 32 33 33 33 34 33 34 33 33 34 34 34 34 33 33 33 32 29 27
19 20 21 21 22 22 23 24 24 24 25 25 24 24 24 25 28 27 27 26 26 24 27 28 30 31 33 34 33 33 34 33 33 33 33 33 34 34 33 33 33 32 31 30 28
20 20 21 21 22 22 23 23 24 24 24 24 24 25 25 30 26 26 27 26 25 26 28 29 30 31 31 33 33 33 33 33 33 33 33 34 34 34 33 33 33 32 32 31 29
20 20 21 21 22 22 23 23 23 24 24 24 24 25 25 27 26 25 25 25 26 27 29 29 29 30 32 33 32 32 33 34 34 34 34 34 34 33 32 33 32 32 30 30 30
20 20 21 22 22 23 23 23 23 23 23 24 25 25 28 26 26 26 27 27 27 27 28 29 28 30 31 32 32 33 35 34 34 34 34 34 33 33 33 32 31 30 30 29 28
20 21 21 22 23 23 23 23 23 23 24 24 25 24 29 26 26 27 27 28 27 28 28 28 29 30 32 33 34 34 35 34 34 34 34 34 34 33 33 32 31 30 29 29 28
20 21 21 22 23 23 23 23 23 24 24 25 25 26 28 29 28 28 27 28 29 29 29 29 30 33 33 34 33 34 34 34 33 34 34 34 33 33 32 32 31 30 28 28 27
20 21 21 22 23 23 23 23 24 24 23 29 30 29 29 29 27 28 28 28 29 30 32 31 32 33 34 33 33 33 33 33 33 33 33 33 33 33 32 32 31 30 29 28 27
20 21 21 22 23 23 23 25 22 22 28 28 27 27 28 29 30 29 28 29 30 32 32 32 32 33 33 33 32 33 33 33 33 33 33 33 32 33 32 32 31 31 29 28 27
20 21 21 22 22 23 23 22 21 22 27 29 29 30 29 29 31 30 29 30 32 32 32 33 33 32 32 32 32 33 33 32 32 33 34 33 33 32 32 31 31 30 30 28 27
20 21 21 22 22 23 24 22 22 22 29 31 30 30 29 30 31 31 30 31 32 33 32 33 32 32 32 32 32 33 32 32 32 32 32 33 31 32 32 32 31 30 30 28 27
19 20 21 22 22 24 22 22 22 23 30 32 32 29 30 31 32 31 30 31 32 32 32 32 32 31 31 32 31 32 32 31 32 32 32 33 32 32 32 31 31 31 29 28 27
19 20 21 21 21 22 22 22 23 28 30 31 32 31 32 31 32 31 30 30 31 32 32 32 31 32 32 31 31 31 31 32 33 33 31 33 32 32 32 32 31 30 28 27 26
20 20 21 21 23 22 22 24 29 30 32 32 32 33 33 32 32 32 32 31 31 30 31 32 31 32 31 31 32 31 32 31 31 32 32 32 31 32 32 31 31 29 28 27 27
20 20 21 21 21 21 22 28 27 32 32 32 32 33 32 33 33 32 32 32 32 32 32 31 30 31 31 31 30 30 30 29 28 30 32 31 30 30 32 30 29 28 28 27 26
20 20 21 21 21 21 24 28 30 32 31 31 32 31 32 32 31 32 31 32 33 32 30 31 31 31 31 30 30 30 29 31 29 31 30 32 32 31 31 30 29 29 28 27 25
20 20 23 21 21 22 27 26 30 30 29 30 30 32 31 32 31 31 31 32 31 31 31 31 29 31 30 30 30 29 30 29 30 27 28 31 30 30 29 29 29 28 27 27 25
19 23 22 22 21 24 27 30 30 28 28 29 30 31 30 31 31 32 32 31 31 31 31 31 30 30 29 29 29 29 29 29 30 29 28 28 30 30 29 29 28 27 26 25 24
18 25 22 22 25 27 29 29 25 28 27 29 29 30 30 30 30 30 30 30 29 30 29 30 30 29 30 30 30 29 28 29 28 27 29 28 28 30 29 29 28 27 25 24 23
18 22 22 22 26 28 28 27 27 28 28 29 29 29 30 29 28 29 30 28 28 29 28 29 28 28 28 30 30 27 28 28 28 28 26 26 28 31 30 29 28 26 24 22 21
16 24 24 23 25 25 27 27 27 25 27 27 28 28 28 28 29 28 28 28 27 28 24 25 27 26 27 28 29 27 28 28 28 26 27 28 28 29 29 28 26 24 23 21 21
18 23 20 25 25 25 26 26 26 27 26 26 27 27 28 27 28 27 28 28 27 24 25 27 25 26 27 28 28 28 27 28 27 28 26 27 27 28 27 26 25 24 22 21 20
17 18 19 21 21 22 18 25 25 27 26 26 26 28 28 27 27 27 28 28 27 27 26 27 24 25 25 26 27 26 27 27 27 27 27 27 27 28 25 24 24 23 22 21 20
13 15 15 20 22 23 25 25 24 25 25 25 25 26 26 26 26 26 26 27 27 26 26 25 25 24 24 26 26 25 26 27 27 27 27 26 26 26 24 23 22 21 21 20 19

GFSSW_850_temp_120.txt.gz
Temp
19 19 20 20 22 23 23 23 23 23 23 24 24 24 24 24 24 25 25 26 27 27 27 26 26 28 29 30 31 32 32 33 35 34 34 36 35 35 35 36 35 33 32 29 26
19 19 20 21 22 22 22 23 23 23 24 24 24 24 24 24 24 24 26 26 26 26 27 27 29 30 30 32 33 34 34 34 36 35 35 35 35 35 35 35 35 33 30 28 27
19 20 20 21 22 22 22 23 23 24 24 24 24 24 24 24 24 27 27 26 27 27 26 28 30 31 31 33 34 34 34 35 35 34 34 35 35 35 35 35 34 34 30 28 27
20 20 20 21 22 22 23 23 24 24 25 24 24 24 24 24 29 27 27 27 27 27 26 28 30 31 32 34 35 34 35 35 35 34 34 35 34 35 34 34 34 34 31 29 28
20 20 21 21 22 22 23 23 24 24 24 25 25 25 24 24 28 27 27 27 27 27 26 29 30 32 32 34 35 34 35 34 34 34 34 34 35 35 34 34 34 33 33 29 29
20 20 21 21 22 23 23 23 23 24 24 25 25 25 25 27 27 28 28 27 26 25 28 30 31 32 32 33 34 34 34 34 34 34 34 35 34 34 33 34 33 33 33 31 29
20 21 21 22 22 23 23 23 23 24 24 24 25 25 23 29 28 26 27 26 27 28 30 30 31 31 32 34 34 34 33 35 35 35 35 34 34 33 33 33 33 32 31 32 30
20 21 21 22 23 23 23 24 24 24 24 24 24 25 28 28 28 27 28 28 28 28 29 30 30 30 32 33 34 34 35 34 35 35 35 34 32 34 34 33 32 31 31 30 30
21 21 21 22 23 23 23 24 24 24 24 24 25 24 30 27 28 28 29 29 29 29 29 30 29 31 32 33 33 35 34 35 34 35 35 35 33 34 34 32 31 30 30 30 28
20 21 22 22 23 23 24 24 24 24 24 25 25 25 28 29 29 29 29 29 30 30 30 30 31 32 33 33 32 34 35 35 34 35 35 34 34 34 34 33 31 30 29 28 28
20 21 22 22 23 24 24 24 24 23 24 29 30 30 31 30 29 29 29 29 30 31 31 32 32 32 35 35 34 34 34 34 35 35 33 34 34 34 33 33 32 30 29 28 27
20 21 22 23 23 24 24 26 25 25 27 29 30 31 31 30 30 30 30 30 31 31 33 33 32 35 34 34 33 34 33 34 35 35 33 34 34 34 33 33 32 31 30 29 27
20 21 22 23 24 24 25 24 24 25 27 31 30 30 30 30 32 31 30 31 33 32 34 33 34 34 33 34 33 34 33 33 33 34 34 34 33 34 33 32 32 31 30 28 27
20 21 21 23 23 24 26 25 25 25 28 32 31 32 31 31 32 32 31 32 33 33 34 34 34 33 33 33 33 33 33 33 33 32 31 34 31 33 32 32 32 31 30 29 27
20 20 21 21 22 25 24 25 24 26 28 32 33 32 32 32 33 32 32 32 32 34 33 33 33 32 32 33 33 32 33 32 32 32 32 33 32 33 32 31 32 31 30 28 27
20 20 21 21 21 23 24 25 26 28 29 33 33 32 33 32 33 33 32 32 33 33 33 33 33 33 33 33 32 33 32 32 33 32 31 33 33 31 32 32 32 30 29 28 28
20 21 21 22 23 24 24 26 28 29 34 33 33 33 33 33 33 33 32 32 31 30 31 33 33 33 32 32 33 32 32 30 30 31 31 33 33 32 32 33 32 30 29 28 28
21 21 22 22 21 23 24 27 27 32 34 34 34 34 33 34 34 33 33 32 33 33 32 32 32 32 33 32 31 31 31 29 27 29 30 32 31 31 32 31 30 29 29 28 28
21 22 21 23 22 23 25 27 29 32 34 33 33 32 33 34 34 33 33 33 34 34 31 31 32 33 32 32 31 31 29 32 30 30 30 32 32 32 32 31 30 30 29 28 28
20 21 23 25 24 24 26 25 30 33 32 32 30 33 32 33 33 32 32 33 33 33 33 32 30 32 32 31 31 30 31 29 30 28 28 31 31 29 29 30 30 29 28 28 26
19 22 25 24 24 25 26 29 31 32 30 30 31 31 32 33 33 33 33 34 34 33 32 32 31 31 31 30 30 30 29 30 31 30 28 28 29 31 29 29 29 29 28 27 26
17 25 25 24 25 27 28 30 29 31 30 30 31 31 31 32 32 32 32 32 32 32 31 31 30 29 30 33 32 31 30 30 27 28 29 28 29 31 30 30 29 28 26 24 23
16 22 25 24 26 28 30 30 30 29 30 30 30 31 31 31 30 31 32 30 30 31 29 30 29 27 28 30 32 30 30 29 29 29 27 26 27 31 30 30 29 26 25 23 23
15 24 25 25 25 27 27 29 29 28 29 29 30 30 30 29 30 29 30 30 29 28 26 27 28 27 27 28 29 28 29 29 29 27 27 28 28 30 29 28 28 26 25 23 22
16 24 23 25 27 27 28 28 28 28 28 28 28 29 29 28 29 29 30 30 29 26 27 27 25 27 28 28 29 28 28 29 28 28 27 28 28 29 27 26 26 25 24 23 22
17 19 19 21 23 24 23 25 26 28 29 28 27 28 29 28 28 28 30 29 29 27 27 27 25 26 25 27 27 27 28 28 28 28 28 28 28 29 26 24 24 23 23 22 22
14 14 17 20 23 24 25 26 26 27 28 27 28 27 28 27 26 27 29 29 29 28 27 26 25 25 24 26 26 25 27 28 28 28 28 26 27 26 24 24 23 23 22 22 20

GFSSW_850_temp_123.txt.gz
Temp
19 20 20 21 22 22 22 23 23 23 24 24 24 24 24 24 25 25 26 27 27 27 27 27 27 28 28 29 29 31 26 28 31 31 31 34 32 35 34 27 28 29 27 26 25
19 20 20 21 21 22 22 23 23 23 24 24 24 24 24 24 24 26 27 27 26 26 27 27 28 29 29 30 31 29 27 31 32 31 31 33 34 34 34 30 29 28 26 26 25
20 20 20 21 21 22 22 23 24 24 24 24 24 24 24 24 25 27 28 27 26 27 27 27 28 29 31 31 31 32 30 32 34 34 34 33 33 34 32 30 28 26 26 25 25
20 20 21 21 22 22 23 23 23 24 24 25 25 24 24 24 26 27 28 27 26 27 27 27 28 29 28 28 32 32 34 34 34 34 34 33 34 32 33 33 30 27 26 26 25
20 20 21 21 22 23 23 23 23 24 24 25 25 25 24 24 26 27 28 27 27 27 27 27 29 30 28 30 32 32 32 34 34 34 34 34 33 32 33 33 31 28 27 26 26
20 21 21 22 22 23 23 23 24 24 24 25 25 24 24 23 27 28 28 28 27 27 28 28 29 30 32 31 30 33 33 33 34 34 34 33 33 33 33 33 32 29 27 27 26
20 21 21 22 23 23 23 23 24 24 24 24 24 24 24 26 28 28 28 28 28 28 28 30 30 30 31 29 32 33 31 31 32 33 33 34 30 32 33 32 31 31 30 28 27
20 21 22 22 23 23 23 24 24 24 24 24 24 25 26 28 28 27 27 28 28 28 28 29 30 30 30 31 31 29 30 28 32 33 33 32 29 32 32 31 31 30 30 30 28
21 21 22 22 23 24 23 23 23 24 24 24 24 23 25 28 28 28 28 29 29 29 29 29 30 30 30 27 26 28 27 30 31 34 34 31 29 31 31 30 30 29 28 28 28
21 21 22 23 23 24 24 24 24 24 24 24 23 22 26 28 28 28 29 29 30 30 30 30 30 26 26 25 25 28 29 30 30 32 33 30 29 31 30 29 29 28 27 27 26
21 22 22 23 23 24 25 24 24 24 24 25 27 29 30 29 30 29 29 29 30 31 27 30 26 25 27 28 32 31 30 31 32 32 32 31 29 29 30 29 27 27 27 26 25
21 21 23 23 24 24 25 25 25 25 25 27 28 28 31 30 30 30 30 30 30 28 29 28 26 29 33 33 32 31 30 30 32 31 30 30 29 29 29 28 28 27 27 26 25
20 21 22 24 24 24 25 25 25 26 25 28 29 29 31 30 31 31 30 30 29 28 29 27 30 34 33 32 32 30 29 30 30 31 31 30 28 29 29 30 29 28 27 26 25
20 21 22 24 24 24 25 25 25 26 22 29 30 31 31 30 30 31 31 31 31 29 30 31 33 33 32 32 32 27 30 30 30 28 25 29 24 27 26 27 27 27 27 26 25
20 21 22 21 23 24 25 25 25 25 23 31 31 32 31 31 32 32 31 31 29 30 32 29 31 31 31 31 31 30 30 29 29 27 27 27 25 27 27 26 26 26 27 26 25
20 20 22 22 23 24 24 24 25 23 25 31 32 31 30 31 32 32 32 32 32 30 30 31 33 32 32 32 32 32 30 27 27 25 24 27 26 25 25 27 26 26 27 27 26
21 21 21 22 23 23 24 25 23 23 32 31 29 30 29 30 30 31 30 29 27 28 27 29 30 31 32 30 30 30 26 22 22 22 24 25 26 26 28 27 27 26 28 27 25
21 22 22 23 24 23 23 22 23 29 31 33 32 30 29 30 30 31 29 28 28 28 26 26 26 29 31 30 29 29 27 22 24 23 24 28 27 27 27 28 28 28 28 27 26
21 22 23 24 23 23 23 21 25 29 31 31 32 31 29 31 31 31 29 29 30 29 26 28 29 31 31 31 29 29 25 27 24 26 23 25 27 26 27 26 28 28 28 27 26
20 22 25 24 23 24 22 21 25 28 30 31 29 31 30 31 31 31 31 31 31 32 29 29 26 30 31 30 31 29 28 23 21 24 23 24 26 23 25 25 25 26 27 26 26
20 20 25 24 24 24 20 24 27 30 31 30 29 28 28 29 29 30 29 31 32 31 29 29 26 26 28 28 26 26 25 25 23 22 22 22 23 25 24 24 25 26 24 24 23
18 18 25 25 23 24 22 25 28 29 30 30 29 28 28 28 27 29 31 30 31 30 28 29 26 24 26 28 29 30 26 24 20 22 21 22 21 26 25 25 25 23 23 23 22
14 17 24 24 21 22 25 27 29 29 29 29 29 29 28 27 26 29 30 30 30 26 24 25 23 22 24 24 27 28 29 27 24 21 21 20 20 26 26 25 25 24 23 23 22
11 18 23 24 25 23 23 24 26 30 29 29 27 28 27 27 27 28 28 29 27 26 27 27 24 23 20 23 25 25 27 27 24 21 21 21 24 23 23 21 22 23 23 22 22
13 18 19 20 22 21 23 24 25 26 28 28 27 27 26 25 25 26 28 28 26 26 27 23 22 24 24 25 26 25 26 26 24 23 23 23 24 24 20 20 22 22 22 22 22
13 15 15 17 21 21 22 24 25 26 26 27 25 27 26 25 25 24 24 24 25 25 24 23 21 24 23 25 25 24 25 25 25 25 24 24 24 20 23 23 22 22 22 22 20
11 12 14 17 19 20 22 23 25 26 26 27 27 26 23 23 24 24 26 27 26 23 22 22 21 21 21 23 22 21 23 24 24 24 25 22 21 20 20 21 20 20 21 19 18

GFSSW_850_temp_126.txt.gz
Temp
19 20 20 21 21 22 22 23 23 24 24 24 24 24 24 24 24 25 26 27 27 27 27 28 28 28 27 26 28 28 23 24 27 28 29 32 31 29 28 26 26 26 24 23 22
19 20 20 21 21 22 22 23 23 24 24 24 24 24 24 24 25 26 27 27 27 27 27 28 28 27 26 28 29 26 22 27 28 30 31 32 31 29 27 26 26 25 24 22 21
19 20 20 21 21 22 23 23 23 23 24 24 24 24 24 25 25 27 27 27 27 27 27 28 27 26 27 29 29 27 26 28 31 33 33 32 32 30 27 26 25 24 24 23 22
20 20 20 21 21 22 22 23 23 23 24 24 25 24 24 25 25 27 27 27 27 27 27 28 28 28 27 26 30 28 30 32 32 33 33 31 32 31 29 28 28 27 24 24 22
20 20 21 21 21 22 22 23 23 23 24 25 25 25 25 25 27 27 27 27 27 27 28 28 27 27 26 28 29 29 31 33 32 33 33 33 31 32 30 29 27 25 24 24 23
20 20 21 21 22 22 23 23 24 24 24 24 25 25 25 24 27 27 27 27 27 27 28 28 29 29 28 28 28 30 30 32 32 33 33 30 31 32 28 27 25 25 24 24 24
20 21 21 21 22 22 23 23 23 23 24 24 24 24 25 28 27 28 28 28 28 28 28 29 29 28 30 27 30 30 29 28 30 32 31 32 30 28 27 27 26 25 25 24 24
20 21 22 22 22 22 23 23 23 23 23 24 24 24 26 27 27 28 28 28 28 28 28 29 29 29 29 30 29 27 26 27 29 29 31 30 28 28 29 28 26 26 25 25 24
21 21 22 22 23 23 23 23 23 23 23 23 24 23 27 27 27 28 28 28 29 29 29 29 29 29 29 25 23 24 25 26 29 30 30 29 27 28 29 29 26 26 25 25 25
21 22 22 23 23 24 24 24 24 24 23 24 23 23 27 28 28 28 28 28 28 29 28 29 29 24 22 22 23 25 26 28 29 31 29 27 26 26 27 27 26 26 25 24 24
21 22 22 23 23 24 24 24 24 23 24 26 26 27 28 29 28 28 29 29 29 29 26 28 24 23 24 23 25 26 29 29 30 31 29 26 26 26 26 25 24 25 25 24 23
21 22 23 23 24 24 24 25 25 25 24 26 27 26 28 28 29 29 29 29 29 26 27 24 24 26 26 27 28 30 28 27 29 30 29 26 27 25 26 25 25 25 25 25 24
20 21 22 24 24 24 24 25 25 25 23 25 28 29 29 29 30 30 29 29 28 27 26 24 27 29 28 31 29 27 27 28 29 28 28 28 26 26 26 25 25 25 26 25 25
20 21 22 24 24 24 24 25 25 25 18 23 26 29 30 30 29 30 30 30 28 26 26 25 28 30 31 30 26 27 28 28 28 25 25 27 23 25 23 23 24 24 24 24 25
20 20 21 22 23 24 24 25 25 25 22 28 28 31 30 30 30 30 30 30 28 27 29 27 30 30 29 30 29 28 29 29 28 26 24 25 23 22 23 22 23 23 24 24 25
20 20 22 22 23 24 24 25 25 20 23 28 30 28 27 29 30 30 30 30 30 28 28 27 31 30 30 30 30 31 27 24 21 20 22 24 24 23 23 23 23 23 23 24 24
20 20 21 22 23 23 23 24 19 20 27 28 28 27 26 27 28 29 28 28 25 27 25 26 28 30 30 29 27 25 21 20 22 20 22 23 22 22 24 25 25 23 23 24 24
21 21 22 24 23 23 23 19 22 24 27 29 27 26 26 26 27 28 26 26 25 25 23 24 25 28 29 28 27 27 22 19 24 21 22 22 22 23 24 25 26 25 25 24 24
21 22 23 24 23 22 22 18 20 23 27 28 27 26 26 27 28 27 25 25 26 24 25 23 27 29 29 29 27 27 24 23 20 20 21 21 24 25 24 24 24 24 24 24 24
20 22 25 23 23 22 17 16 21 25 27 27 27 27 27 28 28 27 25 26 28 26 25 25 25 28 29 29 29 26 25 23 18 23 23 21 23 21 23 23 22 22 23 23 22
19 21 24 23 23 21 16 16 22 27 27 28 26 26 26 26 26 26 26 28 29 27 26 23 23 25 27 26 25 24 24 21 19 18 19 19 21 21 21 21 21 21 22 22 22
17 14 24 22 20 17 16 21 25 25 26 27 28 27 26 26 26 27 28 27 28 27 27 24 19 22 25 26 27 24 23 20 19 22 18 18 20 25 22 22 21 20 21 22 22
13 16 23 23 18 16 17 22 24 24 24 26 27 26 27 26 27 27 27 27 28 24 25 25 20 20 22 22 23 24 25 23 17 17 20 19 19 22 22 20 21 21 22 22 21
11 10 20 22 20 19 19 20 22 25 25 27 26 26 23 24 24 26 27 27 27 26 26 24 18 19 19 22 22 25 24 25 20 18 19 18 21 23 20 18 19 21 22 21 21
12 11 14 12 15 14 18 20 22 23 25 27 26 25 24 24 22 23 22 25 25 26 24 20 21 22 21 23 24 24 24 24 23 22 21 21 20 19 17 17 20 21 21 21 20
11 11 12 13 15 16 17 20 22 23 23 23 24 25 19 19 20 21 21 22 23 24 23 18 19 22 22 23 22 23 23 23 23 23 21 20 20 17 20 21 20 21 21 19 18
10 11 11 13 12 14 15 17 19 20 23 23 22 19 19 21 22 23 23 22 22 22 19 19 17 16 19 20 21 20 22 23 22 21 21 20 19 18 17 18 19 20 20 18 18